<?xml version="1.0" encoding="UTF-8" standalone="no" ?>
<gpx xmlns="http://www.topografix.com/GPX/1/1" xmlns:xsi="http://www.w3.org/2001/XMLSchema-instance" xsi:schemaLocation="http://www.topografix.com/GPX/1/1 http://www.topografix.com/GPX/1/1/gpx.xsd" version="1.1" creator="VisuGPX - https://www.visugpx.com">
  <metadata>
    <name>Vert Septeuil Arnouville MA-Rando-2019-06-09</name>
  </metadata>
  <trk>
    <name><![CDATA[MA-Rando-2019-06-09-104237]]></name>
    <trkseg>
      <trkpt lat="48.94124" lon="1.69222">
        <ele>48</ele>
        <time>2019-06-09T08:15:43Z</time>
      </trkpt>
      <trkpt lat="48.94119" lon="1.69234">
        <ele>48</ele>
        <time>2019-06-09T08:16:03Z</time>
      </trkpt>
      <trkpt lat="48.9412" lon="1.69249">
        <ele>48</ele>
        <time>2019-06-09T08:16:12Z</time>
      </trkpt>
      <trkpt lat="48.94121" lon="1.69264">
        <ele>46</ele>
        <time>2019-06-09T08:16:17Z</time>
      </trkpt>
      <trkpt lat="48.94122" lon="1.69279">
        <ele>46</ele>
        <time>2019-06-09T08:16:26Z</time>
      </trkpt>
      <trkpt lat="48.94122" lon="1.69293">
        <ele>46</ele>
        <time>2019-06-09T08:16:34Z</time>
      </trkpt>
      <trkpt lat="48.94123" lon="1.69308">
        <ele>46</ele>
        <time>2019-06-09T08:16:41Z</time>
      </trkpt>
      <trkpt lat="48.94124" lon="1.69322">
        <ele>45</ele>
        <time>2019-06-09T08:16:51Z</time>
      </trkpt>
      <trkpt lat="48.94118" lon="1.69333">
        <ele>44</ele>
        <time>2019-06-09T08:16:58Z</time>
      </trkpt>
      <trkpt lat="48.94113" lon="1.69347">
        <ele>44</ele>
        <time>2019-06-09T08:17:06Z</time>
      </trkpt>
      <trkpt lat="48.94109" lon="1.6936">
        <ele>43</ele>
        <time>2019-06-09T08:17:17Z</time>
      </trkpt>
      <trkpt lat="48.94104" lon="1.69373">
        <ele>43</ele>
        <time>2019-06-09T08:17:23Z</time>
      </trkpt>
      <trkpt lat="48.941" lon="1.69386">
        <ele>43</ele>
        <time>2019-06-09T08:17:31Z</time>
      </trkpt>
      <trkpt lat="48.94096" lon="1.69401">
        <ele>43</ele>
        <time>2019-06-09T08:17:37Z</time>
      </trkpt>
      <trkpt lat="48.9409" lon="1.69415">
        <ele>42</ele>
        <time>2019-06-09T08:17:43Z</time>
      </trkpt>
      <trkpt lat="48.94085" lon="1.69428">
        <ele>42</ele>
        <time>2019-06-09T08:17:50Z</time>
      </trkpt>
      <trkpt lat="48.94082" lon="1.69441">
        <ele>42</ele>
        <time>2019-06-09T08:17:59Z</time>
      </trkpt>
      <trkpt lat="48.94077" lon="1.69455">
        <ele>42</ele>
        <time>2019-06-09T08:18:07Z</time>
      </trkpt>
      <trkpt lat="48.94071" lon="1.69466">
        <ele>42</ele>
        <time>2019-06-09T08:18:14Z</time>
      </trkpt>
      <trkpt lat="48.94065" lon="1.69479">
        <ele>42</ele>
        <time>2019-06-09T08:18:20Z</time>
      </trkpt>
      <trkpt lat="48.94062" lon="1.69493">
        <ele>42</ele>
        <time>2019-06-09T08:18:27Z</time>
      </trkpt>
      <trkpt lat="48.94057" lon="1.69505">
        <ele>43</ele>
        <time>2019-06-09T08:18:33Z</time>
      </trkpt>
      <trkpt lat="48.94054" lon="1.69518">
        <ele>43</ele>
        <time>2019-06-09T08:18:39Z</time>
      </trkpt>
      <trkpt lat="48.9405" lon="1.69532">
        <ele>43</ele>
        <time>2019-06-09T08:18:45Z</time>
      </trkpt>
      <trkpt lat="48.94047" lon="1.69545">
        <ele>44</ele>
        <time>2019-06-09T08:18:51Z</time>
      </trkpt>
      <trkpt lat="48.9404" lon="1.69556">
        <ele>44</ele>
        <time>2019-06-09T08:19:00Z</time>
      </trkpt>
      <trkpt lat="48.94031" lon="1.69549">
        <ele>44</ele>
        <time>2019-06-09T08:19:06Z</time>
      </trkpt>
      <trkpt lat="48.94023" lon="1.69538">
        <ele>44</ele>
        <time>2019-06-09T08:19:15Z</time>
      </trkpt>
      <trkpt lat="48.94017" lon="1.69528">
        <ele>44</ele>
        <time>2019-06-09T08:19:20Z</time>
      </trkpt>
      <trkpt lat="48.94008" lon="1.69521">
        <ele>44</ele>
        <time>2019-06-09T08:19:27Z</time>
      </trkpt>
      <trkpt lat="48.94" lon="1.69512">
        <ele>43</ele>
        <time>2019-06-09T08:19:35Z</time>
      </trkpt>
      <trkpt lat="48.93994" lon="1.695">
        <ele>44</ele>
        <time>2019-06-09T08:19:42Z</time>
      </trkpt>
      <trkpt lat="48.93986" lon="1.69494">
        <ele>43</ele>
        <time>2019-06-09T08:19:50Z</time>
      </trkpt>
      <trkpt lat="48.93977" lon="1.6949">
        <ele>43</ele>
        <time>2019-06-09T08:19:57Z</time>
      </trkpt>
      <trkpt lat="48.93967" lon="1.69482">
        <ele>43</ele>
        <time>2019-06-09T08:20:03Z</time>
      </trkpt>
      <trkpt lat="48.93958" lon="1.69476">
        <ele>43</ele>
        <time>2019-06-09T08:20:09Z</time>
      </trkpt>
      <trkpt lat="48.93948" lon="1.69472">
        <ele>43</ele>
        <time>2019-06-09T08:20:15Z</time>
      </trkpt>
      <trkpt lat="48.93939" lon="1.69468">
        <ele>43</ele>
        <time>2019-06-09T08:20:23Z</time>
      </trkpt>
      <trkpt lat="48.9393" lon="1.69467">
        <ele>44</ele>
        <time>2019-06-09T08:20:30Z</time>
      </trkpt>
      <trkpt lat="48.9392" lon="1.69466">
        <ele>44</ele>
        <time>2019-06-09T08:20:38Z</time>
      </trkpt>
      <trkpt lat="48.9391" lon="1.69463">
        <ele>45</ele>
        <time>2019-06-09T08:20:46Z</time>
      </trkpt>
      <trkpt lat="48.93901" lon="1.69464">
        <ele>45</ele>
        <time>2019-06-09T08:20:53Z</time>
      </trkpt>
      <trkpt lat="48.93892" lon="1.6946">
        <ele>45</ele>
        <time>2019-06-09T08:21:00Z</time>
      </trkpt>
      <trkpt lat="48.93882" lon="1.69458">
        <ele>45</ele>
        <time>2019-06-09T08:21:07Z</time>
      </trkpt>
      <trkpt lat="48.93872" lon="1.69453">
        <ele>45</ele>
        <time>2019-06-09T08:21:16Z</time>
      </trkpt>
      <trkpt lat="48.93863" lon="1.6945">
        <ele>45</ele>
        <time>2019-06-09T08:21:25Z</time>
      </trkpt>
      <trkpt lat="48.93853" lon="1.69447">
        <ele>45</ele>
        <time>2019-06-09T08:21:35Z</time>
      </trkpt>
      <trkpt lat="48.93843" lon="1.69445">
        <ele>45</ele>
        <time>2019-06-09T08:21:44Z</time>
      </trkpt>
      <trkpt lat="48.93834" lon="1.6944">
        <ele>45</ele>
        <time>2019-06-09T08:21:51Z</time>
      </trkpt>
      <trkpt lat="48.93826" lon="1.69433">
        <ele>45</ele>
        <time>2019-06-09T08:21:58Z</time>
      </trkpt>
      <trkpt lat="48.93816" lon="1.69427">
        <ele>45</ele>
        <time>2019-06-09T08:22:07Z</time>
      </trkpt>
      <trkpt lat="48.93808" lon="1.6942">
        <ele>45</ele>
        <time>2019-06-09T08:22:13Z</time>
      </trkpt>
      <trkpt lat="48.938" lon="1.69414">
        <ele>43</ele>
        <time>2019-06-09T08:22:21Z</time>
      </trkpt>
      <trkpt lat="48.93791" lon="1.6941">
        <ele>43</ele>
        <time>2019-06-09T08:22:28Z</time>
      </trkpt>
      <trkpt lat="48.93781" lon="1.69405">
        <ele>43</ele>
        <time>2019-06-09T08:22:34Z</time>
      </trkpt>
      <trkpt lat="48.93771" lon="1.69402">
        <ele>43</ele>
        <time>2019-06-09T08:22:41Z</time>
      </trkpt>
      <trkpt lat="48.93761" lon="1.69399">
        <ele>43</ele>
        <time>2019-06-09T08:22:49Z</time>
      </trkpt>
      <trkpt lat="48.93752" lon="1.69398">
        <ele>43</ele>
        <time>2019-06-09T08:22:57Z</time>
      </trkpt>
      <trkpt lat="48.93742" lon="1.69395">
        <ele>43</ele>
        <time>2019-06-09T08:23:05Z</time>
      </trkpt>
      <trkpt lat="48.93731" lon="1.69396">
        <ele>43</ele>
        <time>2019-06-09T08:23:12Z</time>
      </trkpt>
      <trkpt lat="48.93722" lon="1.69396">
        <ele>43</ele>
        <time>2019-06-09T08:23:19Z</time>
      </trkpt>
      <trkpt lat="48.93712" lon="1.69395">
        <ele>43</ele>
        <time>2019-06-09T08:23:28Z</time>
      </trkpt>
      <trkpt lat="48.93703" lon="1.69394">
        <ele>43</ele>
        <time>2019-06-09T08:23:34Z</time>
      </trkpt>
      <trkpt lat="48.93693" lon="1.69389">
        <ele>43</ele>
        <time>2019-06-09T08:23:42Z</time>
      </trkpt>
      <trkpt lat="48.93684" lon="1.69387">
        <ele>43</ele>
        <time>2019-06-09T08:23:50Z</time>
      </trkpt>
      <trkpt lat="48.93674" lon="1.69389">
        <ele>43</ele>
        <time>2019-06-09T08:23:58Z</time>
      </trkpt>
      <trkpt lat="48.93664" lon="1.69392">
        <ele>43</ele>
        <time>2019-06-09T08:24:06Z</time>
      </trkpt>
      <trkpt lat="48.93655" lon="1.69394">
        <ele>43</ele>
        <time>2019-06-09T08:24:13Z</time>
      </trkpt>
      <trkpt lat="48.93645" lon="1.69394">
        <ele>43</ele>
        <time>2019-06-09T08:24:22Z</time>
      </trkpt>
      <trkpt lat="48.93636" lon="1.69396">
        <ele>43</ele>
        <time>2019-06-09T08:24:29Z</time>
      </trkpt>
      <trkpt lat="48.93627" lon="1.694">
        <ele>43</ele>
        <time>2019-06-09T08:24:38Z</time>
      </trkpt>
      <trkpt lat="48.93617" lon="1.694">
        <ele>43</ele>
        <time>2019-06-09T08:24:46Z</time>
      </trkpt>
      <trkpt lat="48.93608" lon="1.69401">
        <ele>43</ele>
        <time>2019-06-09T08:24:52Z</time>
      </trkpt>
      <trkpt lat="48.93599" lon="1.69399">
        <ele>44</ele>
        <time>2019-06-09T08:24:59Z</time>
      </trkpt>
      <trkpt lat="48.93589" lon="1.69396">
        <ele>44</ele>
        <time>2019-06-09T08:25:06Z</time>
      </trkpt>
      <trkpt lat="48.9358" lon="1.6939">
        <ele>45</ele>
        <time>2019-06-09T08:25:14Z</time>
      </trkpt>
      <trkpt lat="48.9357" lon="1.69387">
        <ele>45</ele>
        <time>2019-06-09T08:25:23Z</time>
      </trkpt>
      <trkpt lat="48.9356" lon="1.69386">
        <ele>45</ele>
        <time>2019-06-09T08:25:31Z</time>
      </trkpt>
      <trkpt lat="48.9355" lon="1.69384">
        <ele>45</ele>
        <time>2019-06-09T08:25:39Z</time>
      </trkpt>
      <trkpt lat="48.93541" lon="1.69381">
        <ele>45</ele>
        <time>2019-06-09T08:25:46Z</time>
      </trkpt>
      <trkpt lat="48.93532" lon="1.69378">
        <ele>45</ele>
        <time>2019-06-09T08:25:53Z</time>
      </trkpt>
      <trkpt lat="48.93522" lon="1.69377">
        <ele>45</ele>
        <time>2019-06-09T08:26:01Z</time>
      </trkpt>
      <trkpt lat="48.93513" lon="1.69372">
        <ele>45</ele>
        <time>2019-06-09T08:26:09Z</time>
      </trkpt>
      <trkpt lat="48.93504" lon="1.69369">
        <ele>45</ele>
        <time>2019-06-09T08:26:17Z</time>
      </trkpt>
      <trkpt lat="48.93495" lon="1.69365">
        <ele>46</ele>
        <time>2019-06-09T08:26:25Z</time>
      </trkpt>
      <trkpt lat="48.93485" lon="1.69366">
        <ele>47</ele>
        <time>2019-06-09T08:26:32Z</time>
      </trkpt>
      <trkpt lat="48.93476" lon="1.69364">
        <ele>47</ele>
        <time>2019-06-09T08:26:39Z</time>
      </trkpt>
      <trkpt lat="48.93466" lon="1.69362">
        <ele>47</ele>
        <time>2019-06-09T08:26:52Z</time>
      </trkpt>
      <trkpt lat="48.93456" lon="1.69362">
        <ele>47</ele>
        <time>2019-06-09T08:26:57Z</time>
      </trkpt>
      <trkpt lat="48.93447" lon="1.6936">
        <ele>47</ele>
        <time>2019-06-09T08:27:05Z</time>
      </trkpt>
      <trkpt lat="48.93437" lon="1.69357">
        <ele>47</ele>
        <time>2019-06-09T08:27:12Z</time>
      </trkpt>
      <trkpt lat="48.93428" lon="1.69356">
        <ele>47</ele>
        <time>2019-06-09T08:27:19Z</time>
      </trkpt>
      <trkpt lat="48.93419" lon="1.69353">
        <ele>47</ele>
        <time>2019-06-09T08:27:27Z</time>
      </trkpt>
      <trkpt lat="48.93409" lon="1.69352">
        <ele>47</ele>
        <time>2019-06-09T08:27:35Z</time>
      </trkpt>
      <trkpt lat="48.934" lon="1.69346">
        <ele>47</ele>
        <time>2019-06-09T08:27:43Z</time>
      </trkpt>
      <trkpt lat="48.93391" lon="1.69343">
        <ele>47</ele>
        <time>2019-06-09T08:27:51Z</time>
      </trkpt>
      <trkpt lat="48.93382" lon="1.69343">
        <ele>47</ele>
        <time>2019-06-09T08:27:58Z</time>
      </trkpt>
      <trkpt lat="48.93372" lon="1.69346">
        <ele>48</ele>
        <time>2019-06-09T08:28:05Z</time>
      </trkpt>
      <trkpt lat="48.93362" lon="1.6935">
        <ele>48</ele>
        <time>2019-06-09T08:28:12Z</time>
      </trkpt>
      <trkpt lat="48.93353" lon="1.6935">
        <ele>48</ele>
        <time>2019-06-09T08:28:20Z</time>
      </trkpt>
      <trkpt lat="48.93343" lon="1.6935">
        <ele>48</ele>
        <time>2019-06-09T08:28:30Z</time>
      </trkpt>
      <trkpt lat="48.93333" lon="1.6935">
        <ele>47</ele>
        <time>2019-06-09T08:28:40Z</time>
      </trkpt>
      <trkpt lat="48.93323" lon="1.6935">
        <ele>47</ele>
        <time>2019-06-09T08:28:47Z</time>
      </trkpt>
      <trkpt lat="48.93313" lon="1.69353">
        <ele>47</ele>
        <time>2019-06-09T08:28:57Z</time>
      </trkpt>
      <trkpt lat="48.93305" lon="1.69361">
        <ele>47</ele>
        <time>2019-06-09T08:29:06Z</time>
      </trkpt>
      <trkpt lat="48.93296" lon="1.69368">
        <ele>47</ele>
        <time>2019-06-09T08:29:13Z</time>
      </trkpt>
      <trkpt lat="48.93287" lon="1.69373">
        <ele>47</ele>
        <time>2019-06-09T08:29:23Z</time>
      </trkpt>
      <trkpt lat="48.93279" lon="1.69381">
        <ele>47</ele>
        <time>2019-06-09T08:29:31Z</time>
      </trkpt>
      <trkpt lat="48.9327" lon="1.69386">
        <ele>47</ele>
        <time>2019-06-09T08:29:38Z</time>
      </trkpt>
      <trkpt lat="48.93261" lon="1.69391">
        <ele>47</ele>
        <time>2019-06-09T08:29:44Z</time>
      </trkpt>
      <trkpt lat="48.93252" lon="1.69395">
        <ele>47</ele>
        <time>2019-06-09T08:29:53Z</time>
      </trkpt>
      <trkpt lat="48.93243" lon="1.69396">
        <ele>46</ele>
        <time>2019-06-09T08:30:00Z</time>
      </trkpt>
      <trkpt lat="48.93234" lon="1.69396">
        <ele>46</ele>
        <time>2019-06-09T08:30:07Z</time>
      </trkpt>
      <trkpt lat="48.93224" lon="1.69395">
        <ele>46</ele>
        <time>2019-06-09T08:30:15Z</time>
      </trkpt>
      <trkpt lat="48.93215" lon="1.69399">
        <ele>46</ele>
        <time>2019-06-09T08:30:22Z</time>
      </trkpt>
      <trkpt lat="48.93206" lon="1.69405">
        <ele>46</ele>
        <time>2019-06-09T08:30:30Z</time>
      </trkpt>
      <trkpt lat="48.93198" lon="1.69414">
        <ele>46</ele>
        <time>2019-06-09T08:30:35Z</time>
      </trkpt>
      <trkpt lat="48.93189" lon="1.69418">
        <ele>48</ele>
        <time>2019-06-09T08:30:41Z</time>
      </trkpt>
      <trkpt lat="48.93179" lon="1.6942">
        <ele>47</ele>
        <time>2019-06-09T08:30:49Z</time>
      </trkpt>
      <trkpt lat="48.9317" lon="1.69422">
        <ele>47</ele>
        <time>2019-06-09T08:30:55Z</time>
      </trkpt>
      <trkpt lat="48.93161" lon="1.69419">
        <ele>47</ele>
        <time>2019-06-09T08:31:01Z</time>
      </trkpt>
      <trkpt lat="48.93151" lon="1.69417">
        <ele>46</ele>
        <time>2019-06-09T08:31:09Z</time>
      </trkpt>
      <trkpt lat="48.93141" lon="1.69419">
        <ele>48</ele>
        <time>2019-06-09T08:31:15Z</time>
      </trkpt>
      <trkpt lat="48.93132" lon="1.69421">
        <ele>48</ele>
        <time>2019-06-09T08:31:22Z</time>
      </trkpt>
      <trkpt lat="48.93122" lon="1.69422">
        <ele>48</ele>
        <time>2019-06-09T08:31:28Z</time>
      </trkpt>
      <trkpt lat="48.93113" lon="1.69423">
        <ele>48</ele>
        <time>2019-06-09T08:31:35Z</time>
      </trkpt>
      <trkpt lat="48.93104" lon="1.69423">
        <ele>48</ele>
        <time>2019-06-09T08:31:42Z</time>
      </trkpt>
      <trkpt lat="48.93095" lon="1.69423">
        <ele>47</ele>
        <time>2019-06-09T08:31:48Z</time>
      </trkpt>
      <trkpt lat="48.93085" lon="1.69425">
        <ele>47</ele>
        <time>2019-06-09T08:31:54Z</time>
      </trkpt>
      <trkpt lat="48.93076" lon="1.69428">
        <ele>47</ele>
        <time>2019-06-09T08:32:00Z</time>
      </trkpt>
      <trkpt lat="48.93066" lon="1.69431">
        <ele>48</ele>
        <time>2019-06-09T08:32:06Z</time>
      </trkpt>
      <trkpt lat="48.93056" lon="1.69432">
        <ele>48</ele>
        <time>2019-06-09T08:32:14Z</time>
      </trkpt>
      <trkpt lat="48.93047" lon="1.69432">
        <ele>48</ele>
        <time>2019-06-09T08:32:20Z</time>
      </trkpt>
      <trkpt lat="48.93037" lon="1.69433">
        <ele>48</ele>
        <time>2019-06-09T08:32:27Z</time>
      </trkpt>
      <trkpt lat="48.93028" lon="1.6943">
        <ele>48</ele>
        <time>2019-06-09T08:32:36Z</time>
      </trkpt>
      <trkpt lat="48.93018" lon="1.69425">
        <ele>48</ele>
        <time>2019-06-09T08:32:42Z</time>
      </trkpt>
      <trkpt lat="48.93009" lon="1.69421">
        <ele>47</ele>
        <time>2019-06-09T08:32:50Z</time>
      </trkpt>
      <trkpt lat="48.93" lon="1.69421">
        <ele>47</ele>
        <time>2019-06-09T08:32:57Z</time>
      </trkpt>
      <trkpt lat="48.9299" lon="1.69422">
        <ele>48</ele>
        <time>2019-06-09T08:33:03Z</time>
      </trkpt>
      <trkpt lat="48.92981" lon="1.6942">
        <ele>48</ele>
        <time>2019-06-09T08:33:11Z</time>
      </trkpt>
      <trkpt lat="48.92971" lon="1.69418">
        <ele>49</ele>
        <time>2019-06-09T08:33:17Z</time>
      </trkpt>
      <trkpt lat="48.92962" lon="1.69416">
        <ele>47</ele>
        <time>2019-06-09T08:33:24Z</time>
      </trkpt>
      <trkpt lat="48.92953" lon="1.69412">
        <ele>47</ele>
        <time>2019-06-09T08:33:30Z</time>
      </trkpt>
      <trkpt lat="48.92944" lon="1.69409">
        <ele>47</ele>
        <time>2019-06-09T08:33:37Z</time>
      </trkpt>
      <trkpt lat="48.92935" lon="1.69405">
        <ele>47</ele>
        <time>2019-06-09T08:33:44Z</time>
      </trkpt>
      <trkpt lat="48.92926" lon="1.69401">
        <ele>47</ele>
        <time>2019-06-09T08:33:51Z</time>
      </trkpt>
      <trkpt lat="48.92916" lon="1.694">
        <ele>50</ele>
        <time>2019-06-09T08:34:01Z</time>
      </trkpt>
      <trkpt lat="48.92906" lon="1.69394">
        <ele>50</ele>
        <time>2019-06-09T08:34:09Z</time>
      </trkpt>
      <trkpt lat="48.92898" lon="1.69389">
        <ele>50</ele>
        <time>2019-06-09T08:34:15Z</time>
      </trkpt>
      <trkpt lat="48.92888" lon="1.69384">
        <ele>51</ele>
        <time>2019-06-09T08:34:23Z</time>
      </trkpt>
      <trkpt lat="48.92879" lon="1.69376">
        <ele>51</ele>
        <time>2019-06-09T08:34:29Z</time>
      </trkpt>
      <trkpt lat="48.92871" lon="1.69372">
        <ele>51</ele>
        <time>2019-06-09T08:34:36Z</time>
      </trkpt>
      <trkpt lat="48.92863" lon="1.69365">
        <ele>52</ele>
        <time>2019-06-09T08:34:43Z</time>
      </trkpt>
      <trkpt lat="48.92854" lon="1.69358">
        <ele>52</ele>
        <time>2019-06-09T08:34:49Z</time>
      </trkpt>
      <trkpt lat="48.92846" lon="1.69349">
        <ele>52</ele>
        <time>2019-06-09T08:34:56Z</time>
      </trkpt>
      <trkpt lat="48.92839" lon="1.6934">
        <ele>52</ele>
        <time>2019-06-09T08:35:07Z</time>
      </trkpt>
      <trkpt lat="48.92831" lon="1.6933">
        <ele>52</ele>
        <time>2019-06-09T08:35:15Z</time>
      </trkpt>
      <trkpt lat="48.92823" lon="1.69322">
        <ele>53</ele>
        <time>2019-06-09T08:35:24Z</time>
      </trkpt>
      <trkpt lat="48.92815" lon="1.69314">
        <ele>53</ele>
        <time>2019-06-09T08:35:30Z</time>
      </trkpt>
      <trkpt lat="48.92808" lon="1.69306">
        <ele>53</ele>
        <time>2019-06-09T08:35:37Z</time>
      </trkpt>
      <trkpt lat="48.928" lon="1.69298">
        <ele>53</ele>
        <time>2019-06-09T08:35:45Z</time>
      </trkpt>
      <trkpt lat="48.92792" lon="1.69292">
        <ele>53</ele>
        <time>2019-06-09T08:35:50Z</time>
      </trkpt>
      <trkpt lat="48.92785" lon="1.69283">
        <ele>53</ele>
        <time>2019-06-09T08:35:58Z</time>
      </trkpt>
      <trkpt lat="48.92777" lon="1.69272">
        <ele>53</ele>
        <time>2019-06-09T08:36:10Z</time>
      </trkpt>
      <trkpt lat="48.92771" lon="1.69262">
        <ele>52</ele>
        <time>2019-06-09T08:36:17Z</time>
      </trkpt>
      <trkpt lat="48.92763" lon="1.69252">
        <ele>51</ele>
        <time>2019-06-09T08:36:23Z</time>
      </trkpt>
      <trkpt lat="48.92753" lon="1.69244">
        <ele>50</ele>
        <time>2019-06-09T08:36:30Z</time>
      </trkpt>
      <trkpt lat="48.92749" lon="1.69231">
        <ele>50</ele>
        <time>2019-06-09T08:36:37Z</time>
      </trkpt>
      <trkpt lat="48.92756" lon="1.69221">
        <ele>49</ele>
        <time>2019-06-09T08:37:02Z</time>
      </trkpt>
      <trkpt lat="48.92765" lon="1.69215">
        <ele>49</ele>
        <time>2019-06-09T08:37:21Z</time>
      </trkpt>
      <trkpt lat="48.92773" lon="1.69208">
        <ele>49</ele>
        <time>2019-06-09T08:37:43Z</time>
      </trkpt>
      <trkpt lat="48.92784" lon="1.6921">
        <ele>49</ele>
        <time>2019-06-09T08:37:50Z</time>
      </trkpt>
      <trkpt lat="48.92794" lon="1.6921">
        <ele>49</ele>
        <time>2019-06-09T08:38:01Z</time>
      </trkpt>
      <trkpt lat="48.92804" lon="1.69208">
        <ele>49</ele>
        <time>2019-06-09T08:38:08Z</time>
      </trkpt>
      <trkpt lat="48.92811" lon="1.692">
        <ele>49</ele>
        <time>2019-06-09T08:38:14Z</time>
      </trkpt>
      <trkpt lat="48.92818" lon="1.6919">
        <ele>49</ele>
        <time>2019-06-09T08:38:20Z</time>
      </trkpt>
      <trkpt lat="48.92825" lon="1.69179">
        <ele>48</ele>
        <time>2019-06-09T08:38:27Z</time>
      </trkpt>
      <trkpt lat="48.92829" lon="1.69166">
        <ele>48</ele>
        <time>2019-06-09T08:38:33Z</time>
      </trkpt>
      <trkpt lat="48.9283" lon="1.69151">
        <ele>48</ele>
        <time>2019-06-09T08:38:41Z</time>
      </trkpt>
      <trkpt lat="48.92829" lon="1.69137">
        <ele>48</ele>
        <time>2019-06-09T08:38:56Z</time>
      </trkpt>
      <trkpt lat="48.9283" lon="1.69123">
        <ele>48</ele>
        <time>2019-06-09T08:39:03Z</time>
      </trkpt>
      <trkpt lat="48.92833" lon="1.6911">
        <ele>48</ele>
        <time>2019-06-09T08:39:12Z</time>
      </trkpt>
      <trkpt lat="48.92837" lon="1.69097">
        <ele>47</ele>
        <time>2019-06-09T08:39:29Z</time>
      </trkpt>
      <trkpt lat="48.92834" lon="1.69083">
        <ele>47</ele>
        <time>2019-06-09T08:39:36Z</time>
      </trkpt>
      <trkpt lat="48.92829" lon="1.6907">
        <ele>48</ele>
        <time>2019-06-09T08:39:44Z</time>
      </trkpt>
      <trkpt lat="48.92824" lon="1.69057">
        <ele>48</ele>
        <time>2019-06-09T08:39:52Z</time>
      </trkpt>
      <trkpt lat="48.92817" lon="1.69047">
        <ele>48</ele>
        <time>2019-06-09T08:39:58Z</time>
      </trkpt>
      <trkpt lat="48.92809" lon="1.69036">
        <ele>48</ele>
        <time>2019-06-09T08:40:04Z</time>
      </trkpt>
      <trkpt lat="48.92802" lon="1.69026">
        <ele>48</ele>
        <time>2019-06-09T08:40:11Z</time>
      </trkpt>
      <trkpt lat="48.92794" lon="1.69018">
        <ele>48</ele>
        <time>2019-06-09T08:40:18Z</time>
      </trkpt>
      <trkpt lat="48.92786" lon="1.69011">
        <ele>49</ele>
        <time>2019-06-09T08:40:24Z</time>
      </trkpt>
      <trkpt lat="48.92777" lon="1.69004">
        <ele>49</ele>
        <time>2019-06-09T08:40:33Z</time>
      </trkpt>
      <trkpt lat="48.92768" lon="1.68997">
        <ele>51</ele>
        <time>2019-06-09T08:40:41Z</time>
      </trkpt>
      <trkpt lat="48.92759" lon="1.68991">
        <ele>50</ele>
        <time>2019-06-09T08:40:49Z</time>
      </trkpt>
      <trkpt lat="48.9275" lon="1.68985">
        <ele>51</ele>
        <time>2019-06-09T08:40:55Z</time>
      </trkpt>
      <trkpt lat="48.92741" lon="1.68981">
        <ele>50</ele>
        <time>2019-06-09T08:41:01Z</time>
      </trkpt>
      <trkpt lat="48.92731" lon="1.68976">
        <ele>51</ele>
        <time>2019-06-09T08:41:08Z</time>
      </trkpt>
      <trkpt lat="48.92723" lon="1.68968">
        <ele>51</ele>
        <time>2019-06-09T08:41:16Z</time>
      </trkpt>
      <trkpt lat="48.92714" lon="1.68963">
        <ele>51</ele>
        <time>2019-06-09T08:41:23Z</time>
      </trkpt>
      <trkpt lat="48.92705" lon="1.68959">
        <ele>51</ele>
        <time>2019-06-09T08:41:29Z</time>
      </trkpt>
      <trkpt lat="48.92696" lon="1.68955">
        <ele>51</ele>
        <time>2019-06-09T08:41:36Z</time>
      </trkpt>
      <trkpt lat="48.92687" lon="1.68952">
        <ele>51</ele>
        <time>2019-06-09T08:41:42Z</time>
      </trkpt>
      <trkpt lat="48.92677" lon="1.68949">
        <ele>51</ele>
        <time>2019-06-09T08:41:49Z</time>
      </trkpt>
      <trkpt lat="48.92669" lon="1.68945">
        <ele>51</ele>
        <time>2019-06-09T08:41:55Z</time>
      </trkpt>
      <trkpt lat="48.92659" lon="1.68943">
        <ele>50</ele>
        <time>2019-06-09T08:42:02Z</time>
      </trkpt>
      <trkpt lat="48.92651" lon="1.68935">
        <ele>50</ele>
        <time>2019-06-09T08:42:09Z</time>
      </trkpt>
      <trkpt lat="48.92649" lon="1.6892">
        <ele>50</ele>
        <time>2019-06-09T08:42:15Z</time>
      </trkpt>
      <trkpt lat="48.92649" lon="1.68905">
        <ele>52</ele>
        <time>2019-06-09T08:42:23Z</time>
      </trkpt>
      <trkpt lat="48.9265" lon="1.68891">
        <ele>52</ele>
        <time>2019-06-09T08:42:30Z</time>
      </trkpt>
      <trkpt lat="48.92649" lon="1.68877">
        <ele>52</ele>
        <time>2019-06-09T08:42:38Z</time>
      </trkpt>
      <trkpt lat="48.92646" lon="1.68863">
        <ele>52</ele>
        <time>2019-06-09T08:42:45Z</time>
      </trkpt>
      <trkpt lat="48.92641" lon="1.68851">
        <ele>52</ele>
        <time>2019-06-09T08:42:51Z</time>
      </trkpt>
      <trkpt lat="48.92637" lon="1.68838">
        <ele>52</ele>
        <time>2019-06-09T08:42:57Z</time>
      </trkpt>
      <trkpt lat="48.92633" lon="1.68825">
        <ele>54</ele>
        <time>2019-06-09T08:43:04Z</time>
      </trkpt>
      <trkpt lat="48.92633" lon="1.6881">
        <ele>54</ele>
        <time>2019-06-09T08:43:13Z</time>
      </trkpt>
      <trkpt lat="48.92634" lon="1.68795">
        <ele>54</ele>
        <time>2019-06-09T08:43:26Z</time>
      </trkpt>
      <trkpt lat="48.92635" lon="1.68781">
        <ele>54</ele>
        <time>2019-06-09T08:43:33Z</time>
      </trkpt>
      <trkpt lat="48.92632" lon="1.68767">
        <ele>55</ele>
        <time>2019-06-09T08:43:40Z</time>
      </trkpt>
      <trkpt lat="48.92629" lon="1.68754">
        <ele>55</ele>
        <time>2019-06-09T08:43:47Z</time>
      </trkpt>
      <trkpt lat="48.92625" lon="1.68739">
        <ele>57</ele>
        <time>2019-06-09T08:43:55Z</time>
      </trkpt>
      <trkpt lat="48.92621" lon="1.68725">
        <ele>57</ele>
        <time>2019-06-09T08:44:02Z</time>
      </trkpt>
      <trkpt lat="48.92617" lon="1.68712">
        <ele>58</ele>
        <time>2019-06-09T08:44:10Z</time>
      </trkpt>
      <trkpt lat="48.92614" lon="1.68696">
        <ele>58</ele>
        <time>2019-06-09T08:44:17Z</time>
      </trkpt>
      <trkpt lat="48.92609" lon="1.68684">
        <ele>58</ele>
        <time>2019-06-09T08:44:24Z</time>
      </trkpt>
      <trkpt lat="48.92606" lon="1.68671">
        <ele>59</ele>
        <time>2019-06-09T08:44:31Z</time>
      </trkpt>
      <trkpt lat="48.92602" lon="1.68657">
        <ele>62</ele>
        <time>2019-06-09T08:44:39Z</time>
      </trkpt>
      <trkpt lat="48.92596" lon="1.68644">
        <ele>62</ele>
        <time>2019-06-09T08:44:47Z</time>
      </trkpt>
      <trkpt lat="48.9259" lon="1.68633">
        <ele>63</ele>
        <time>2019-06-09T08:44:54Z</time>
      </trkpt>
      <trkpt lat="48.92584" lon="1.68621">
        <ele>63</ele>
        <time>2019-06-09T08:45:02Z</time>
      </trkpt>
      <trkpt lat="48.92575" lon="1.68614">
        <ele>61</ele>
        <time>2019-06-09T08:45:09Z</time>
      </trkpt>
      <trkpt lat="48.92565" lon="1.6861">
        <ele>61</ele>
        <time>2019-06-09T08:45:16Z</time>
      </trkpt>
      <trkpt lat="48.92556" lon="1.68606">
        <ele>60</ele>
        <time>2019-06-09T08:45:23Z</time>
      </trkpt>
      <trkpt lat="48.92547" lon="1.68604">
        <ele>60</ele>
        <time>2019-06-09T08:45:32Z</time>
      </trkpt>
      <trkpt lat="48.92537" lon="1.68601">
        <ele>60</ele>
        <time>2019-06-09T08:45:39Z</time>
      </trkpt>
      <trkpt lat="48.92528" lon="1.68598">
        <ele>60</ele>
        <time>2019-06-09T08:45:46Z</time>
      </trkpt>
      <trkpt lat="48.92518" lon="1.68593">
        <ele>59</ele>
        <time>2019-06-09T08:45:51Z</time>
      </trkpt>
      <trkpt lat="48.92509" lon="1.6859">
        <ele>59</ele>
        <time>2019-06-09T08:45:57Z</time>
      </trkpt>
      <trkpt lat="48.92499" lon="1.68589">
        <ele>59</ele>
        <time>2019-06-09T08:46:04Z</time>
      </trkpt>
      <trkpt lat="48.9249" lon="1.68588">
        <ele>59</ele>
        <time>2019-06-09T08:46:15Z</time>
      </trkpt>
      <trkpt lat="48.9248" lon="1.68583">
        <ele>60</ele>
        <time>2019-06-09T08:46:21Z</time>
      </trkpt>
      <trkpt lat="48.9247" lon="1.6858">
        <ele>61</ele>
        <time>2019-06-09T08:46:27Z</time>
      </trkpt>
      <trkpt lat="48.92461" lon="1.68575">
        <ele>61</ele>
        <time>2019-06-09T08:46:34Z</time>
      </trkpt>
      <trkpt lat="48.92452" lon="1.68572">
        <ele>61</ele>
        <time>2019-06-09T08:46:42Z</time>
      </trkpt>
      <trkpt lat="48.92443" lon="1.68568">
        <ele>61</ele>
        <time>2019-06-09T08:46:49Z</time>
      </trkpt>
      <trkpt lat="48.92433" lon="1.68563">
        <ele>61</ele>
        <time>2019-06-09T08:46:56Z</time>
      </trkpt>
      <trkpt lat="48.92424" lon="1.6856">
        <ele>61</ele>
        <time>2019-06-09T08:47:02Z</time>
      </trkpt>
      <trkpt lat="48.92414" lon="1.68555">
        <ele>60</ele>
        <time>2019-06-09T08:47:08Z</time>
      </trkpt>
      <trkpt lat="48.92405" lon="1.6855">
        <ele>60</ele>
        <time>2019-06-09T08:47:15Z</time>
      </trkpt>
      <trkpt lat="48.92396" lon="1.68546">
        <ele>61</ele>
        <time>2019-06-09T08:47:22Z</time>
      </trkpt>
      <trkpt lat="48.92386" lon="1.6854">
        <ele>61</ele>
        <time>2019-06-09T08:47:31Z</time>
      </trkpt>
      <trkpt lat="48.92377" lon="1.68537">
        <ele>61</ele>
        <time>2019-06-09T08:47:37Z</time>
      </trkpt>
      <trkpt lat="48.92368" lon="1.68531">
        <ele>61</ele>
        <time>2019-06-09T08:47:44Z</time>
      </trkpt>
      <trkpt lat="48.92358" lon="1.68527">
        <ele>61</ele>
        <time>2019-06-09T08:47:55Z</time>
      </trkpt>
      <trkpt lat="48.92348" lon="1.6852">
        <ele>61</ele>
        <time>2019-06-09T08:48:01Z</time>
      </trkpt>
      <trkpt lat="48.92339" lon="1.68518">
        <ele>61</ele>
        <time>2019-06-09T08:48:07Z</time>
      </trkpt>
      <trkpt lat="48.92329" lon="1.68516">
        <ele>60</ele>
        <time>2019-06-09T08:48:15Z</time>
      </trkpt>
      <trkpt lat="48.92319" lon="1.68516">
        <ele>60</ele>
        <time>2019-06-09T08:48:24Z</time>
      </trkpt>
      <trkpt lat="48.92309" lon="1.68518">
        <ele>60</ele>
        <time>2019-06-09T08:48:32Z</time>
      </trkpt>
      <trkpt lat="48.92299" lon="1.68517">
        <ele>59</ele>
        <time>2019-06-09T08:48:37Z</time>
      </trkpt>
      <trkpt lat="48.9229" lon="1.68519">
        <ele>59</ele>
        <time>2019-06-09T08:48:44Z</time>
      </trkpt>
      <trkpt lat="48.9228" lon="1.6852">
        <ele>59</ele>
        <time>2019-06-09T08:48:49Z</time>
      </trkpt>
      <trkpt lat="48.92271" lon="1.68521">
        <ele>59</ele>
        <time>2019-06-09T08:48:56Z</time>
      </trkpt>
      <trkpt lat="48.92262" lon="1.68523">
        <ele>59</ele>
        <time>2019-06-09T08:49:03Z</time>
      </trkpt>
      <trkpt lat="48.92252" lon="1.68523">
        <ele>59</ele>
        <time>2019-06-09T08:49:09Z</time>
      </trkpt>
      <trkpt lat="48.92243" lon="1.68524">
        <ele>59</ele>
        <time>2019-06-09T08:49:17Z</time>
      </trkpt>
      <trkpt lat="48.92234" lon="1.68523">
        <ele>59</ele>
        <time>2019-06-09T08:49:23Z</time>
      </trkpt>
      <trkpt lat="48.92224" lon="1.68522">
        <ele>59</ele>
        <time>2019-06-09T08:49:30Z</time>
      </trkpt>
      <trkpt lat="48.92214" lon="1.68521">
        <ele>59</ele>
        <time>2019-06-09T08:49:39Z</time>
      </trkpt>
      <trkpt lat="48.92205" lon="1.6852">
        <ele>59</ele>
        <time>2019-06-09T08:49:45Z</time>
      </trkpt>
      <trkpt lat="48.92195" lon="1.68517">
        <ele>59</ele>
        <time>2019-06-09T08:49:51Z</time>
      </trkpt>
      <trkpt lat="48.92185" lon="1.68514">
        <ele>60</ele>
        <time>2019-06-09T08:49:59Z</time>
      </trkpt>
      <trkpt lat="48.92176" lon="1.68511">
        <ele>60</ele>
        <time>2019-06-09T08:50:06Z</time>
      </trkpt>
      <trkpt lat="48.92167" lon="1.68507">
        <ele>61</ele>
        <time>2019-06-09T08:50:13Z</time>
      </trkpt>
      <trkpt lat="48.92158" lon="1.68501">
        <ele>61</ele>
        <time>2019-06-09T08:50:20Z</time>
      </trkpt>
      <trkpt lat="48.92149" lon="1.68495">
        <ele>63</ele>
        <time>2019-06-09T08:50:27Z</time>
      </trkpt>
      <trkpt lat="48.92141" lon="1.68489">
        <ele>63</ele>
        <time>2019-06-09T08:50:33Z</time>
      </trkpt>
      <trkpt lat="48.92133" lon="1.68482">
        <ele>63</ele>
        <time>2019-06-09T08:50:40Z</time>
      </trkpt>
      <trkpt lat="48.92124" lon="1.68474">
        <ele>63</ele>
        <time>2019-06-09T08:50:48Z</time>
      </trkpt>
      <trkpt lat="48.92117" lon="1.68466">
        <ele>63</ele>
        <time>2019-06-09T08:50:55Z</time>
      </trkpt>
      <trkpt lat="48.92109" lon="1.68458">
        <ele>64</ele>
        <time>2019-06-09T08:51:01Z</time>
      </trkpt>
      <trkpt lat="48.921" lon="1.68452">
        <ele>64</ele>
        <time>2019-06-09T08:51:08Z</time>
      </trkpt>
      <trkpt lat="48.92093" lon="1.68444">
        <ele>64</ele>
        <time>2019-06-09T08:51:15Z</time>
      </trkpt>
      <trkpt lat="48.92084" lon="1.68436">
        <ele>64</ele>
        <time>2019-06-09T08:51:22Z</time>
      </trkpt>
      <trkpt lat="48.92076" lon="1.68429">
        <ele>63</ele>
        <time>2019-06-09T08:51:30Z</time>
      </trkpt>
      <trkpt lat="48.92068" lon="1.6842">
        <ele>63</ele>
        <time>2019-06-09T08:51:36Z</time>
      </trkpt>
      <trkpt lat="48.9206" lon="1.6841">
        <ele>65</ele>
        <time>2019-06-09T08:51:43Z</time>
      </trkpt>
      <trkpt lat="48.92052" lon="1.68404">
        <ele>65</ele>
        <time>2019-06-09T08:51:49Z</time>
      </trkpt>
      <trkpt lat="48.92046" lon="1.68393">
        <ele>65</ele>
        <time>2019-06-09T08:51:56Z</time>
      </trkpt>
      <trkpt lat="48.92038" lon="1.68384">
        <ele>65</ele>
        <time>2019-06-09T08:52:03Z</time>
      </trkpt>
      <trkpt lat="48.92032" lon="1.68373">
        <ele>66</ele>
        <time>2019-06-09T08:52:10Z</time>
      </trkpt>
      <trkpt lat="48.92024" lon="1.68362">
        <ele>66</ele>
        <time>2019-06-09T08:52:18Z</time>
      </trkpt>
      <trkpt lat="48.92017" lon="1.68351">
        <ele>66</ele>
        <time>2019-06-09T08:52:25Z</time>
      </trkpt>
      <trkpt lat="48.92011" lon="1.6834">
        <ele>66</ele>
        <time>2019-06-09T08:52:32Z</time>
      </trkpt>
      <trkpt lat="48.92005" lon="1.68328">
        <ele>68</ele>
        <time>2019-06-09T08:52:40Z</time>
      </trkpt>
      <trkpt lat="48.91999" lon="1.68317">
        <ele>65</ele>
        <time>2019-06-09T08:52:47Z</time>
      </trkpt>
      <trkpt lat="48.91993" lon="1.68306">
        <ele>65</ele>
        <time>2019-06-09T08:52:55Z</time>
      </trkpt>
      <trkpt lat="48.91987" lon="1.68293">
        <ele>65</ele>
        <time>2019-06-09T08:53:03Z</time>
      </trkpt>
      <trkpt lat="48.91982" lon="1.6828">
        <ele>65</ele>
        <time>2019-06-09T08:53:10Z</time>
      </trkpt>
      <trkpt lat="48.91977" lon="1.68269">
        <ele>66</ele>
        <time>2019-06-09T08:53:18Z</time>
      </trkpt>
      <trkpt lat="48.91972" lon="1.68256">
        <ele>66</ele>
        <time>2019-06-09T08:53:25Z</time>
      </trkpt>
      <trkpt lat="48.91965" lon="1.68243">
        <ele>67</ele>
        <time>2019-06-09T08:53:32Z</time>
      </trkpt>
      <trkpt lat="48.91959" lon="1.68231">
        <ele>67</ele>
        <time>2019-06-09T08:53:40Z</time>
      </trkpt>
      <trkpt lat="48.91953" lon="1.68219">
        <ele>66</ele>
        <time>2019-06-09T08:53:48Z</time>
      </trkpt>
      <trkpt lat="48.91948" lon="1.68207">
        <ele>66</ele>
        <time>2019-06-09T08:53:56Z</time>
      </trkpt>
      <trkpt lat="48.91942" lon="1.68196">
        <ele>66</ele>
        <time>2019-06-09T08:54:03Z</time>
      </trkpt>
      <trkpt lat="48.91938" lon="1.68183">
        <ele>66</ele>
        <time>2019-06-09T08:54:09Z</time>
      </trkpt>
      <trkpt lat="48.91933" lon="1.6817">
        <ele>65</ele>
        <time>2019-06-09T08:54:15Z</time>
      </trkpt>
      <trkpt lat="48.91928" lon="1.68159">
        <ele>66</ele>
        <time>2019-06-09T08:54:23Z</time>
      </trkpt>
      <trkpt lat="48.91923" lon="1.68147">
        <ele>66</ele>
        <time>2019-06-09T08:54:30Z</time>
      </trkpt>
      <trkpt lat="48.91919" lon="1.68134">
        <ele>67</ele>
        <time>2019-06-09T08:54:39Z</time>
      </trkpt>
      <trkpt lat="48.91919" lon="1.68118">
        <ele>67</ele>
        <time>2019-06-09T08:54:47Z</time>
      </trkpt>
      <trkpt lat="48.91921" lon="1.68103">
        <ele>66</ele>
        <time>2019-06-09T08:54:54Z</time>
      </trkpt>
      <trkpt lat="48.9192" lon="1.68088">
        <ele>64</ele>
        <time>2019-06-09T08:55:01Z</time>
      </trkpt>
      <trkpt lat="48.91919" lon="1.68074">
        <ele>65</ele>
        <time>2019-06-09T08:55:08Z</time>
      </trkpt>
      <trkpt lat="48.91915" lon="1.6806">
        <ele>62</ele>
        <time>2019-06-09T08:55:15Z</time>
      </trkpt>
      <trkpt lat="48.91909" lon="1.68048">
        <ele>61</ele>
        <time>2019-06-09T08:55:21Z</time>
      </trkpt>
      <trkpt lat="48.91902" lon="1.68036">
        <ele>61</ele>
        <time>2019-06-09T08:55:29Z</time>
      </trkpt>
      <trkpt lat="48.91897" lon="1.68025">
        <ele>61</ele>
        <time>2019-06-09T08:55:35Z</time>
      </trkpt>
      <trkpt lat="48.91891" lon="1.68013">
        <ele>61</ele>
        <time>2019-06-09T08:55:42Z</time>
      </trkpt>
      <trkpt lat="48.91885" lon="1.68002">
        <ele>61</ele>
        <time>2019-06-09T08:55:48Z</time>
      </trkpt>
      <trkpt lat="48.91881" lon="1.67989">
        <ele>62</ele>
        <time>2019-06-09T08:55:55Z</time>
      </trkpt>
      <trkpt lat="48.91876" lon="1.67977">
        <ele>62</ele>
        <time>2019-06-09T08:56:01Z</time>
      </trkpt>
      <trkpt lat="48.91871" lon="1.67965">
        <ele>62</ele>
        <time>2019-06-09T08:56:08Z</time>
      </trkpt>
      <trkpt lat="48.91865" lon="1.67954">
        <ele>62</ele>
        <time>2019-06-09T08:56:15Z</time>
      </trkpt>
      <trkpt lat="48.9186" lon="1.67941">
        <ele>62</ele>
        <time>2019-06-09T08:56:22Z</time>
      </trkpt>
      <trkpt lat="48.91855" lon="1.67929">
        <ele>62</ele>
        <time>2019-06-09T08:56:28Z</time>
      </trkpt>
      <trkpt lat="48.9185" lon="1.67915">
        <ele>62</ele>
        <time>2019-06-09T08:56:34Z</time>
      </trkpt>
      <trkpt lat="48.91846" lon="1.67902">
        <ele>63</ele>
        <time>2019-06-09T08:56:42Z</time>
      </trkpt>
      <trkpt lat="48.91841" lon="1.67889">
        <ele>63</ele>
        <time>2019-06-09T08:56:49Z</time>
      </trkpt>
      <trkpt lat="48.91836" lon="1.67877">
        <ele>63</ele>
        <time>2019-06-09T08:56:56Z</time>
      </trkpt>
      <trkpt lat="48.91832" lon="1.67864">
        <ele>59</ele>
        <time>2019-06-09T08:57:03Z</time>
      </trkpt>
      <trkpt lat="48.91826" lon="1.67854">
        <ele>60</ele>
        <time>2019-06-09T08:57:09Z</time>
      </trkpt>
      <trkpt lat="48.91821" lon="1.67841">
        <ele>60</ele>
        <time>2019-06-09T08:57:15Z</time>
      </trkpt>
      <trkpt lat="48.91814" lon="1.67832">
        <ele>61</ele>
        <time>2019-06-09T08:57:28Z</time>
      </trkpt>
      <trkpt lat="48.91806" lon="1.67826">
        <ele>61</ele>
        <time>2019-06-09T08:57:38Z</time>
      </trkpt>
      <trkpt lat="48.91798" lon="1.67817">
        <ele>61</ele>
        <time>2019-06-09T08:57:44Z</time>
      </trkpt>
      <trkpt lat="48.91788" lon="1.67811">
        <ele>61</ele>
        <time>2019-06-09T08:57:52Z</time>
      </trkpt>
      <trkpt lat="48.91779" lon="1.67815">
        <ele>60</ele>
        <time>2019-06-09T08:57:58Z</time>
      </trkpt>
      <trkpt lat="48.91771" lon="1.67823">
        <ele>60</ele>
        <time>2019-06-09T08:58:04Z</time>
      </trkpt>
      <trkpt lat="48.91762" lon="1.67828">
        <ele>59</ele>
        <time>2019-06-09T08:58:11Z</time>
      </trkpt>
      <trkpt lat="48.91754" lon="1.67835">
        <ele>58</ele>
        <time>2019-06-09T08:58:19Z</time>
      </trkpt>
      <trkpt lat="48.91744" lon="1.6784">
        <ele>57</ele>
        <time>2019-06-09T08:58:25Z</time>
      </trkpt>
      <trkpt lat="48.91736" lon="1.67848">
        <ele>57</ele>
        <time>2019-06-09T08:58:33Z</time>
      </trkpt>
      <trkpt lat="48.91728" lon="1.67855">
        <ele>56</ele>
        <time>2019-06-09T08:58:39Z</time>
      </trkpt>
      <trkpt lat="48.91718" lon="1.67853">
        <ele>56</ele>
        <time>2019-06-09T08:58:49Z</time>
      </trkpt>
      <trkpt lat="48.91709" lon="1.67845">
        <ele>56</ele>
        <time>2019-06-09T08:58:56Z</time>
      </trkpt>
      <trkpt lat="48.91702" lon="1.67836">
        <ele>56</ele>
        <time>2019-06-09T08:59:03Z</time>
      </trkpt>
      <trkpt lat="48.91694" lon="1.67827">
        <ele>57</ele>
        <time>2019-06-09T08:59:10Z</time>
      </trkpt>
      <trkpt lat="48.91685" lon="1.67821">
        <ele>56</ele>
        <time>2019-06-09T08:59:18Z</time>
      </trkpt>
      <trkpt lat="48.91677" lon="1.67814">
        <ele>56</ele>
        <time>2019-06-09T08:59:24Z</time>
      </trkpt>
      <trkpt lat="48.91668" lon="1.67808">
        <ele>56</ele>
        <time>2019-06-09T08:59:42Z</time>
      </trkpt>
      <trkpt lat="48.91658" lon="1.67804">
        <ele>56</ele>
        <time>2019-06-09T08:59:47Z</time>
      </trkpt>
      <trkpt lat="48.91648" lon="1.67799">
        <ele>56</ele>
        <time>2019-06-09T08:59:56Z</time>
      </trkpt>
      <trkpt lat="48.9164" lon="1.6779">
        <ele>56</ele>
        <time>2019-06-09T09:00:03Z</time>
      </trkpt>
      <trkpt lat="48.91632" lon="1.6778">
        <ele>56</ele>
        <time>2019-06-09T09:00:12Z</time>
      </trkpt>
      <trkpt lat="48.91625" lon="1.67769">
        <ele>56</ele>
        <time>2019-06-09T09:00:20Z</time>
      </trkpt>
      <trkpt lat="48.91619" lon="1.67756">
        <ele>56</ele>
        <time>2019-06-09T09:00:26Z</time>
      </trkpt>
      <trkpt lat="48.91615" lon="1.67743">
        <ele>56</ele>
        <time>2019-06-09T09:00:34Z</time>
      </trkpt>
      <trkpt lat="48.91609" lon="1.67731">
        <ele>56</ele>
        <time>2019-06-09T09:00:42Z</time>
      </trkpt>
      <trkpt lat="48.91603" lon="1.67721">
        <ele>56</ele>
        <time>2019-06-09T09:00:49Z</time>
      </trkpt>
      <trkpt lat="48.91598" lon="1.67709">
        <ele>57</ele>
        <time>2019-06-09T09:00:54Z</time>
      </trkpt>
      <trkpt lat="48.91593" lon="1.67696">
        <ele>57</ele>
        <time>2019-06-09T09:01:02Z</time>
      </trkpt>
      <trkpt lat="48.91589" lon="1.67682">
        <ele>56</ele>
        <time>2019-06-09T09:01:10Z</time>
      </trkpt>
      <trkpt lat="48.91585" lon="1.6767">
        <ele>56</ele>
        <time>2019-06-09T09:01:19Z</time>
      </trkpt>
      <trkpt lat="48.91578" lon="1.67659">
        <ele>56</ele>
        <time>2019-06-09T09:01:28Z</time>
      </trkpt>
      <trkpt lat="48.9157" lon="1.6765">
        <ele>55</ele>
        <time>2019-06-09T09:01:35Z</time>
      </trkpt>
      <trkpt lat="48.91562" lon="1.67641">
        <ele>55</ele>
        <time>2019-06-09T09:01:42Z</time>
      </trkpt>
      <trkpt lat="48.91557" lon="1.67629">
        <ele>55</ele>
        <time>2019-06-09T09:01:48Z</time>
      </trkpt>
      <trkpt lat="48.91552" lon="1.67616">
        <ele>55</ele>
        <time>2019-06-09T09:01:56Z</time>
      </trkpt>
      <trkpt lat="48.91547" lon="1.67602">
        <ele>55</ele>
        <time>2019-06-09T09:02:02Z</time>
      </trkpt>
      <trkpt lat="48.91543" lon="1.6759">
        <ele>55</ele>
        <time>2019-06-09T09:02:10Z</time>
      </trkpt>
      <trkpt lat="48.91541" lon="1.67576">
        <ele>54</ele>
        <time>2019-06-09T09:02:17Z</time>
      </trkpt>
      <trkpt lat="48.9154" lon="1.67562">
        <ele>54</ele>
        <time>2019-06-09T09:02:22Z</time>
      </trkpt>
      <trkpt lat="48.91537" lon="1.67549">
        <ele>54</ele>
        <time>2019-06-09T09:02:27Z</time>
      </trkpt>
      <trkpt lat="48.91533" lon="1.67536">
        <ele>54</ele>
        <time>2019-06-09T09:02:34Z</time>
      </trkpt>
      <trkpt lat="48.9153" lon="1.67521">
        <ele>53</ele>
        <time>2019-06-09T09:02:42Z</time>
      </trkpt>
      <trkpt lat="48.91528" lon="1.67508">
        <ele>53</ele>
        <time>2019-06-09T09:02:48Z</time>
      </trkpt>
      <trkpt lat="48.91525" lon="1.67495">
        <ele>54</ele>
        <time>2019-06-09T09:02:56Z</time>
      </trkpt>
      <trkpt lat="48.91522" lon="1.6748">
        <ele>54</ele>
        <time>2019-06-09T09:03:04Z</time>
      </trkpt>
      <trkpt lat="48.9152" lon="1.67466">
        <ele>55</ele>
        <time>2019-06-09T09:03:11Z</time>
      </trkpt>
      <trkpt lat="48.91514" lon="1.67453">
        <ele>55</ele>
        <time>2019-06-09T09:03:19Z</time>
      </trkpt>
      <trkpt lat="48.91509" lon="1.6744">
        <ele>55</ele>
        <time>2019-06-09T09:03:26Z</time>
      </trkpt>
      <trkpt lat="48.91502" lon="1.6743">
        <ele>54</ele>
        <time>2019-06-09T09:03:32Z</time>
      </trkpt>
      <trkpt lat="48.91494" lon="1.67419">
        <ele>54</ele>
        <time>2019-06-09T09:03:38Z</time>
      </trkpt>
      <trkpt lat="48.91487" lon="1.6741">
        <ele>54</ele>
        <time>2019-06-09T09:03:45Z</time>
      </trkpt>
      <trkpt lat="48.91478" lon="1.67403">
        <ele>54</ele>
        <time>2019-06-09T09:03:51Z</time>
      </trkpt>
      <trkpt lat="48.9147" lon="1.67396">
        <ele>55</ele>
        <time>2019-06-09T09:03:57Z</time>
      </trkpt>
      <trkpt lat="48.91461" lon="1.67391">
        <ele>55</ele>
        <time>2019-06-09T09:04:04Z</time>
      </trkpt>
      <trkpt lat="48.91453" lon="1.67382">
        <ele>55</ele>
        <time>2019-06-09T09:04:13Z</time>
      </trkpt>
      <trkpt lat="48.91444" lon="1.67376">
        <ele>55</ele>
        <time>2019-06-09T09:04:19Z</time>
      </trkpt>
      <trkpt lat="48.91435" lon="1.67372">
        <ele>55</ele>
        <time>2019-06-09T09:04:25Z</time>
      </trkpt>
      <trkpt lat="48.91426" lon="1.67366">
        <ele>55</ele>
        <time>2019-06-09T09:04:32Z</time>
      </trkpt>
      <trkpt lat="48.91418" lon="1.67362">
        <ele>55</ele>
        <time>2019-06-09T09:04:39Z</time>
      </trkpt>
      <trkpt lat="48.91408" lon="1.67355">
        <ele>54</ele>
        <time>2019-06-09T09:04:47Z</time>
      </trkpt>
      <trkpt lat="48.91399" lon="1.67352">
        <ele>54</ele>
        <time>2019-06-09T09:04:55Z</time>
      </trkpt>
      <trkpt lat="48.91389" lon="1.67351">
        <ele>54</ele>
        <time>2019-06-09T09:05:02Z</time>
      </trkpt>
      <trkpt lat="48.9138" lon="1.67346">
        <ele>54</ele>
        <time>2019-06-09T09:05:09Z</time>
      </trkpt>
      <trkpt lat="48.9137" lon="1.67341">
        <ele>54</ele>
        <time>2019-06-09T09:05:17Z</time>
      </trkpt>
      <trkpt lat="48.91361" lon="1.67336">
        <ele>54</ele>
        <time>2019-06-09T09:05:23Z</time>
      </trkpt>
      <trkpt lat="48.91351" lon="1.6733">
        <ele>54</ele>
        <time>2019-06-09T09:05:31Z</time>
      </trkpt>
      <trkpt lat="48.91343" lon="1.67325">
        <ele>54</ele>
        <time>2019-06-09T09:05:37Z</time>
      </trkpt>
      <trkpt lat="48.91333" lon="1.6732">
        <ele>54</ele>
        <time>2019-06-09T09:05:44Z</time>
      </trkpt>
      <trkpt lat="48.91325" lon="1.67313">
        <ele>54</ele>
        <time>2019-06-09T09:05:53Z</time>
      </trkpt>
      <trkpt lat="48.91316" lon="1.67307">
        <ele>54</ele>
        <time>2019-06-09T09:06:00Z</time>
      </trkpt>
      <trkpt lat="48.91307" lon="1.673">
        <ele>54</ele>
        <time>2019-06-09T09:06:06Z</time>
      </trkpt>
      <trkpt lat="48.91298" lon="1.67292">
        <ele>54</ele>
        <time>2019-06-09T09:06:13Z</time>
      </trkpt>
      <trkpt lat="48.9129" lon="1.67285">
        <ele>54</ele>
        <time>2019-06-09T09:06:19Z</time>
      </trkpt>
      <trkpt lat="48.91281" lon="1.67277">
        <ele>54</ele>
        <time>2019-06-09T09:06:27Z</time>
      </trkpt>
      <trkpt lat="48.91273" lon="1.67269">
        <ele>55</ele>
        <time>2019-06-09T09:06:35Z</time>
      </trkpt>
      <trkpt lat="48.91264" lon="1.67264">
        <ele>55</ele>
        <time>2019-06-09T09:06:40Z</time>
      </trkpt>
      <trkpt lat="48.91255" lon="1.67261">
        <ele>55</ele>
        <time>2019-06-09T09:06:45Z</time>
      </trkpt>
      <trkpt lat="48.91246" lon="1.67255">
        <ele>55</ele>
        <time>2019-06-09T09:06:53Z</time>
      </trkpt>
      <trkpt lat="48.91237" lon="1.67247">
        <ele>55</ele>
        <time>2019-06-09T09:07:01Z</time>
      </trkpt>
      <trkpt lat="48.91227" lon="1.67242">
        <ele>55</ele>
        <time>2019-06-09T09:07:08Z</time>
      </trkpt>
      <trkpt lat="48.91219" lon="1.67236">
        <ele>55</ele>
        <time>2019-06-09T09:07:16Z</time>
      </trkpt>
      <trkpt lat="48.91209" lon="1.67231">
        <ele>55</ele>
        <time>2019-06-09T09:07:24Z</time>
      </trkpt>
      <trkpt lat="48.912" lon="1.67227">
        <ele>55</ele>
        <time>2019-06-09T09:07:31Z</time>
      </trkpt>
      <trkpt lat="48.91191" lon="1.67225">
        <ele>55</ele>
        <time>2019-06-09T09:07:38Z</time>
      </trkpt>
      <trkpt lat="48.91182" lon="1.6722">
        <ele>55</ele>
        <time>2019-06-09T09:07:45Z</time>
      </trkpt>
      <trkpt lat="48.91172" lon="1.67214">
        <ele>55</ele>
        <time>2019-06-09T09:07:52Z</time>
      </trkpt>
      <trkpt lat="48.91164" lon="1.67206">
        <ele>55</ele>
        <time>2019-06-09T09:07:58Z</time>
      </trkpt>
      <trkpt lat="48.91155" lon="1.67197">
        <ele>55</ele>
        <time>2019-06-09T09:08:06Z</time>
      </trkpt>
      <trkpt lat="48.91146" lon="1.67191">
        <ele>55</ele>
        <time>2019-06-09T09:08:13Z</time>
      </trkpt>
      <trkpt lat="48.91138" lon="1.67182">
        <ele>55</ele>
        <time>2019-06-09T09:08:19Z</time>
      </trkpt>
      <trkpt lat="48.9113" lon="1.67172">
        <ele>56</ele>
        <time>2019-06-09T09:08:26Z</time>
      </trkpt>
      <trkpt lat="48.91122" lon="1.67164">
        <ele>57</ele>
        <time>2019-06-09T09:08:34Z</time>
      </trkpt>
      <trkpt lat="48.91114" lon="1.67155">
        <ele>57</ele>
        <time>2019-06-09T09:08:42Z</time>
      </trkpt>
      <trkpt lat="48.91107" lon="1.67147">
        <ele>58</ele>
        <time>2019-06-09T09:08:49Z</time>
      </trkpt>
      <trkpt lat="48.91098" lon="1.67145">
        <ele>57</ele>
        <time>2019-06-09T09:08:56Z</time>
      </trkpt>
      <trkpt lat="48.91088" lon="1.67141">
        <ele>57</ele>
        <time>2019-06-09T09:09:03Z</time>
      </trkpt>
      <trkpt lat="48.91079" lon="1.67137">
        <ele>58</ele>
        <time>2019-06-09T09:09:09Z</time>
      </trkpt>
      <trkpt lat="48.9107" lon="1.67137">
        <ele>58</ele>
        <time>2019-06-09T09:09:16Z</time>
      </trkpt>
      <trkpt lat="48.91061" lon="1.67133">
        <ele>58</ele>
        <time>2019-06-09T09:09:24Z</time>
      </trkpt>
      <trkpt lat="48.91051" lon="1.67131">
        <ele>58</ele>
        <time>2019-06-09T09:09:32Z</time>
      </trkpt>
      <trkpt lat="48.91041" lon="1.6713">
        <ele>58</ele>
        <time>2019-06-09T09:09:38Z</time>
      </trkpt>
      <trkpt lat="48.91032" lon="1.67131">
        <ele>59</ele>
        <time>2019-06-09T09:09:45Z</time>
      </trkpt>
      <trkpt lat="48.91023" lon="1.67135">
        <ele>59</ele>
        <time>2019-06-09T09:09:49Z</time>
      </trkpt>
      <trkpt lat="48.91013" lon="1.67135">
        <ele>59</ele>
        <time>2019-06-09T09:09:55Z</time>
      </trkpt>
      <trkpt lat="48.91004" lon="1.67136">
        <ele>59</ele>
        <time>2019-06-09T09:10:02Z</time>
      </trkpt>
      <trkpt lat="48.90994" lon="1.67138">
        <ele>59</ele>
        <time>2019-06-09T09:10:08Z</time>
      </trkpt>
      <trkpt lat="48.90984" lon="1.67139">
        <ele>59</ele>
        <time>2019-06-09T09:10:17Z</time>
      </trkpt>
      <trkpt lat="48.90974" lon="1.67139">
        <ele>59</ele>
        <time>2019-06-09T09:10:25Z</time>
      </trkpt>
      <trkpt lat="48.90964" lon="1.6714">
        <ele>59</ele>
        <time>2019-06-09T09:10:31Z</time>
      </trkpt>
      <trkpt lat="48.90955" lon="1.67141">
        <ele>59</ele>
        <time>2019-06-09T09:10:39Z</time>
      </trkpt>
      <trkpt lat="48.90945" lon="1.67143">
        <ele>59</ele>
        <time>2019-06-09T09:10:47Z</time>
      </trkpt>
      <trkpt lat="48.90935" lon="1.67143">
        <ele>59</ele>
        <time>2019-06-09T09:10:54Z</time>
      </trkpt>
      <trkpt lat="48.90926" lon="1.67143">
        <ele>59</ele>
        <time>2019-06-09T09:11:01Z</time>
      </trkpt>
      <trkpt lat="48.90915" lon="1.67145">
        <ele>58</ele>
        <time>2019-06-09T09:11:06Z</time>
      </trkpt>
      <trkpt lat="48.90906" lon="1.67147">
        <ele>58</ele>
        <time>2019-06-09T09:11:12Z</time>
      </trkpt>
      <trkpt lat="48.90897" lon="1.67149">
        <ele>58</ele>
        <time>2019-06-09T09:11:18Z</time>
      </trkpt>
      <trkpt lat="48.90887" lon="1.67148">
        <ele>58</ele>
        <time>2019-06-09T09:11:24Z</time>
      </trkpt>
      <trkpt lat="48.90877" lon="1.67148">
        <ele>58</ele>
        <time>2019-06-09T09:11:34Z</time>
      </trkpt>
      <trkpt lat="48.90867" lon="1.67148">
        <ele>58</ele>
        <time>2019-06-09T09:11:42Z</time>
      </trkpt>
      <trkpt lat="48.90857" lon="1.67147">
        <ele>57</ele>
        <time>2019-06-09T09:11:50Z</time>
      </trkpt>
      <trkpt lat="48.90847" lon="1.67146">
        <ele>57</ele>
        <time>2019-06-09T09:11:56Z</time>
      </trkpt>
      <trkpt lat="48.90837" lon="1.67146">
        <ele>57</ele>
        <time>2019-06-09T09:12:04Z</time>
      </trkpt>
      <trkpt lat="48.90827" lon="1.67145">
        <ele>56</ele>
        <time>2019-06-09T09:12:10Z</time>
      </trkpt>
      <trkpt lat="48.90817" lon="1.67146">
        <ele>56</ele>
        <time>2019-06-09T09:12:19Z</time>
      </trkpt>
      <trkpt lat="48.90807" lon="1.67147">
        <ele>56</ele>
        <time>2019-06-09T09:12:27Z</time>
      </trkpt>
      <trkpt lat="48.90797" lon="1.67147">
        <ele>56</ele>
        <time>2019-06-09T09:12:33Z</time>
      </trkpt>
      <trkpt lat="48.90788" lon="1.67149">
        <ele>55</ele>
        <time>2019-06-09T09:12:40Z</time>
      </trkpt>
      <trkpt lat="48.90778" lon="1.67147">
        <ele>55</ele>
        <time>2019-06-09T09:12:46Z</time>
      </trkpt>
      <trkpt lat="48.9077" lon="1.6715">
        <ele>55</ele>
        <time>2019-06-09T09:12:55Z</time>
      </trkpt>
      <trkpt lat="48.90758" lon="1.67148">
        <ele>55</ele>
        <time>2019-06-09T09:13:01Z</time>
      </trkpt>
      <trkpt lat="48.90749" lon="1.67144">
        <ele>55</ele>
        <time>2019-06-09T09:13:08Z</time>
      </trkpt>
      <trkpt lat="48.9074" lon="1.67136">
        <ele>56</ele>
        <time>2019-06-09T09:13:19Z</time>
      </trkpt>
      <trkpt lat="48.90731" lon="1.67131">
        <ele>56</ele>
        <time>2019-06-09T09:13:27Z</time>
      </trkpt>
      <trkpt lat="48.90722" lon="1.67124">
        <ele>56</ele>
        <time>2019-06-09T09:13:35Z</time>
      </trkpt>
      <trkpt lat="48.90712" lon="1.6712">
        <ele>56</ele>
        <time>2019-06-09T09:13:43Z</time>
      </trkpt>
      <trkpt lat="48.90703" lon="1.67117">
        <ele>57</ele>
        <time>2019-06-09T09:13:50Z</time>
      </trkpt>
      <trkpt lat="48.90695" lon="1.67112">
        <ele>57</ele>
        <time>2019-06-09T09:13:58Z</time>
      </trkpt>
      <trkpt lat="48.90686" lon="1.67104">
        <ele>58</ele>
        <time>2019-06-09T09:14:05Z</time>
      </trkpt>
      <trkpt lat="48.90678" lon="1.67094">
        <ele>58</ele>
        <time>2019-06-09T09:14:12Z</time>
      </trkpt>
      <trkpt lat="48.9067" lon="1.67088">
        <ele>59</ele>
        <time>2019-06-09T09:14:19Z</time>
      </trkpt>
      <trkpt lat="48.90661" lon="1.67084">
        <ele>60</ele>
        <time>2019-06-09T09:14:27Z</time>
      </trkpt>
      <trkpt lat="48.90653" lon="1.67076">
        <ele>60</ele>
        <time>2019-06-09T09:14:33Z</time>
      </trkpt>
      <trkpt lat="48.90644" lon="1.67064">
        <ele>60</ele>
        <time>2019-06-09T09:14:40Z</time>
      </trkpt>
      <trkpt lat="48.90637" lon="1.67055">
        <ele>60</ele>
        <time>2019-06-09T09:14:46Z</time>
      </trkpt>
      <trkpt lat="48.90628" lon="1.67043">
        <ele>60</ele>
        <time>2019-06-09T09:14:54Z</time>
      </trkpt>
      <trkpt lat="48.9062" lon="1.67034">
        <ele>60</ele>
        <time>2019-06-09T09:15:01Z</time>
      </trkpt>
      <trkpt lat="48.90613" lon="1.67025">
        <ele>60</ele>
        <time>2019-06-09T09:15:08Z</time>
      </trkpt>
      <trkpt lat="48.90604" lon="1.67019">
        <ele>60</ele>
        <time>2019-06-09T09:15:15Z</time>
      </trkpt>
      <trkpt lat="48.90595" lon="1.67017">
        <ele>60</ele>
        <time>2019-06-09T09:15:21Z</time>
      </trkpt>
      <trkpt lat="48.90584" lon="1.67015">
        <ele>60</ele>
        <time>2019-06-09T09:15:30Z</time>
      </trkpt>
      <trkpt lat="48.90574" lon="1.67012">
        <ele>61</ele>
        <time>2019-06-09T09:15:38Z</time>
      </trkpt>
      <trkpt lat="48.90572" lon="1.66998">
        <ele>60</ele>
        <time>2019-06-09T09:15:47Z</time>
      </trkpt>
      <trkpt lat="48.90564" lon="1.66991">
        <ele>60</ele>
        <time>2019-06-09T09:15:55Z</time>
      </trkpt>
      <trkpt lat="48.90555" lon="1.66991">
        <ele>60</ele>
        <time>2019-06-09T09:19:51Z</time>
      </trkpt>
      <trkpt lat="48.90548" lon="1.6698">
        <ele>60</ele>
        <time>2019-06-09T09:20:08Z</time>
      </trkpt>
      <trkpt lat="48.90539" lon="1.66973">
        <ele>60</ele>
        <time>2019-06-09T09:20:17Z</time>
      </trkpt>
      <trkpt lat="48.90529" lon="1.66974">
        <ele>60</ele>
        <time>2019-06-09T09:20:23Z</time>
      </trkpt>
      <trkpt lat="48.9052" lon="1.66974">
        <ele>60</ele>
        <time>2019-06-09T09:20:30Z</time>
      </trkpt>
      <trkpt lat="48.9051" lon="1.66971">
        <ele>60</ele>
        <time>2019-06-09T09:20:36Z</time>
      </trkpt>
      <trkpt lat="48.90501" lon="1.66968">
        <ele>59</ele>
        <time>2019-06-09T09:20:45Z</time>
      </trkpt>
      <trkpt lat="48.90491" lon="1.66963">
        <ele>59</ele>
        <time>2019-06-09T09:20:52Z</time>
      </trkpt>
      <trkpt lat="48.90481" lon="1.66961">
        <ele>59</ele>
        <time>2019-06-09T09:20:59Z</time>
      </trkpt>
      <trkpt lat="48.90471" lon="1.6696">
        <ele>59</ele>
        <time>2019-06-09T09:21:07Z</time>
      </trkpt>
      <trkpt lat="48.90462" lon="1.66961">
        <ele>59</ele>
        <time>2019-06-09T09:21:12Z</time>
      </trkpt>
      <trkpt lat="48.90453" lon="1.66962">
        <ele>58</ele>
        <time>2019-06-09T09:21:20Z</time>
      </trkpt>
      <trkpt lat="48.90443" lon="1.66963">
        <ele>58</ele>
        <time>2019-06-09T09:21:26Z</time>
      </trkpt>
      <trkpt lat="48.90433" lon="1.66964">
        <ele>58</ele>
        <time>2019-06-09T09:21:34Z</time>
      </trkpt>
      <trkpt lat="48.90423" lon="1.66962">
        <ele>58</ele>
        <time>2019-06-09T09:21:44Z</time>
      </trkpt>
      <trkpt lat="48.90413" lon="1.6696">
        <ele>59</ele>
        <time>2019-06-09T09:21:50Z</time>
      </trkpt>
      <trkpt lat="48.90403" lon="1.66958">
        <ele>60</ele>
        <time>2019-06-09T09:21:56Z</time>
      </trkpt>
      <trkpt lat="48.90394" lon="1.66956">
        <ele>60</ele>
        <time>2019-06-09T09:22:04Z</time>
      </trkpt>
      <trkpt lat="48.90384" lon="1.66955">
        <ele>60</ele>
        <time>2019-06-09T09:22:10Z</time>
      </trkpt>
      <trkpt lat="48.90374" lon="1.66954">
        <ele>60</ele>
        <time>2019-06-09T09:22:17Z</time>
      </trkpt>
      <trkpt lat="48.90364" lon="1.66957">
        <ele>61</ele>
        <time>2019-06-09T09:22:25Z</time>
      </trkpt>
      <trkpt lat="48.90353" lon="1.66962">
        <ele>61</ele>
        <time>2019-06-09T09:22:32Z</time>
      </trkpt>
      <trkpt lat="48.90345" lon="1.66966">
        <ele>61</ele>
        <time>2019-06-09T09:22:36Z</time>
      </trkpt>
      <trkpt lat="48.90335" lon="1.66968">
        <ele>61</ele>
        <time>2019-06-09T09:22:42Z</time>
      </trkpt>
      <trkpt lat="48.90326" lon="1.66968">
        <ele>62</ele>
        <time>2019-06-09T09:22:54Z</time>
      </trkpt>
      <trkpt lat="48.90319" lon="1.66977">
        <ele>62</ele>
        <time>2019-06-09T09:23:02Z</time>
      </trkpt>
      <trkpt lat="48.90309" lon="1.66982">
        <ele>62</ele>
        <time>2019-06-09T09:23:08Z</time>
      </trkpt>
      <trkpt lat="48.90301" lon="1.66988">
        <ele>61</ele>
        <time>2019-06-09T09:23:15Z</time>
      </trkpt>
      <trkpt lat="48.90291" lon="1.66992">
        <ele>61</ele>
        <time>2019-06-09T09:23:19Z</time>
      </trkpt>
      <trkpt lat="48.90281" lon="1.66995">
        <ele>61</ele>
        <time>2019-06-09T09:23:28Z</time>
      </trkpt>
      <trkpt lat="48.9027" lon="1.66998">
        <ele>61</ele>
        <time>2019-06-09T09:23:33Z</time>
      </trkpt>
      <trkpt lat="48.90261" lon="1.67001">
        <ele>60</ele>
        <time>2019-06-09T09:23:40Z</time>
      </trkpt>
      <trkpt lat="48.90252" lon="1.67005">
        <ele>60</ele>
        <time>2019-06-09T09:23:47Z</time>
      </trkpt>
      <trkpt lat="48.90243" lon="1.67005">
        <ele>60</ele>
        <time>2019-06-09T09:23:56Z</time>
      </trkpt>
      <trkpt lat="48.90233" lon="1.67009">
        <ele>60</ele>
        <time>2019-06-09T09:24:04Z</time>
      </trkpt>
      <trkpt lat="48.90224" lon="1.67007">
        <ele>60</ele>
        <time>2019-06-09T09:24:13Z</time>
      </trkpt>
      <trkpt lat="48.90215" lon="1.67009">
        <ele>60</ele>
        <time>2019-06-09T09:24:21Z</time>
      </trkpt>
      <trkpt lat="48.90205" lon="1.67008">
        <ele>60</ele>
        <time>2019-06-09T09:24:28Z</time>
      </trkpt>
      <trkpt lat="48.90195" lon="1.67011">
        <ele>60</ele>
        <time>2019-06-09T09:24:35Z</time>
      </trkpt>
      <trkpt lat="48.90185" lon="1.67007">
        <ele>61</ele>
        <time>2019-06-09T09:24:41Z</time>
      </trkpt>
      <trkpt lat="48.90175" lon="1.67009">
        <ele>61</ele>
        <time>2019-06-09T09:24:48Z</time>
      </trkpt>
      <trkpt lat="48.90166" lon="1.67009">
        <ele>62</ele>
        <time>2019-06-09T09:24:56Z</time>
      </trkpt>
      <trkpt lat="48.90157" lon="1.67009">
        <ele>62</ele>
        <time>2019-06-09T09:25:04Z</time>
      </trkpt>
      <trkpt lat="48.90147" lon="1.67004">
        <ele>62</ele>
        <time>2019-06-09T09:25:09Z</time>
      </trkpt>
      <trkpt lat="48.90138" lon="1.67001">
        <ele>62</ele>
        <time>2019-06-09T09:25:14Z</time>
      </trkpt>
      <trkpt lat="48.90128" lon="1.66998">
        <ele>63</ele>
        <time>2019-06-09T09:25:20Z</time>
      </trkpt>
      <trkpt lat="48.90119" lon="1.66998">
        <ele>63</ele>
        <time>2019-06-09T09:25:27Z</time>
      </trkpt>
      <trkpt lat="48.90108" lon="1.66998">
        <ele>63</ele>
        <time>2019-06-09T09:25:34Z</time>
      </trkpt>
      <trkpt lat="48.90099" lon="1.66991">
        <ele>64</ele>
        <time>2019-06-09T09:25:41Z</time>
      </trkpt>
      <trkpt lat="48.9009" lon="1.66986">
        <ele>64</ele>
        <time>2019-06-09T09:25:49Z</time>
      </trkpt>
      <trkpt lat="48.9008" lon="1.66989">
        <ele>63</ele>
        <time>2019-06-09T09:25:55Z</time>
      </trkpt>
      <trkpt lat="48.9007" lon="1.6699">
        <ele>63</ele>
        <time>2019-06-09T09:26:02Z</time>
      </trkpt>
      <trkpt lat="48.90064" lon="1.6698">
        <ele>62</ele>
        <time>2019-06-09T09:26:46Z</time>
      </trkpt>
      <trkpt lat="48.90064" lon="1.66964">
        <ele>62</ele>
        <time>2019-06-09T09:27:09Z</time>
      </trkpt>
      <trkpt lat="48.90064" lon="1.66951">
        <ele>62</ele>
        <time>2019-06-09T09:27:18Z</time>
      </trkpt>
      <trkpt lat="48.90066" lon="1.66936">
        <ele>63</ele>
        <time>2019-06-09T09:27:26Z</time>
      </trkpt>
      <trkpt lat="48.90067" lon="1.66923">
        <ele>63</ele>
        <time>2019-06-09T09:27:33Z</time>
      </trkpt>
      <trkpt lat="48.90068" lon="1.66909">
        <ele>65</ele>
        <time>2019-06-09T09:27:42Z</time>
      </trkpt>
      <trkpt lat="48.90069" lon="1.66894">
        <ele>66</ele>
        <time>2019-06-09T09:27:49Z</time>
      </trkpt>
      <trkpt lat="48.90071" lon="1.66879">
        <ele>67</ele>
        <time>2019-06-09T09:27:58Z</time>
      </trkpt>
      <trkpt lat="48.90073" lon="1.66865">
        <ele>68</ele>
        <time>2019-06-09T09:28:07Z</time>
      </trkpt>
      <trkpt lat="48.90079" lon="1.66854">
        <ele>69</ele>
        <time>2019-06-09T09:28:17Z</time>
      </trkpt>
      <trkpt lat="48.90083" lon="1.66842">
        <ele>70</ele>
        <time>2019-06-09T09:28:27Z</time>
      </trkpt>
      <trkpt lat="48.90091" lon="1.66834">
        <ele>71</ele>
        <time>2019-06-09T09:28:35Z</time>
      </trkpt>
      <trkpt lat="48.90083" lon="1.66828">
        <ele>73</ele>
        <time>2019-06-09T09:28:47Z</time>
      </trkpt>
      <trkpt lat="48.90074" lon="1.66835">
        <ele>70</ele>
        <time>2019-06-09T09:28:56Z</time>
      </trkpt>
      <trkpt lat="48.90066" lon="1.66841">
        <ele>69</ele>
        <time>2019-06-09T09:29:03Z</time>
      </trkpt>
      <trkpt lat="48.90057" lon="1.66847">
        <ele>68</ele>
        <time>2019-06-09T09:29:11Z</time>
      </trkpt>
      <trkpt lat="48.90048" lon="1.66852">
        <ele>68</ele>
        <time>2019-06-09T09:29:17Z</time>
      </trkpt>
      <trkpt lat="48.90039" lon="1.66852">
        <ele>67</ele>
        <time>2019-06-09T09:29:25Z</time>
      </trkpt>
      <trkpt lat="48.9003" lon="1.66852">
        <ele>67</ele>
        <time>2019-06-09T09:29:32Z</time>
      </trkpt>
      <trkpt lat="48.9002" lon="1.66852">
        <ele>67</ele>
        <time>2019-06-09T09:29:40Z</time>
      </trkpt>
      <trkpt lat="48.90011" lon="1.66853">
        <ele>67</ele>
        <time>2019-06-09T09:29:47Z</time>
      </trkpt>
      <trkpt lat="48.90002" lon="1.66858">
        <ele>67</ele>
        <time>2019-06-09T09:29:56Z</time>
      </trkpt>
      <trkpt lat="48.89993" lon="1.66856">
        <ele>66</ele>
        <time>2019-06-09T09:30:03Z</time>
      </trkpt>
      <trkpt lat="48.89984" lon="1.66852">
        <ele>66</ele>
        <time>2019-06-09T09:30:10Z</time>
      </trkpt>
      <trkpt lat="48.89975" lon="1.66851">
        <ele>65</ele>
        <time>2019-06-09T09:30:20Z</time>
      </trkpt>
      <trkpt lat="48.89965" lon="1.66845">
        <ele>65</ele>
        <time>2019-06-09T09:30:28Z</time>
      </trkpt>
      <trkpt lat="48.89956" lon="1.66839">
        <ele>65</ele>
        <time>2019-06-09T09:30:35Z</time>
      </trkpt>
      <trkpt lat="48.89947" lon="1.66834">
        <ele>65</ele>
        <time>2019-06-09T09:30:43Z</time>
      </trkpt>
      <trkpt lat="48.89938" lon="1.66835">
        <ele>65</ele>
        <time>2019-06-09T09:30:53Z</time>
      </trkpt>
      <trkpt lat="48.89927" lon="1.66833">
        <ele>68</ele>
        <time>2019-06-09T09:31:01Z</time>
      </trkpt>
      <trkpt lat="48.89917" lon="1.66834">
        <ele>65</ele>
        <time>2019-06-09T09:31:10Z</time>
      </trkpt>
      <trkpt lat="48.89908" lon="1.6683">
        <ele>65</ele>
        <time>2019-06-09T09:31:16Z</time>
      </trkpt>
      <trkpt lat="48.89898" lon="1.66826">
        <ele>66</ele>
        <time>2019-06-09T09:31:25Z</time>
      </trkpt>
      <trkpt lat="48.89889" lon="1.66822">
        <ele>66</ele>
        <time>2019-06-09T09:31:33Z</time>
      </trkpt>
      <trkpt lat="48.8988" lon="1.66817">
        <ele>66</ele>
        <time>2019-06-09T09:31:40Z</time>
      </trkpt>
      <trkpt lat="48.89871" lon="1.66813">
        <ele>65</ele>
        <time>2019-06-09T09:31:48Z</time>
      </trkpt>
      <trkpt lat="48.89862" lon="1.66807">
        <ele>65</ele>
        <time>2019-06-09T09:31:56Z</time>
      </trkpt>
      <trkpt lat="48.89851" lon="1.66805">
        <ele>65</ele>
        <time>2019-06-09T09:32:05Z</time>
      </trkpt>
      <trkpt lat="48.89841" lon="1.66801">
        <ele>65</ele>
        <time>2019-06-09T09:32:14Z</time>
      </trkpt>
      <trkpt lat="48.89832" lon="1.66803">
        <ele>63</ele>
        <time>2019-06-09T09:32:24Z</time>
      </trkpt>
      <trkpt lat="48.89823" lon="1.66809">
        <ele>62</ele>
        <time>2019-06-09T09:32:36Z</time>
      </trkpt>
      <trkpt lat="48.89814" lon="1.66818">
        <ele>62</ele>
        <time>2019-06-09T09:32:42Z</time>
      </trkpt>
      <trkpt lat="48.89805" lon="1.66822">
        <ele>63</ele>
        <time>2019-06-09T09:32:50Z</time>
      </trkpt>
      <trkpt lat="48.89795" lon="1.66817">
        <ele>63</ele>
        <time>2019-06-09T09:32:58Z</time>
      </trkpt>
      <trkpt lat="48.89785" lon="1.66816">
        <ele>63</ele>
        <time>2019-06-09T09:33:05Z</time>
      </trkpt>
      <trkpt lat="48.89777" lon="1.66808">
        <ele>63</ele>
        <time>2019-06-09T09:33:13Z</time>
      </trkpt>
      <trkpt lat="48.89769" lon="1.668">
        <ele>63</ele>
        <time>2019-06-09T09:33:21Z</time>
      </trkpt>
      <trkpt lat="48.89761" lon="1.66793">
        <ele>63</ele>
        <time>2019-06-09T09:33:27Z</time>
      </trkpt>
      <trkpt lat="48.89753" lon="1.66785">
        <ele>63</ele>
        <time>2019-06-09T09:33:36Z</time>
      </trkpt>
      <trkpt lat="48.89744" lon="1.6679">
        <ele>63</ele>
        <time>2019-06-09T09:33:50Z</time>
      </trkpt>
      <trkpt lat="48.89735" lon="1.66785">
        <ele>63</ele>
        <time>2019-06-09T09:33:59Z</time>
      </trkpt>
      <trkpt lat="48.89726" lon="1.66777">
        <ele>63</ele>
        <time>2019-06-09T09:34:22Z</time>
      </trkpt>
      <trkpt lat="48.89716" lon="1.66776">
        <ele>63</ele>
        <time>2019-06-09T09:34:32Z</time>
      </trkpt>
      <trkpt lat="48.89709" lon="1.66784">
        <ele>63</ele>
        <time>2019-06-09T09:34:41Z</time>
      </trkpt>
      <trkpt lat="48.89702" lon="1.66792">
        <ele>63</ele>
        <time>2019-06-09T09:34:48Z</time>
      </trkpt>
      <trkpt lat="48.89693" lon="1.66799">
        <ele>63</ele>
        <time>2019-06-09T09:34:55Z</time>
      </trkpt>
      <trkpt lat="48.89685" lon="1.66809">
        <ele>63</ele>
        <time>2019-06-09T09:35:03Z</time>
      </trkpt>
      <trkpt lat="48.89678" lon="1.66817">
        <ele>63</ele>
        <time>2019-06-09T09:35:10Z</time>
      </trkpt>
      <trkpt lat="48.8967" lon="1.66827">
        <ele>63</ele>
        <time>2019-06-09T09:35:16Z</time>
      </trkpt>
      <trkpt lat="48.89663" lon="1.66835">
        <ele>64</ele>
        <time>2019-06-09T09:35:23Z</time>
      </trkpt>
      <trkpt lat="48.89657" lon="1.66847">
        <ele>65</ele>
        <time>2019-06-09T09:35:33Z</time>
      </trkpt>
      <trkpt lat="48.8965" lon="1.66857">
        <ele>66</ele>
        <time>2019-06-09T09:35:41Z</time>
      </trkpt>
      <trkpt lat="48.89643" lon="1.66869">
        <ele>67</ele>
        <time>2019-06-09T09:35:49Z</time>
      </trkpt>
      <trkpt lat="48.89635" lon="1.66878">
        <ele>67</ele>
        <time>2019-06-09T09:35:55Z</time>
      </trkpt>
      <trkpt lat="48.8963" lon="1.6689">
        <ele>68</ele>
        <time>2019-06-09T09:36:01Z</time>
      </trkpt>
      <trkpt lat="48.89624" lon="1.66901">
        <ele>68</ele>
        <time>2019-06-09T09:36:09Z</time>
      </trkpt>
      <trkpt lat="48.89617" lon="1.66911">
        <ele>69</ele>
        <time>2019-06-09T09:36:20Z</time>
      </trkpt>
      <trkpt lat="48.89613" lon="1.66925">
        <ele>72</ele>
        <time>2019-06-09T09:36:30Z</time>
      </trkpt>
      <trkpt lat="48.89618" lon="1.6694">
        <ele>72</ele>
        <time>2019-06-09T09:36:37Z</time>
      </trkpt>
      <trkpt lat="48.89622" lon="1.66952">
        <ele>73</ele>
        <time>2019-06-09T09:36:45Z</time>
      </trkpt>
      <trkpt lat="48.89626" lon="1.66966">
        <ele>73</ele>
        <time>2019-06-09T09:36:52Z</time>
      </trkpt>
      <trkpt lat="48.89629" lon="1.66979">
        <ele>73</ele>
        <time>2019-06-09T09:36:59Z</time>
      </trkpt>
      <trkpt lat="48.89635" lon="1.66991">
        <ele>72</ele>
        <time>2019-06-09T09:37:05Z</time>
      </trkpt>
      <trkpt lat="48.89641" lon="1.67003">
        <ele>74</ele>
        <time>2019-06-09T09:37:13Z</time>
      </trkpt>
      <trkpt lat="48.89645" lon="1.67017">
        <ele>75</ele>
        <time>2019-06-09T09:37:20Z</time>
      </trkpt>
      <trkpt lat="48.89647" lon="1.6703">
        <ele>75</ele>
        <time>2019-06-09T09:37:26Z</time>
      </trkpt>
      <trkpt lat="48.89647" lon="1.67045">
        <ele>76</ele>
        <time>2019-06-09T09:37:35Z</time>
      </trkpt>
      <trkpt lat="48.89652" lon="1.67058">
        <ele>75</ele>
        <time>2019-06-09T09:37:45Z</time>
      </trkpt>
      <trkpt lat="48.89649" lon="1.67072">
        <ele>75</ele>
        <time>2019-06-09T09:37:51Z</time>
      </trkpt>
      <trkpt lat="48.89646" lon="1.67086">
        <ele>75</ele>
        <time>2019-06-09T09:37:58Z</time>
      </trkpt>
      <trkpt lat="48.89643" lon="1.67099">
        <ele>76</ele>
        <time>2019-06-09T09:38:04Z</time>
      </trkpt>
      <trkpt lat="48.8964" lon="1.67112">
        <ele>77</ele>
        <time>2019-06-09T09:38:12Z</time>
      </trkpt>
      <trkpt lat="48.89634" lon="1.67124">
        <ele>77</ele>
        <time>2019-06-09T09:38:20Z</time>
      </trkpt>
      <trkpt lat="48.8963" lon="1.67137">
        <ele>77</ele>
        <time>2019-06-09T09:38:27Z</time>
      </trkpt>
      <trkpt lat="48.89621" lon="1.67142">
        <ele>78</ele>
        <time>2019-06-09T09:38:33Z</time>
      </trkpt>
      <trkpt lat="48.89613" lon="1.67148">
        <ele>79</ele>
        <time>2019-06-09T09:38:40Z</time>
      </trkpt>
      <trkpt lat="48.89605" lon="1.67155">
        <ele>80</ele>
        <time>2019-06-09T09:38:45Z</time>
      </trkpt>
      <trkpt lat="48.89598" lon="1.67164">
        <ele>81</ele>
        <time>2019-06-09T09:38:53Z</time>
      </trkpt>
      <trkpt lat="48.8959" lon="1.67171">
        <ele>80</ele>
        <time>2019-06-09T09:38:59Z</time>
      </trkpt>
      <trkpt lat="48.89582" lon="1.67179">
        <ele>83</ele>
        <time>2019-06-09T09:39:05Z</time>
      </trkpt>
      <trkpt lat="48.89573" lon="1.67185">
        <ele>82</ele>
        <time>2019-06-09T09:39:12Z</time>
      </trkpt>
      <trkpt lat="48.89567" lon="1.67196">
        <ele>82</ele>
        <time>2019-06-09T09:39:17Z</time>
      </trkpt>
      <trkpt lat="48.8956" lon="1.67205">
        <ele>82</ele>
        <time>2019-06-09T09:39:23Z</time>
      </trkpt>
      <trkpt lat="48.89553" lon="1.67214">
        <ele>81</ele>
        <time>2019-06-09T09:39:29Z</time>
      </trkpt>
      <trkpt lat="48.89542" lon="1.67225">
        <ele>81</ele>
        <time>2019-06-09T09:39:46Z</time>
      </trkpt>
      <trkpt lat="48.89538" lon="1.67245">
        <ele>81</ele>
        <time>2019-06-09T09:39:49Z</time>
      </trkpt>
      <trkpt lat="48.89534" lon="1.67262">
        <ele>73</ele>
        <time>2019-06-09T09:39:52Z</time>
      </trkpt>
      <trkpt lat="48.89541" lon="1.67277">
        <ele>71</ele>
        <time>2019-06-09T09:39:55Z</time>
      </trkpt>
      <trkpt lat="48.89533" lon="1.67285">
        <ele>71</ele>
        <time>2019-06-09T09:40:07Z</time>
      </trkpt>
      <trkpt lat="48.89526" lon="1.67294">
        <ele>71</ele>
        <time>2019-06-09T09:40:13Z</time>
      </trkpt>
      <trkpt lat="48.89517" lon="1.673">
        <ele>71</ele>
        <time>2019-06-09T09:40:20Z</time>
      </trkpt>
      <trkpt lat="48.89509" lon="1.67305">
        <ele>70</ele>
        <time>2019-06-09T09:40:26Z</time>
      </trkpt>
      <trkpt lat="48.895" lon="1.67309">
        <ele>70</ele>
        <time>2019-06-09T09:40:32Z</time>
      </trkpt>
      <trkpt lat="48.89491" lon="1.67313">
        <ele>76</ele>
        <time>2019-06-09T09:40:41Z</time>
      </trkpt>
      <trkpt lat="48.89481" lon="1.67314">
        <ele>77</ele>
        <time>2019-06-09T09:40:48Z</time>
      </trkpt>
      <trkpt lat="48.89473" lon="1.67321">
        <ele>77</ele>
        <time>2019-06-09T09:40:58Z</time>
      </trkpt>
      <trkpt lat="48.89464" lon="1.67327">
        <ele>78</ele>
        <time>2019-06-09T09:41:07Z</time>
      </trkpt>
      <trkpt lat="48.89455" lon="1.67336">
        <ele>73</ele>
        <time>2019-06-09T09:41:12Z</time>
      </trkpt>
      <trkpt lat="48.89446" lon="1.67341">
        <ele>74</ele>
        <time>2019-06-09T09:41:16Z</time>
      </trkpt>
      <trkpt lat="48.89437" lon="1.67346">
        <ele>75</ele>
        <time>2019-06-09T09:41:21Z</time>
      </trkpt>
      <trkpt lat="48.89428" lon="1.67351">
        <ele>75</ele>
        <time>2019-06-09T09:41:33Z</time>
      </trkpt>
      <trkpt lat="48.89423" lon="1.67362">
        <ele>74</ele>
        <time>2019-06-09T09:41:40Z</time>
      </trkpt>
      <trkpt lat="48.89416" lon="1.67373">
        <ele>81</ele>
        <time>2019-06-09T09:41:51Z</time>
      </trkpt>
      <trkpt lat="48.89409" lon="1.67382">
        <ele>81</ele>
        <time>2019-06-09T09:41:59Z</time>
      </trkpt>
      <trkpt lat="48.89404" lon="1.67394">
        <ele>80</ele>
        <time>2019-06-09T09:42:09Z</time>
      </trkpt>
      <trkpt lat="48.89396" lon="1.674">
        <ele>80</ele>
        <time>2019-06-09T09:42:14Z</time>
      </trkpt>
      <trkpt lat="48.89389" lon="1.67411">
        <ele>81</ele>
        <time>2019-06-09T09:42:20Z</time>
      </trkpt>
      <trkpt lat="48.89381" lon="1.67414">
        <ele>82</ele>
        <time>2019-06-09T09:42:24Z</time>
      </trkpt>
      <trkpt lat="48.89374" lon="1.67425">
        <ele>79</ele>
        <time>2019-06-09T09:42:33Z</time>
      </trkpt>
      <trkpt lat="48.89367" lon="1.67436">
        <ele>79</ele>
        <time>2019-06-09T09:42:39Z</time>
      </trkpt>
      <trkpt lat="48.89359" lon="1.67445">
        <ele>80</ele>
        <time>2019-06-09T09:42:46Z</time>
      </trkpt>
      <trkpt lat="48.89354" lon="1.67458">
        <ele>80</ele>
        <time>2019-06-09T09:42:53Z</time>
      </trkpt>
      <trkpt lat="48.89346" lon="1.67465">
        <ele>80</ele>
        <time>2019-06-09T09:43:00Z</time>
      </trkpt>
      <trkpt lat="48.89338" lon="1.67471">
        <ele>81</ele>
        <time>2019-06-09T09:43:06Z</time>
      </trkpt>
      <trkpt lat="48.89329" lon="1.67481">
        <ele>87</ele>
        <time>2019-06-09T09:43:17Z</time>
      </trkpt>
      <trkpt lat="48.89321" lon="1.67485">
        <ele>87</ele>
        <time>2019-06-09T09:43:24Z</time>
      </trkpt>
      <trkpt lat="48.89311" lon="1.6749">
        <ele>88</ele>
        <time>2019-06-09T09:43:33Z</time>
      </trkpt>
      <trkpt lat="48.89303" lon="1.67498">
        <ele>89</ele>
        <time>2019-06-09T09:43:37Z</time>
      </trkpt>
      <trkpt lat="48.89296" lon="1.67514">
        <ele>86</ele>
        <time>2019-06-09T09:43:47Z</time>
      </trkpt>
      <trkpt lat="48.89289" lon="1.67525">
        <ele>86</ele>
        <time>2019-06-09T09:43:52Z</time>
      </trkpt>
      <trkpt lat="48.89286" lon="1.6754">
        <ele>86</ele>
        <time>2019-06-09T09:44:02Z</time>
      </trkpt>
      <trkpt lat="48.89285" lon="1.67554">
        <ele>85</ele>
        <time>2019-06-09T09:44:07Z</time>
      </trkpt>
      <trkpt lat="48.89289" lon="1.67567">
        <ele>84</ele>
        <time>2019-06-09T09:44:14Z</time>
      </trkpt>
      <trkpt lat="48.89298" lon="1.67575">
        <ele>83</ele>
        <time>2019-06-09T09:44:19Z</time>
      </trkpt>
      <trkpt lat="48.89306" lon="1.67583">
        <ele>81</ele>
        <time>2019-06-09T09:44:24Z</time>
      </trkpt>
      <trkpt lat="48.89313" lon="1.67593">
        <ele>76</ele>
        <time>2019-06-09T09:44:34Z</time>
      </trkpt>
      <trkpt lat="48.89316" lon="1.67607">
        <ele>76</ele>
        <time>2019-06-09T09:44:40Z</time>
      </trkpt>
      <trkpt lat="48.89321" lon="1.67622">
        <ele>75</ele>
        <time>2019-06-09T09:44:47Z</time>
      </trkpt>
      <trkpt lat="48.89326" lon="1.67635">
        <ele>74</ele>
        <time>2019-06-09T09:44:52Z</time>
      </trkpt>
      <trkpt lat="48.89332" lon="1.67645">
        <ele>73</ele>
        <time>2019-06-09T09:45:01Z</time>
      </trkpt>
      <trkpt lat="48.89331" lon="1.67659">
        <ele>70</ele>
        <time>2019-06-09T09:45:09Z</time>
      </trkpt>
      <trkpt lat="48.89321" lon="1.67665">
        <ele>71</ele>
        <time>2019-06-09T09:45:17Z</time>
      </trkpt>
      <trkpt lat="48.89313" lon="1.67673">
        <ele>69</ele>
        <time>2019-06-09T09:45:25Z</time>
      </trkpt>
      <trkpt lat="48.89304" lon="1.67682">
        <ele>69</ele>
        <time>2019-06-09T09:45:33Z</time>
      </trkpt>
      <trkpt lat="48.89296" lon="1.67691">
        <ele>69</ele>
        <time>2019-06-09T09:45:41Z</time>
      </trkpt>
      <trkpt lat="48.8929" lon="1.67702">
        <ele>69</ele>
        <time>2019-06-09T09:45:49Z</time>
      </trkpt>
      <trkpt lat="48.89283" lon="1.6771">
        <ele>69</ele>
        <time>2019-06-09T09:45:56Z</time>
      </trkpt>
      <trkpt lat="48.89277" lon="1.67721">
        <ele>69</ele>
        <time>2019-06-09T09:46:03Z</time>
      </trkpt>
      <trkpt lat="48.89282" lon="1.67734">
        <ele>68</ele>
        <time>2019-06-09T09:46:10Z</time>
      </trkpt>
      <trkpt lat="48.89287" lon="1.67748">
        <ele>67</ele>
        <time>2019-06-09T09:46:16Z</time>
      </trkpt>
      <trkpt lat="48.89292" lon="1.6776">
        <ele>63</ele>
        <time>2019-06-09T09:46:23Z</time>
      </trkpt>
      <trkpt lat="48.89295" lon="1.67774">
        <ele>63</ele>
        <time>2019-06-09T09:46:29Z</time>
      </trkpt>
      <trkpt lat="48.89301" lon="1.67784">
        <ele>62</ele>
        <time>2019-06-09T09:46:36Z</time>
      </trkpt>
      <trkpt lat="48.89308" lon="1.67795">
        <ele>62</ele>
        <time>2019-06-09T09:46:44Z</time>
      </trkpt>
      <trkpt lat="48.89313" lon="1.67808">
        <ele>62</ele>
        <time>2019-06-09T09:46:54Z</time>
      </trkpt>
      <trkpt lat="48.8932" lon="1.67818">
        <ele>62</ele>
        <time>2019-06-09T09:47:03Z</time>
      </trkpt>
      <trkpt lat="48.89328" lon="1.67827">
        <ele>61</ele>
        <time>2019-06-09T09:47:10Z</time>
      </trkpt>
      <trkpt lat="48.89333" lon="1.67838">
        <ele>61</ele>
        <time>2019-06-09T09:47:18Z</time>
      </trkpt>
      <trkpt lat="48.89339" lon="1.67849">
        <ele>61</ele>
        <time>2019-06-09T09:47:26Z</time>
      </trkpt>
      <trkpt lat="48.89345" lon="1.67859">
        <ele>61</ele>
        <time>2019-06-09T09:47:33Z</time>
      </trkpt>
      <trkpt lat="48.89352" lon="1.6787">
        <ele>61</ele>
        <time>2019-06-09T09:47:41Z</time>
      </trkpt>
      <trkpt lat="48.89359" lon="1.6788">
        <ele>61</ele>
        <time>2019-06-09T09:47:49Z</time>
      </trkpt>
      <trkpt lat="48.89363" lon="1.67893">
        <ele>61</ele>
        <time>2019-06-09T09:47:57Z</time>
      </trkpt>
      <trkpt lat="48.89368" lon="1.67905">
        <ele>61</ele>
        <time>2019-06-09T09:48:04Z</time>
      </trkpt>
      <trkpt lat="48.89374" lon="1.67918">
        <ele>64</ele>
        <time>2019-06-09T09:48:12Z</time>
      </trkpt>
      <trkpt lat="48.89378" lon="1.67931">
        <ele>64</ele>
        <time>2019-06-09T09:48:19Z</time>
      </trkpt>
      <trkpt lat="48.89376" lon="1.67948">
        <ele>64</ele>
        <time>2019-06-09T09:48:29Z</time>
      </trkpt>
      <trkpt lat="48.89368" lon="1.67959">
        <ele>65</ele>
        <time>2019-06-09T09:48:34Z</time>
      </trkpt>
      <trkpt lat="48.89361" lon="1.67967">
        <ele>65</ele>
        <time>2019-06-09T09:48:39Z</time>
      </trkpt>
      <trkpt lat="48.89354" lon="1.67976">
        <ele>65</ele>
        <time>2019-06-09T09:48:48Z</time>
      </trkpt>
      <trkpt lat="48.89346" lon="1.67983">
        <ele>66</ele>
        <time>2019-06-09T09:48:56Z</time>
      </trkpt>
      <trkpt lat="48.89341" lon="1.67997">
        <ele>66</ele>
        <time>2019-06-09T09:49:08Z</time>
      </trkpt>
      <trkpt lat="48.89345" lon="1.6801">
        <ele>69</ele>
        <time>2019-06-09T09:49:17Z</time>
      </trkpt>
      <trkpt lat="48.89348" lon="1.68024">
        <ele>70</ele>
        <time>2019-06-09T09:49:30Z</time>
      </trkpt>
      <trkpt lat="48.89353" lon="1.68036">
        <ele>71</ele>
        <time>2019-06-09T09:49:38Z</time>
      </trkpt>
      <trkpt lat="48.89358" lon="1.68047">
        <ele>72</ele>
        <time>2019-06-09T09:49:44Z</time>
      </trkpt>
      <trkpt lat="48.89352" lon="1.68057">
        <ele>72</ele>
        <time>2019-06-09T09:49:56Z</time>
      </trkpt>
      <trkpt lat="48.89342" lon="1.68057">
        <ele>72</ele>
        <time>2019-06-09T09:50:05Z</time>
      </trkpt>
      <trkpt lat="48.89334" lon="1.68065">
        <ele>73</ele>
        <time>2019-06-09T09:50:15Z</time>
      </trkpt>
      <trkpt lat="48.89332" lon="1.68081">
        <ele>75</ele>
        <time>2019-06-09T09:50:19Z</time>
      </trkpt>
      <trkpt lat="48.89328" lon="1.68094">
        <ele>76</ele>
        <time>2019-06-09T09:50:29Z</time>
      </trkpt>
      <trkpt lat="48.89328" lon="1.68108">
        <ele>77</ele>
        <time>2019-06-09T09:50:37Z</time>
      </trkpt>
      <trkpt lat="48.8933" lon="1.68123">
        <ele>78</ele>
        <time>2019-06-09T09:50:50Z</time>
      </trkpt>
      <trkpt lat="48.89331" lon="1.68137">
        <ele>79</ele>
        <time>2019-06-09T09:50:58Z</time>
      </trkpt>
      <trkpt lat="48.89332" lon="1.68151">
        <ele>81</ele>
        <time>2019-06-09T09:51:06Z</time>
      </trkpt>
      <trkpt lat="48.89335" lon="1.68165">
        <ele>84</ele>
        <time>2019-06-09T09:51:24Z</time>
      </trkpt>
      <trkpt lat="48.89331" lon="1.68177">
        <ele>85</ele>
        <time>2019-06-09T09:51:44Z</time>
      </trkpt>
      <trkpt lat="48.89324" lon="1.68187">
        <ele>85</ele>
        <time>2019-06-09T09:51:51Z</time>
      </trkpt>
      <trkpt lat="48.89316" lon="1.68193">
        <ele>85</ele>
        <time>2019-06-09T09:52:00Z</time>
      </trkpt>
      <trkpt lat="48.89307" lon="1.68197">
        <ele>85</ele>
        <time>2019-06-09T09:52:10Z</time>
      </trkpt>
      <trkpt lat="48.89299" lon="1.68205">
        <ele>85</ele>
        <time>2019-06-09T09:52:17Z</time>
      </trkpt>
      <trkpt lat="48.89293" lon="1.68219">
        <ele>86</ele>
        <time>2019-06-09T09:52:25Z</time>
      </trkpt>
      <trkpt lat="48.89291" lon="1.68232">
        <ele>86</ele>
        <time>2019-06-09T09:52:34Z</time>
      </trkpt>
      <trkpt lat="48.89292" lon="1.68246">
        <ele>87</ele>
        <time>2019-06-09T09:52:41Z</time>
      </trkpt>
      <trkpt lat="48.89294" lon="1.6826">
        <ele>93</ele>
        <time>2019-06-09T09:52:51Z</time>
      </trkpt>
      <trkpt lat="48.89298" lon="1.68272">
        <ele>94</ele>
        <time>2019-06-09T09:53:03Z</time>
      </trkpt>
      <trkpt lat="48.893" lon="1.68286">
        <ele>95</ele>
        <time>2019-06-09T09:53:16Z</time>
      </trkpt>
      <trkpt lat="48.89301" lon="1.68301">
        <ele>95</ele>
        <time>2019-06-09T09:53:28Z</time>
      </trkpt>
      <trkpt lat="48.89297" lon="1.68313">
        <ele>96</ele>
        <time>2019-06-09T09:53:38Z</time>
      </trkpt>
      <trkpt lat="48.89295" lon="1.68327">
        <ele>96</ele>
        <time>2019-06-09T09:53:45Z</time>
      </trkpt>
      <trkpt lat="48.89291" lon="1.68341">
        <ele>100</ele>
        <time>2019-06-09T09:53:53Z</time>
      </trkpt>
      <trkpt lat="48.89287" lon="1.68355">
        <ele>100</ele>
        <time>2019-06-09T09:54:02Z</time>
      </trkpt>
      <trkpt lat="48.89285" lon="1.68369">
        <ele>100</ele>
        <time>2019-06-09T09:54:10Z</time>
      </trkpt>
      <trkpt lat="48.89281" lon="1.68381">
        <ele>100</ele>
        <time>2019-06-09T09:54:18Z</time>
      </trkpt>
      <trkpt lat="48.89283" lon="1.68395">
        <ele>101</ele>
        <time>2019-06-09T09:54:24Z</time>
      </trkpt>
      <trkpt lat="48.89288" lon="1.68407">
        <ele>101</ele>
        <time>2019-06-09T09:54:29Z</time>
      </trkpt>
      <trkpt lat="48.89296" lon="1.68415">
        <ele>101</ele>
        <time>2019-06-09T09:54:38Z</time>
      </trkpt>
      <trkpt lat="48.89306" lon="1.68419">
        <ele>103</ele>
        <time>2019-06-09T09:54:53Z</time>
      </trkpt>
      <trkpt lat="48.89312" lon="1.68428">
        <ele>103</ele>
        <time>2019-06-09T09:55:01Z</time>
      </trkpt>
      <trkpt lat="48.89316" lon="1.68442">
        <ele>103</ele>
        <time>2019-06-09T09:55:11Z</time>
      </trkpt>
      <trkpt lat="48.89323" lon="1.68454">
        <ele>103</ele>
        <time>2019-06-09T09:55:19Z</time>
      </trkpt>
      <trkpt lat="48.89328" lon="1.68466">
        <ele>103</ele>
        <time>2019-06-09T09:55:28Z</time>
      </trkpt>
      <trkpt lat="48.89332" lon="1.68479">
        <ele>104</ele>
        <time>2019-06-09T09:55:34Z</time>
      </trkpt>
      <trkpt lat="48.89336" lon="1.68491">
        <ele>105</ele>
        <time>2019-06-09T09:55:41Z</time>
      </trkpt>
      <trkpt lat="48.89341" lon="1.68506">
        <ele>106</ele>
        <time>2019-06-09T09:55:50Z</time>
      </trkpt>
      <trkpt lat="48.89344" lon="1.6852">
        <ele>106</ele>
        <time>2019-06-09T09:55:57Z</time>
      </trkpt>
      <trkpt lat="48.89351" lon="1.68532">
        <ele>107</ele>
        <time>2019-06-09T09:56:06Z</time>
      </trkpt>
      <trkpt lat="48.89357" lon="1.68543">
        <ele>107</ele>
        <time>2019-06-09T09:56:14Z</time>
      </trkpt>
      <trkpt lat="48.89361" lon="1.68557">
        <ele>107</ele>
        <time>2019-06-09T09:56:22Z</time>
      </trkpt>
      <trkpt lat="48.89366" lon="1.68569">
        <ele>108</ele>
        <time>2019-06-09T09:56:39Z</time>
      </trkpt>
      <trkpt lat="48.89358" lon="1.68578">
        <ele>108</ele>
        <time>2019-06-09T09:57:00Z</time>
      </trkpt>
      <trkpt lat="48.89349" lon="1.68583">
        <ele>107</ele>
        <time>2019-06-09T09:57:09Z</time>
      </trkpt>
      <trkpt lat="48.89344" lon="1.68596">
        <ele>108</ele>
        <time>2019-06-09T09:57:18Z</time>
      </trkpt>
      <trkpt lat="48.89343" lon="1.68612">
        <ele>109</ele>
        <time>2019-06-09T09:57:29Z</time>
      </trkpt>
      <trkpt lat="48.89347" lon="1.68626">
        <ele>109</ele>
        <time>2019-06-09T09:57:37Z</time>
      </trkpt>
      <trkpt lat="48.89348" lon="1.68639">
        <ele>109</ele>
        <time>2019-06-09T09:57:44Z</time>
      </trkpt>
      <trkpt lat="48.89352" lon="1.68653">
        <ele>109</ele>
        <time>2019-06-09T09:57:50Z</time>
      </trkpt>
      <trkpt lat="48.89353" lon="1.68667">
        <ele>110</ele>
        <time>2019-06-09T09:57:57Z</time>
      </trkpt>
      <trkpt lat="48.89352" lon="1.68681">
        <ele>111</ele>
        <time>2019-06-09T09:58:04Z</time>
      </trkpt>
      <trkpt lat="48.89352" lon="1.68696">
        <ele>111</ele>
        <time>2019-06-09T09:58:14Z</time>
      </trkpt>
      <trkpt lat="48.89354" lon="1.68711">
        <ele>112</ele>
        <time>2019-06-09T09:58:22Z</time>
      </trkpt>
      <trkpt lat="48.8935" lon="1.68724">
        <ele>111</ele>
        <time>2019-06-09T09:58:24Z</time>
      </trkpt>
      <trkpt lat="48.89359" lon="1.68727">
        <ele>112</ele>
        <time>2019-06-09T09:58:30Z</time>
      </trkpt>
      <trkpt lat="48.89361" lon="1.68742">
        <ele>112</ele>
        <time>2019-06-09T09:58:37Z</time>
      </trkpt>
      <trkpt lat="48.89362" lon="1.68756">
        <ele>113</ele>
        <time>2019-06-09T09:58:45Z</time>
      </trkpt>
      <trkpt lat="48.89354" lon="1.68774">
        <ele>113</ele>
        <time>2019-06-09T09:58:49Z</time>
      </trkpt>
      <trkpt lat="48.89356" lon="1.68788">
        <ele>114</ele>
        <time>2019-06-09T09:58:54Z</time>
      </trkpt>
      <trkpt lat="48.89357" lon="1.68803">
        <ele>114</ele>
        <time>2019-06-09T09:59:00Z</time>
      </trkpt>
      <trkpt lat="48.89359" lon="1.68818">
        <ele>114</ele>
        <time>2019-06-09T09:59:08Z</time>
      </trkpt>
      <trkpt lat="48.8936" lon="1.68832">
        <ele>115</ele>
        <time>2019-06-09T09:59:15Z</time>
      </trkpt>
      <trkpt lat="48.89363" lon="1.68846">
        <ele>115</ele>
        <time>2019-06-09T09:59:22Z</time>
      </trkpt>
      <trkpt lat="48.89367" lon="1.6886">
        <ele>115</ele>
        <time>2019-06-09T09:59:29Z</time>
      </trkpt>
      <trkpt lat="48.89367" lon="1.68874">
        <ele>115</ele>
        <time>2019-06-09T09:59:35Z</time>
      </trkpt>
      <trkpt lat="48.89369" lon="1.68888">
        <ele>115</ele>
        <time>2019-06-09T09:59:42Z</time>
      </trkpt>
      <trkpt lat="48.89371" lon="1.68902">
        <ele>115</ele>
        <time>2019-06-09T09:59:48Z</time>
      </trkpt>
      <trkpt lat="48.89374" lon="1.68915">
        <ele>115</ele>
        <time>2019-06-09T09:59:56Z</time>
      </trkpt>
      <trkpt lat="48.89375" lon="1.68929">
        <ele>115</ele>
        <time>2019-06-09T10:00:06Z</time>
      </trkpt>
      <trkpt lat="48.89381" lon="1.68944">
        <ele>115</ele>
        <time>2019-06-09T10:00:13Z</time>
      </trkpt>
      <trkpt lat="48.89384" lon="1.68958">
        <ele>115</ele>
        <time>2019-06-09T10:00:20Z</time>
      </trkpt>
      <trkpt lat="48.89385" lon="1.68971">
        <ele>116</ele>
        <time>2019-06-09T10:00:27Z</time>
      </trkpt>
      <trkpt lat="48.89387" lon="1.68985">
        <ele>116</ele>
        <time>2019-06-09T10:00:34Z</time>
      </trkpt>
      <trkpt lat="48.89388" lon="1.69">
        <ele>116</ele>
        <time>2019-06-09T10:00:42Z</time>
      </trkpt>
      <trkpt lat="48.89389" lon="1.69016">
        <ele>117</ele>
        <time>2019-06-09T10:00:50Z</time>
      </trkpt>
      <trkpt lat="48.89387" lon="1.69031">
        <ele>117</ele>
        <time>2019-06-09T10:00:59Z</time>
      </trkpt>
      <trkpt lat="48.89385" lon="1.69045">
        <ele>117</ele>
        <time>2019-06-09T10:01:06Z</time>
      </trkpt>
      <trkpt lat="48.89385" lon="1.69059">
        <ele>118</ele>
        <time>2019-06-09T10:01:12Z</time>
      </trkpt>
      <trkpt lat="48.89387" lon="1.69073">
        <ele>118</ele>
        <time>2019-06-09T10:01:18Z</time>
      </trkpt>
      <trkpt lat="48.89388" lon="1.69087">
        <ele>120</ele>
        <time>2019-06-09T10:01:27Z</time>
      </trkpt>
      <trkpt lat="48.89388" lon="1.69101">
        <ele>120</ele>
        <time>2019-06-09T10:01:33Z</time>
      </trkpt>
      <trkpt lat="48.8939" lon="1.69115">
        <ele>120</ele>
        <time>2019-06-09T10:01:44Z</time>
      </trkpt>
      <trkpt lat="48.89393" lon="1.6913">
        <ele>120</ele>
        <time>2019-06-09T10:01:51Z</time>
      </trkpt>
      <trkpt lat="48.89396" lon="1.69144">
        <ele>121</ele>
        <time>2019-06-09T10:01:58Z</time>
      </trkpt>
      <trkpt lat="48.894" lon="1.69158">
        <ele>121</ele>
        <time>2019-06-09T10:02:08Z</time>
      </trkpt>
      <trkpt lat="48.89403" lon="1.69172">
        <ele>123</ele>
        <time>2019-06-09T10:02:15Z</time>
      </trkpt>
      <trkpt lat="48.89406" lon="1.69185">
        <ele>123</ele>
        <time>2019-06-09T10:02:26Z</time>
      </trkpt>
      <trkpt lat="48.89409" lon="1.69199">
        <ele>124</ele>
        <time>2019-06-09T10:02:34Z</time>
      </trkpt>
      <trkpt lat="48.89409" lon="1.69213">
        <ele>124</ele>
        <time>2019-06-09T10:02:43Z</time>
      </trkpt>
      <trkpt lat="48.89409" lon="1.69227">
        <ele>124</ele>
        <time>2019-06-09T10:02:54Z</time>
      </trkpt>
      <trkpt lat="48.89409" lon="1.69242">
        <ele>125</ele>
        <time>2019-06-09T10:03:03Z</time>
      </trkpt>
      <trkpt lat="48.89412" lon="1.69256">
        <ele>126</ele>
        <time>2019-06-09T10:03:10Z</time>
      </trkpt>
      <trkpt lat="48.89413" lon="1.69271">
        <ele>126</ele>
        <time>2019-06-09T10:03:19Z</time>
      </trkpt>
      <trkpt lat="48.89416" lon="1.69285">
        <ele>126</ele>
        <time>2019-06-09T10:03:25Z</time>
      </trkpt>
      <trkpt lat="48.89419" lon="1.69299">
        <ele>128</ele>
        <time>2019-06-09T10:03:32Z</time>
      </trkpt>
      <trkpt lat="48.89419" lon="1.69313">
        <ele>128</ele>
        <time>2019-06-09T10:03:40Z</time>
      </trkpt>
      <trkpt lat="48.89421" lon="1.69327">
        <ele>128</ele>
        <time>2019-06-09T10:03:48Z</time>
      </trkpt>
      <trkpt lat="48.89426" lon="1.6934">
        <ele>129</ele>
        <time>2019-06-09T10:03:55Z</time>
      </trkpt>
      <trkpt lat="48.89429" lon="1.69353">
        <ele>129</ele>
        <time>2019-06-09T10:04:04Z</time>
      </trkpt>
      <trkpt lat="48.89429" lon="1.6937">
        <ele>130</ele>
        <time>2019-06-09T10:04:10Z</time>
      </trkpt>
      <trkpt lat="48.89438" lon="1.6937">
        <ele>130</ele>
        <time>2019-06-09T10:04:16Z</time>
      </trkpt>
      <trkpt lat="48.89444" lon="1.69382">
        <ele>130</ele>
        <time>2019-06-09T10:04:54Z</time>
      </trkpt>
      <trkpt lat="48.8945" lon="1.69393">
        <ele>130</ele>
        <time>2019-06-09T10:05:02Z</time>
      </trkpt>
      <trkpt lat="48.89457" lon="1.69402">
        <ele>131</ele>
        <time>2019-06-09T10:05:12Z</time>
      </trkpt>
      <trkpt lat="48.89463" lon="1.69413">
        <ele>131</ele>
        <time>2019-06-09T10:05:21Z</time>
      </trkpt>
      <trkpt lat="48.89466" lon="1.69428">
        <ele>133</ele>
        <time>2019-06-09T10:05:28Z</time>
      </trkpt>
      <trkpt lat="48.89472" lon="1.6944">
        <ele>134</ele>
        <time>2019-06-09T10:05:33Z</time>
      </trkpt>
      <trkpt lat="48.89479" lon="1.69452">
        <ele>134</ele>
        <time>2019-06-09T10:05:38Z</time>
      </trkpt>
      <trkpt lat="48.89487" lon="1.69462">
        <ele>135</ele>
        <time>2019-06-09T10:05:44Z</time>
      </trkpt>
      <trkpt lat="48.89493" lon="1.69472">
        <ele>136</ele>
        <time>2019-06-09T10:05:58Z</time>
      </trkpt>
      <trkpt lat="48.895" lon="1.69482">
        <ele>136</ele>
        <time>2019-06-09T10:06:08Z</time>
      </trkpt>
      <trkpt lat="48.89507" lon="1.69491">
        <ele>139</ele>
        <time>2019-06-09T10:06:18Z</time>
      </trkpt>
      <trkpt lat="48.89515" lon="1.69499">
        <ele>139</ele>
        <time>2019-06-09T10:06:27Z</time>
      </trkpt>
      <trkpt lat="48.89522" lon="1.6951">
        <ele>141</ele>
        <time>2019-06-09T10:06:32Z</time>
      </trkpt>
      <trkpt lat="48.89528" lon="1.69519">
        <ele>141</ele>
        <time>2019-06-09T10:06:52Z</time>
      </trkpt>
      <trkpt lat="48.89535" lon="1.6953">
        <ele>141</ele>
        <time>2019-06-09T10:07:12Z</time>
      </trkpt>
      <trkpt lat="48.89543" lon="1.69538">
        <ele>141</ele>
        <time>2019-06-09T10:07:29Z</time>
      </trkpt>
      <trkpt lat="48.8955" lon="1.69547">
        <ele>142</ele>
        <time>2019-06-09T10:07:44Z</time>
      </trkpt>
      <trkpt lat="48.89559" lon="1.69552">
        <ele>142</ele>
        <time>2019-06-09T10:07:55Z</time>
      </trkpt>
      <trkpt lat="48.89563" lon="1.69565">
        <ele>142</ele>
        <time>2019-06-09T10:08:03Z</time>
      </trkpt>
      <trkpt lat="48.89569" lon="1.69575">
        <ele>143</ele>
        <time>2019-06-09T10:08:10Z</time>
      </trkpt>
      <trkpt lat="48.89578" lon="1.69584">
        <ele>144</ele>
        <time>2019-06-09T10:08:20Z</time>
      </trkpt>
      <trkpt lat="48.89585" lon="1.69592">
        <ele>144</ele>
        <time>2019-06-09T10:08:26Z</time>
      </trkpt>
      <trkpt lat="48.89592" lon="1.69602">
        <ele>145</ele>
        <time>2019-06-09T10:08:32Z</time>
      </trkpt>
      <trkpt lat="48.89598" lon="1.69613">
        <ele>145</ele>
        <time>2019-06-09T10:08:41Z</time>
      </trkpt>
      <trkpt lat="48.89605" lon="1.69625">
        <ele>145</ele>
        <time>2019-06-09T10:08:51Z</time>
      </trkpt>
      <trkpt lat="48.89608" lon="1.69638">
        <ele>146</ele>
        <time>2019-06-09T10:09:02Z</time>
      </trkpt>
      <trkpt lat="48.89614" lon="1.69651">
        <ele>146</ele>
        <time>2019-06-09T10:09:10Z</time>
      </trkpt>
      <trkpt lat="48.89619" lon="1.69663">
        <ele>146</ele>
        <time>2019-06-09T10:09:19Z</time>
      </trkpt>
      <trkpt lat="48.89623" lon="1.69675">
        <ele>147</ele>
        <time>2019-06-09T10:09:24Z</time>
      </trkpt>
      <trkpt lat="48.89626" lon="1.69689">
        <ele>147</ele>
        <time>2019-06-09T10:09:31Z</time>
      </trkpt>
      <trkpt lat="48.89631" lon="1.69702">
        <ele>147</ele>
        <time>2019-06-09T10:09:38Z</time>
      </trkpt>
      <trkpt lat="48.89638" lon="1.6971">
        <ele>147</ele>
        <time>2019-06-09T10:09:46Z</time>
      </trkpt>
      <trkpt lat="48.8964" lon="1.69724">
        <ele>147</ele>
        <time>2019-06-09T10:09:54Z</time>
      </trkpt>
      <trkpt lat="48.89644" lon="1.69738">
        <ele>147</ele>
        <time>2019-06-09T10:10:02Z</time>
      </trkpt>
      <trkpt lat="48.89649" lon="1.69753">
        <ele>148</ele>
        <time>2019-06-09T10:10:11Z</time>
      </trkpt>
      <trkpt lat="48.89654" lon="1.69765">
        <ele>148</ele>
        <time>2019-06-09T10:10:20Z</time>
      </trkpt>
      <trkpt lat="48.89659" lon="1.69777">
        <ele>148</ele>
        <time>2019-06-09T10:10:27Z</time>
      </trkpt>
      <trkpt lat="48.89663" lon="1.69791">
        <ele>148</ele>
        <time>2019-06-09T10:10:33Z</time>
      </trkpt>
      <trkpt lat="48.89664" lon="1.69807">
        <ele>148</ele>
        <time>2019-06-09T10:10:41Z</time>
      </trkpt>
      <trkpt lat="48.89664" lon="1.69822">
        <ele>149</ele>
        <time>2019-06-09T10:10:51Z</time>
      </trkpt>
      <trkpt lat="48.89672" lon="1.69831">
        <ele>149</ele>
        <time>2019-06-09T10:10:58Z</time>
      </trkpt>
      <trkpt lat="48.89671" lon="1.69847">
        <ele>150</ele>
        <time>2019-06-09T10:11:03Z</time>
      </trkpt>
      <trkpt lat="48.89669" lon="1.69861">
        <ele>151</ele>
        <time>2019-06-09T10:11:09Z</time>
      </trkpt>
      <trkpt lat="48.89672" lon="1.69874">
        <ele>151</ele>
        <time>2019-06-09T10:11:20Z</time>
      </trkpt>
      <trkpt lat="48.89678" lon="1.69888">
        <ele>151</ele>
        <time>2019-06-09T10:11:28Z</time>
      </trkpt>
      <trkpt lat="48.89684" lon="1.69899">
        <ele>151</ele>
        <time>2019-06-09T10:11:34Z</time>
      </trkpt>
      <trkpt lat="48.89685" lon="1.69915">
        <ele>151</ele>
        <time>2019-06-09T10:11:43Z</time>
      </trkpt>
      <trkpt lat="48.89686" lon="1.69929">
        <ele>152</ele>
        <time>2019-06-09T10:11:50Z</time>
      </trkpt>
      <trkpt lat="48.89688" lon="1.69945">
        <ele>153</ele>
        <time>2019-06-09T10:11:59Z</time>
      </trkpt>
      <trkpt lat="48.89693" lon="1.69957">
        <ele>153</ele>
        <time>2019-06-09T10:12:08Z</time>
      </trkpt>
      <trkpt lat="48.89698" lon="1.69971">
        <ele>154</ele>
        <time>2019-06-09T10:12:15Z</time>
      </trkpt>
      <trkpt lat="48.89703" lon="1.69985">
        <ele>154</ele>
        <time>2019-06-09T10:12:23Z</time>
      </trkpt>
      <trkpt lat="48.89705" lon="1.69999">
        <ele>154</ele>
        <time>2019-06-09T10:12:34Z</time>
      </trkpt>
      <trkpt lat="48.89707" lon="1.70012">
        <ele>156</ele>
        <time>2019-06-09T10:12:48Z</time>
      </trkpt>
      <trkpt lat="48.89708" lon="1.70026">
        <ele>156</ele>
        <time>2019-06-09T10:12:55Z</time>
      </trkpt>
      <trkpt lat="48.8971" lon="1.70039">
        <ele>156</ele>
        <time>2019-06-09T10:13:05Z</time>
      </trkpt>
      <trkpt lat="48.89711" lon="1.70053">
        <ele>156</ele>
        <time>2019-06-09T10:13:10Z</time>
      </trkpt>
      <trkpt lat="48.89715" lon="1.70068">
        <ele>157</ele>
        <time>2019-06-09T10:13:16Z</time>
      </trkpt>
      <trkpt lat="48.89717" lon="1.70082">
        <ele>157</ele>
        <time>2019-06-09T10:13:26Z</time>
      </trkpt>
      <trkpt lat="48.89722" lon="1.70093">
        <ele>158</ele>
        <time>2019-06-09T10:13:36Z</time>
      </trkpt>
      <trkpt lat="48.89724" lon="1.70108">
        <ele>158</ele>
        <time>2019-06-09T10:13:42Z</time>
      </trkpt>
      <trkpt lat="48.89728" lon="1.7012">
        <ele>158</ele>
        <time>2019-06-09T10:13:54Z</time>
      </trkpt>
      <trkpt lat="48.89738" lon="1.70121">
        <ele>159</ele>
        <time>2019-06-09T10:14:52Z</time>
      </trkpt>
      <trkpt lat="48.89743" lon="1.70107">
        <ele>159</ele>
        <time>2019-06-09T10:15:21Z</time>
      </trkpt>
      <trkpt lat="48.89736" lon="1.70098">
        <ele>159</ele>
        <time>2019-06-09T10:15:26Z</time>
      </trkpt>
      <trkpt lat="48.89736" lon="1.70112">
        <ele>159</ele>
        <time>2019-06-09T10:15:32Z</time>
      </trkpt>
      <trkpt lat="48.89729" lon="1.70123">
        <ele>158</ele>
        <time>2019-06-09T10:16:42Z</time>
      </trkpt>
      <trkpt lat="48.89726" lon="1.70105">
        <ele>158</ele>
        <time>2019-06-09T10:17:01Z</time>
      </trkpt>
      <trkpt lat="48.89727" lon="1.70119">
        <ele>158</ele>
        <time>2019-06-09T10:17:25Z</time>
      </trkpt>
      <trkpt lat="48.89735" lon="1.70128">
        <ele>159</ele>
        <time>2019-06-09T10:17:30Z</time>
      </trkpt>
      <trkpt lat="48.89733" lon="1.70142">
        <ele>159</ele>
        <time>2019-06-09T10:17:43Z</time>
      </trkpt>
      <trkpt lat="48.89737" lon="1.70155">
        <ele>160</ele>
        <time>2019-06-09T10:17:47Z</time>
      </trkpt>
      <trkpt lat="48.89746" lon="1.70159">
        <ele>161</ele>
        <time>2019-06-09T10:17:55Z</time>
      </trkpt>
      <trkpt lat="48.89752" lon="1.70171">
        <ele>163</ele>
        <time>2019-06-09T10:18:06Z</time>
      </trkpt>
      <trkpt lat="48.89755" lon="1.70184">
        <ele>164</ele>
        <time>2019-06-09T10:18:13Z</time>
      </trkpt>
      <trkpt lat="48.8976" lon="1.70197">
        <ele>165</ele>
        <time>2019-06-09T10:18:26Z</time>
      </trkpt>
      <trkpt lat="48.89767" lon="1.7021">
        <ele>166</ele>
        <time>2019-06-09T10:18:34Z</time>
      </trkpt>
      <trkpt lat="48.89773" lon="1.70221">
        <ele>166</ele>
        <time>2019-06-09T10:18:42Z</time>
      </trkpt>
      <trkpt lat="48.89784" lon="1.70232">
        <ele>167</ele>
        <time>2019-06-09T10:18:56Z</time>
      </trkpt>
      <trkpt lat="48.89788" lon="1.70245">
        <ele>167</ele>
        <time>2019-06-09T10:19:09Z</time>
      </trkpt>
      <trkpt lat="48.89798" lon="1.70253">
        <ele>170</ele>
        <time>2019-06-09T10:19:20Z</time>
      </trkpt>
      <trkpt lat="48.89804" lon="1.70268">
        <ele>170</ele>
        <time>2019-06-09T10:19:25Z</time>
      </trkpt>
      <trkpt lat="48.89809" lon="1.70279">
        <ele>170</ele>
        <time>2019-06-09T10:19:42Z</time>
      </trkpt>
      <trkpt lat="48.89816" lon="1.70292">
        <ele>171</ele>
        <time>2019-06-09T10:19:53Z</time>
      </trkpt>
      <trkpt lat="48.89826" lon="1.70299">
        <ele>171</ele>
        <time>2019-06-09T10:19:57Z</time>
      </trkpt>
      <trkpt lat="48.8983" lon="1.70312">
        <ele>172</ele>
        <time>2019-06-09T10:20:09Z</time>
      </trkpt>
      <trkpt lat="48.89837" lon="1.70322">
        <ele>174</ele>
        <time>2019-06-09T10:20:15Z</time>
      </trkpt>
      <trkpt lat="48.89839" lon="1.70336">
        <ele>174</ele>
        <time>2019-06-09T10:20:20Z</time>
      </trkpt>
      <trkpt lat="48.89843" lon="1.70348">
        <ele>175</ele>
        <time>2019-06-09T10:20:33Z</time>
      </trkpt>
      <trkpt lat="48.89853" lon="1.70352">
        <ele>175</ele>
        <time>2019-06-09T10:20:38Z</time>
      </trkpt>
      <trkpt lat="48.89852" lon="1.70366">
        <ele>175</ele>
        <time>2019-06-09T10:20:46Z</time>
      </trkpt>
      <trkpt lat="48.89859" lon="1.70374">
        <ele>175</ele>
        <time>2019-06-09T10:20:52Z</time>
      </trkpt>
      <trkpt lat="48.89868" lon="1.70368">
        <ele>175</ele>
        <time>2019-06-09T10:21:02Z</time>
      </trkpt>
      <trkpt lat="48.89874" lon="1.70378">
        <ele>176</ele>
        <time>2019-06-09T10:21:05Z</time>
      </trkpt>
      <trkpt lat="48.89882" lon="1.7039">
        <ele>176</ele>
        <time>2019-06-09T10:21:12Z</time>
      </trkpt>
      <trkpt lat="48.89891" lon="1.70394">
        <ele>176</ele>
        <time>2019-06-09T10:21:22Z</time>
      </trkpt>
      <trkpt lat="48.89899" lon="1.70403">
        <ele>176</ele>
        <time>2019-06-09T10:21:31Z</time>
      </trkpt>
      <trkpt lat="48.89909" lon="1.70411">
        <ele>176</ele>
        <time>2019-06-09T10:21:41Z</time>
      </trkpt>
      <trkpt lat="48.89918" lon="1.70418">
        <ele>176</ele>
        <time>2019-06-09T10:21:48Z</time>
      </trkpt>
      <trkpt lat="48.89927" lon="1.70424">
        <ele>175</ele>
        <time>2019-06-09T10:21:58Z</time>
      </trkpt>
      <trkpt lat="48.89936" lon="1.70431">
        <ele>175</ele>
        <time>2019-06-09T10:22:04Z</time>
      </trkpt>
      <trkpt lat="48.89945" lon="1.70437">
        <ele>175</ele>
        <time>2019-06-09T10:22:15Z</time>
      </trkpt>
      <trkpt lat="48.89955" lon="1.70443">
        <ele>174</ele>
        <time>2019-06-09T10:22:25Z</time>
      </trkpt>
      <trkpt lat="48.89967" lon="1.70451">
        <ele>174</ele>
        <time>2019-06-09T10:22:32Z</time>
      </trkpt>
      <trkpt lat="48.89976" lon="1.70458">
        <ele>174</ele>
        <time>2019-06-09T10:22:43Z</time>
      </trkpt>
      <trkpt lat="48.89984" lon="1.70467">
        <ele>173</ele>
        <time>2019-06-09T10:22:52Z</time>
      </trkpt>
      <trkpt lat="48.89993" lon="1.70472">
        <ele>173</ele>
        <time>2019-06-09T10:22:59Z</time>
      </trkpt>
      <trkpt lat="48.90002" lon="1.70478">
        <ele>168</ele>
        <time>2019-06-09T10:23:05Z</time>
      </trkpt>
      <trkpt lat="48.9001" lon="1.70488">
        <ele>168</ele>
        <time>2019-06-09T10:23:15Z</time>
      </trkpt>
      <trkpt lat="48.90019" lon="1.70492">
        <ele>168</ele>
        <time>2019-06-09T10:23:25Z</time>
      </trkpt>
      <trkpt lat="48.90027" lon="1.70501">
        <ele>165</ele>
        <time>2019-06-09T10:23:33Z</time>
      </trkpt>
      <trkpt lat="48.90036" lon="1.70508">
        <ele>164</ele>
        <time>2019-06-09T10:23:41Z</time>
      </trkpt>
      <trkpt lat="48.90044" lon="1.70515">
        <ele>163</ele>
        <time>2019-06-09T10:23:51Z</time>
      </trkpt>
      <trkpt lat="48.90053" lon="1.70523">
        <ele>163</ele>
        <time>2019-06-09T10:23:59Z</time>
      </trkpt>
      <trkpt lat="48.90062" lon="1.70529">
        <ele>162</ele>
        <time>2019-06-09T10:24:06Z</time>
      </trkpt>
      <trkpt lat="48.9007" lon="1.70536">
        <ele>162</ele>
        <time>2019-06-09T10:24:16Z</time>
      </trkpt>
      <trkpt lat="48.90078" lon="1.70544">
        <ele>161</ele>
        <time>2019-06-09T10:24:23Z</time>
      </trkpt>
      <trkpt lat="48.90086" lon="1.70551">
        <ele>156</ele>
        <time>2019-06-09T10:24:30Z</time>
      </trkpt>
      <trkpt lat="48.90094" lon="1.70558">
        <ele>156</ele>
        <time>2019-06-09T10:24:40Z</time>
      </trkpt>
      <trkpt lat="48.90104" lon="1.70562">
        <ele>156</ele>
        <time>2019-06-09T10:24:47Z</time>
      </trkpt>
      <trkpt lat="48.90112" lon="1.7057">
        <ele>155</ele>
        <time>2019-06-09T10:24:55Z</time>
      </trkpt>
      <trkpt lat="48.9012" lon="1.70575">
        <ele>155</ele>
        <time>2019-06-09T10:25:03Z</time>
      </trkpt>
      <trkpt lat="48.90128" lon="1.70583">
        <ele>154</ele>
        <time>2019-06-09T10:25:11Z</time>
      </trkpt>
      <trkpt lat="48.90137" lon="1.7059">
        <ele>152</ele>
        <time>2019-06-09T10:25:18Z</time>
      </trkpt>
      <trkpt lat="48.90145" lon="1.70597">
        <ele>152</ele>
        <time>2019-06-09T10:25:26Z</time>
      </trkpt>
      <trkpt lat="48.90154" lon="1.70604">
        <ele>151</ele>
        <time>2019-06-09T10:25:34Z</time>
      </trkpt>
      <trkpt lat="48.90163" lon="1.70609">
        <ele>151</ele>
        <time>2019-06-09T10:25:42Z</time>
      </trkpt>
      <trkpt lat="48.9017" lon="1.70619">
        <ele>147</ele>
        <time>2019-06-09T10:25:50Z</time>
      </trkpt>
      <trkpt lat="48.90171" lon="1.70633">
        <ele>147</ele>
        <time>2019-06-09T10:26:00Z</time>
      </trkpt>
      <trkpt lat="48.90168" lon="1.70646">
        <ele>146</ele>
        <time>2019-06-09T10:26:10Z</time>
      </trkpt>
      <trkpt lat="48.90165" lon="1.70659">
        <ele>148</ele>
        <time>2019-06-09T10:26:16Z</time>
      </trkpt>
      <trkpt lat="48.90162" lon="1.70673">
        <ele>147</ele>
        <time>2019-06-09T10:26:23Z</time>
      </trkpt>
      <trkpt lat="48.90159" lon="1.70686">
        <ele>147</ele>
        <time>2019-06-09T10:26:31Z</time>
      </trkpt>
      <trkpt lat="48.90158" lon="1.70702">
        <ele>147</ele>
        <time>2019-06-09T10:26:42Z</time>
      </trkpt>
      <trkpt lat="48.90158" lon="1.70717">
        <ele>147</ele>
        <time>2019-06-09T10:26:50Z</time>
      </trkpt>
      <trkpt lat="48.90155" lon="1.70731">
        <ele>146</ele>
        <time>2019-06-09T10:26:58Z</time>
      </trkpt>
      <trkpt lat="48.90154" lon="1.70745">
        <ele>145</ele>
        <time>2019-06-09T10:27:07Z</time>
      </trkpt>
      <trkpt lat="48.90153" lon="1.70759">
        <ele>144</ele>
        <time>2019-06-09T10:27:13Z</time>
      </trkpt>
      <trkpt lat="48.90152" lon="1.70774">
        <ele>145</ele>
        <time>2019-06-09T10:27:19Z</time>
      </trkpt>
      <trkpt lat="48.90151" lon="1.70789">
        <ele>145</ele>
        <time>2019-06-09T10:27:27Z</time>
      </trkpt>
      <trkpt lat="48.90149" lon="1.70804">
        <ele>144</ele>
        <time>2019-06-09T10:27:36Z</time>
      </trkpt>
      <trkpt lat="48.90148" lon="1.70819">
        <ele>144</ele>
        <time>2019-06-09T10:27:43Z</time>
      </trkpt>
      <trkpt lat="48.90144" lon="1.70833">
        <ele>144</ele>
        <time>2019-06-09T10:27:52Z</time>
      </trkpt>
      <trkpt lat="48.90141" lon="1.70848">
        <ele>143</ele>
        <time>2019-06-09T10:28:00Z</time>
      </trkpt>
      <trkpt lat="48.9014" lon="1.70862">
        <ele>143</ele>
        <time>2019-06-09T10:28:07Z</time>
      </trkpt>
      <trkpt lat="48.90139" lon="1.70877">
        <ele>143</ele>
        <time>2019-06-09T10:28:14Z</time>
      </trkpt>
      <trkpt lat="48.90138" lon="1.70892">
        <ele>143</ele>
        <time>2019-06-09T10:28:22Z</time>
      </trkpt>
      <trkpt lat="48.90136" lon="1.70907">
        <ele>143</ele>
        <time>2019-06-09T10:28:32Z</time>
      </trkpt>
      <trkpt lat="48.90135" lon="1.70921">
        <ele>142</ele>
        <time>2019-06-09T10:28:39Z</time>
      </trkpt>
      <trkpt lat="48.9013" lon="1.70934">
        <ele>142</ele>
        <time>2019-06-09T10:28:45Z</time>
      </trkpt>
      <trkpt lat="48.90126" lon="1.70948">
        <ele>142</ele>
        <time>2019-06-09T10:28:53Z</time>
      </trkpt>
      <trkpt lat="48.90123" lon="1.70961">
        <ele>143</ele>
        <time>2019-06-09T10:29:01Z</time>
      </trkpt>
      <trkpt lat="48.90119" lon="1.70975">
        <ele>143</ele>
        <time>2019-06-09T10:29:09Z</time>
      </trkpt>
      <trkpt lat="48.90115" lon="1.70988">
        <ele>143</ele>
        <time>2019-06-09T10:29:19Z</time>
      </trkpt>
      <trkpt lat="48.90111" lon="1.71001">
        <ele>143</ele>
        <time>2019-06-09T10:29:26Z</time>
      </trkpt>
      <trkpt lat="48.90107" lon="1.71016">
        <ele>143</ele>
        <time>2019-06-09T10:29:34Z</time>
      </trkpt>
      <trkpt lat="48.90103" lon="1.7103">
        <ele>143</ele>
        <time>2019-06-09T10:29:41Z</time>
      </trkpt>
      <trkpt lat="48.901" lon="1.71044">
        <ele>143</ele>
        <time>2019-06-09T10:29:49Z</time>
      </trkpt>
      <trkpt lat="48.90097" lon="1.71056">
        <ele>143</ele>
        <time>2019-06-09T10:29:56Z</time>
      </trkpt>
      <trkpt lat="48.90092" lon="1.7107">
        <ele>144</ele>
        <time>2019-06-09T10:30:05Z</time>
      </trkpt>
      <trkpt lat="48.90087" lon="1.71082">
        <ele>145</ele>
        <time>2019-06-09T10:30:12Z</time>
      </trkpt>
      <trkpt lat="48.90083" lon="1.71095">
        <ele>147</ele>
        <time>2019-06-09T10:30:19Z</time>
      </trkpt>
      <trkpt lat="48.90084" lon="1.71109">
        <ele>144</ele>
        <time>2019-06-09T10:30:27Z</time>
      </trkpt>
      <trkpt lat="48.90091" lon="1.7112">
        <ele>143</ele>
        <time>2019-06-09T10:30:36Z</time>
      </trkpt>
      <trkpt lat="48.901" lon="1.71128">
        <ele>143</ele>
        <time>2019-06-09T10:30:44Z</time>
      </trkpt>
      <trkpt lat="48.90109" lon="1.71136">
        <ele>143</ele>
        <time>2019-06-09T10:30:51Z</time>
      </trkpt>
      <trkpt lat="48.90117" lon="1.71146">
        <ele>143</ele>
        <time>2019-06-09T10:30:59Z</time>
      </trkpt>
      <trkpt lat="48.90124" lon="1.71154">
        <ele>143</ele>
        <time>2019-06-09T10:31:05Z</time>
      </trkpt>
      <trkpt lat="48.90132" lon="1.71162">
        <ele>142</ele>
        <time>2019-06-09T10:31:12Z</time>
      </trkpt>
      <trkpt lat="48.9014" lon="1.71169">
        <ele>142</ele>
        <time>2019-06-09T10:31:19Z</time>
      </trkpt>
      <trkpt lat="48.90148" lon="1.71178">
        <ele>142</ele>
        <time>2019-06-09T10:31:27Z</time>
      </trkpt>
      <trkpt lat="48.90156" lon="1.71185">
        <ele>141</ele>
        <time>2019-06-09T10:31:34Z</time>
      </trkpt>
      <trkpt lat="48.90163" lon="1.71192">
        <ele>142</ele>
        <time>2019-06-09T10:31:42Z</time>
      </trkpt>
      <trkpt lat="48.90172" lon="1.71201">
        <ele>140</ele>
        <time>2019-06-09T10:31:49Z</time>
      </trkpt>
      <trkpt lat="48.90181" lon="1.71208">
        <ele>140</ele>
        <time>2019-06-09T10:31:57Z</time>
      </trkpt>
      <trkpt lat="48.90189" lon="1.71215">
        <ele>140</ele>
        <time>2019-06-09T10:32:03Z</time>
      </trkpt>
      <trkpt lat="48.90197" lon="1.71222">
        <ele>140</ele>
        <time>2019-06-09T10:32:12Z</time>
      </trkpt>
      <trkpt lat="48.90207" lon="1.71231">
        <ele>139</ele>
        <time>2019-06-09T10:32:19Z</time>
      </trkpt>
      <trkpt lat="48.90214" lon="1.71241">
        <ele>139</ele>
        <time>2019-06-09T10:32:28Z</time>
      </trkpt>
      <trkpt lat="48.90222" lon="1.71249">
        <ele>139</ele>
        <time>2019-06-09T10:32:35Z</time>
      </trkpt>
      <trkpt lat="48.90231" lon="1.71255">
        <ele>139</ele>
        <time>2019-06-09T10:32:42Z</time>
      </trkpt>
      <trkpt lat="48.90238" lon="1.71263">
        <ele>139</ele>
        <time>2019-06-09T10:32:47Z</time>
      </trkpt>
      <trkpt lat="48.90246" lon="1.71271">
        <ele>139</ele>
        <time>2019-06-09T10:32:56Z</time>
      </trkpt>
      <trkpt lat="48.90254" lon="1.71277">
        <ele>138</ele>
        <time>2019-06-09T10:33:04Z</time>
      </trkpt>
      <trkpt lat="48.90261" lon="1.71286">
        <ele>138</ele>
        <time>2019-06-09T10:33:10Z</time>
      </trkpt>
      <trkpt lat="48.90269" lon="1.71295">
        <ele>138</ele>
        <time>2019-06-09T10:33:18Z</time>
      </trkpt>
      <trkpt lat="48.90278" lon="1.71302">
        <ele>137</ele>
        <time>2019-06-09T10:33:27Z</time>
      </trkpt>
      <trkpt lat="48.90286" lon="1.71312">
        <ele>137</ele>
        <time>2019-06-09T10:33:34Z</time>
      </trkpt>
      <trkpt lat="48.90294" lon="1.71321">
        <ele>137</ele>
        <time>2019-06-09T10:33:42Z</time>
      </trkpt>
      <trkpt lat="48.90303" lon="1.71328">
        <ele>137</ele>
        <time>2019-06-09T10:33:49Z</time>
      </trkpt>
      <trkpt lat="48.90311" lon="1.71333">
        <ele>137</ele>
        <time>2019-06-09T10:33:57Z</time>
      </trkpt>
      <trkpt lat="48.9032" lon="1.7134">
        <ele>136</ele>
        <time>2019-06-09T10:34:04Z</time>
      </trkpt>
      <trkpt lat="48.9033" lon="1.71346">
        <ele>136</ele>
        <time>2019-06-09T10:34:11Z</time>
      </trkpt>
      <trkpt lat="48.90338" lon="1.71352">
        <ele>136</ele>
        <time>2019-06-09T10:34:18Z</time>
      </trkpt>
      <trkpt lat="48.90347" lon="1.71358">
        <ele>135</ele>
        <time>2019-06-09T10:34:26Z</time>
      </trkpt>
      <trkpt lat="48.90355" lon="1.71367">
        <ele>135</ele>
        <time>2019-06-09T10:34:35Z</time>
      </trkpt>
      <trkpt lat="48.90363" lon="1.71374">
        <ele>135</ele>
        <time>2019-06-09T10:34:43Z</time>
      </trkpt>
      <trkpt lat="48.90371" lon="1.71381">
        <ele>135</ele>
        <time>2019-06-09T10:34:50Z</time>
      </trkpt>
      <trkpt lat="48.90378" lon="1.71389">
        <ele>135</ele>
        <time>2019-06-09T10:34:57Z</time>
      </trkpt>
      <trkpt lat="48.90387" lon="1.71397">
        <ele>135</ele>
        <time>2019-06-09T10:35:03Z</time>
      </trkpt>
      <trkpt lat="48.90396" lon="1.71405">
        <ele>134</ele>
        <time>2019-06-09T10:35:10Z</time>
      </trkpt>
      <trkpt lat="48.90405" lon="1.71411">
        <ele>134</ele>
        <time>2019-06-09T10:35:16Z</time>
      </trkpt>
      <trkpt lat="48.90413" lon="1.71419">
        <ele>133</ele>
        <time>2019-06-09T10:35:24Z</time>
      </trkpt>
      <trkpt lat="48.90421" lon="1.71428">
        <ele>133</ele>
        <time>2019-06-09T10:35:32Z</time>
      </trkpt>
      <trkpt lat="48.90429" lon="1.71434">
        <ele>133</ele>
        <time>2019-06-09T10:35:38Z</time>
      </trkpt>
      <trkpt lat="48.90437" lon="1.71441">
        <ele>133</ele>
        <time>2019-06-09T10:35:47Z</time>
      </trkpt>
      <trkpt lat="48.90446" lon="1.71448">
        <ele>133</ele>
        <time>2019-06-09T10:35:55Z</time>
      </trkpt>
      <trkpt lat="48.90455" lon="1.71455">
        <ele>133</ele>
        <time>2019-06-09T10:36:02Z</time>
      </trkpt>
      <trkpt lat="48.90464" lon="1.7146">
        <ele>132</ele>
        <time>2019-06-09T10:36:08Z</time>
      </trkpt>
      <trkpt lat="48.90472" lon="1.71467">
        <ele>132</ele>
        <time>2019-06-09T10:36:17Z</time>
      </trkpt>
      <trkpt lat="48.9048" lon="1.71475">
        <ele>132</ele>
        <time>2019-06-09T10:36:24Z</time>
      </trkpt>
      <trkpt lat="48.90489" lon="1.7148">
        <ele>132</ele>
        <time>2019-06-09T10:36:30Z</time>
      </trkpt>
      <trkpt lat="48.90498" lon="1.71485">
        <ele>132</ele>
        <time>2019-06-09T10:36:37Z</time>
      </trkpt>
      <trkpt lat="48.90507" lon="1.71491">
        <ele>131</ele>
        <time>2019-06-09T10:36:45Z</time>
      </trkpt>
      <trkpt lat="48.90515" lon="1.715">
        <ele>131</ele>
        <time>2019-06-09T10:36:54Z</time>
      </trkpt>
      <trkpt lat="48.90519" lon="1.71514">
        <ele>131</ele>
        <time>2019-06-09T10:37:01Z</time>
      </trkpt>
      <trkpt lat="48.90522" lon="1.71527">
        <ele>130</ele>
        <time>2019-06-09T10:37:08Z</time>
      </trkpt>
      <trkpt lat="48.90526" lon="1.71539">
        <ele>130</ele>
        <time>2019-06-09T10:37:15Z</time>
      </trkpt>
      <trkpt lat="48.90532" lon="1.7155">
        <ele>130</ele>
        <time>2019-06-09T10:37:22Z</time>
      </trkpt>
      <trkpt lat="48.90538" lon="1.71561">
        <ele>130</ele>
        <time>2019-06-09T10:37:29Z</time>
      </trkpt>
      <trkpt lat="48.90542" lon="1.71574">
        <ele>130</ele>
        <time>2019-06-09T10:37:38Z</time>
      </trkpt>
      <trkpt lat="48.90546" lon="1.71587">
        <ele>129</ele>
        <time>2019-06-09T10:37:44Z</time>
      </trkpt>
      <trkpt lat="48.90553" lon="1.71598">
        <ele>129</ele>
        <time>2019-06-09T10:37:52Z</time>
      </trkpt>
      <trkpt lat="48.90561" lon="1.71608">
        <ele>129</ele>
        <time>2019-06-09T10:38:00Z</time>
      </trkpt>
      <trkpt lat="48.90565" lon="1.7162">
        <ele>129</ele>
        <time>2019-06-09T10:38:06Z</time>
      </trkpt>
      <trkpt lat="48.90571" lon="1.71634">
        <ele>129</ele>
        <time>2019-06-09T10:38:12Z</time>
      </trkpt>
      <trkpt lat="48.90576" lon="1.71645">
        <ele>129</ele>
        <time>2019-06-09T10:38:18Z</time>
      </trkpt>
      <trkpt lat="48.90581" lon="1.71657">
        <ele>129</ele>
        <time>2019-06-09T10:38:25Z</time>
      </trkpt>
      <trkpt lat="48.90586" lon="1.7167">
        <ele>129</ele>
        <time>2019-06-09T10:38:32Z</time>
      </trkpt>
      <trkpt lat="48.90591" lon="1.71682">
        <ele>129</ele>
        <time>2019-06-09T10:38:39Z</time>
      </trkpt>
      <trkpt lat="48.90596" lon="1.71693">
        <ele>128</ele>
        <time>2019-06-09T10:38:44Z</time>
      </trkpt>
      <trkpt lat="48.90603" lon="1.71704">
        <ele>128</ele>
        <time>2019-06-09T10:38:53Z</time>
      </trkpt>
      <trkpt lat="48.90608" lon="1.71715">
        <ele>128</ele>
        <time>2019-06-09T10:39:01Z</time>
      </trkpt>
      <trkpt lat="48.90615" lon="1.71726">
        <ele>128</ele>
        <time>2019-06-09T10:39:08Z</time>
      </trkpt>
      <trkpt lat="48.90621" lon="1.71736">
        <ele>128</ele>
        <time>2019-06-09T10:39:13Z</time>
      </trkpt>
      <trkpt lat="48.90628" lon="1.71748">
        <ele>128</ele>
        <time>2019-06-09T10:39:20Z</time>
      </trkpt>
      <trkpt lat="48.90634" lon="1.71759">
        <ele>128</ele>
        <time>2019-06-09T10:39:27Z</time>
      </trkpt>
      <trkpt lat="48.90641" lon="1.7177">
        <ele>128</ele>
        <time>2019-06-09T10:39:35Z</time>
      </trkpt>
      <trkpt lat="48.90647" lon="1.71781">
        <ele>128</ele>
        <time>2019-06-09T10:39:42Z</time>
      </trkpt>
      <trkpt lat="48.90653" lon="1.71794">
        <ele>129</ele>
        <time>2019-06-09T10:39:49Z</time>
      </trkpt>
      <trkpt lat="48.9066" lon="1.71805">
        <ele>129</ele>
        <time>2019-06-09T10:39:57Z</time>
      </trkpt>
      <trkpt lat="48.90667" lon="1.71815">
        <ele>129</ele>
        <time>2019-06-09T10:40:05Z</time>
      </trkpt>
      <trkpt lat="48.90671" lon="1.71827">
        <ele>130</ele>
        <time>2019-06-09T10:40:13Z</time>
      </trkpt>
      <trkpt lat="48.90677" lon="1.71839">
        <ele>130</ele>
        <time>2019-06-09T10:40:22Z</time>
      </trkpt>
      <trkpt lat="48.90683" lon="1.71852">
        <ele>130</ele>
        <time>2019-06-09T10:40:29Z</time>
      </trkpt>
      <trkpt lat="48.90771" lon="1.72065">
        <ele>136</ele>
        <time>2019-06-09T10:42:59Z</time>
      </trkpt>
      <trkpt lat="48.90773" lon="1.7208">
        <ele>136</ele>
        <time>2019-06-09T10:43:06Z</time>
      </trkpt>
      <trkpt lat="48.90774" lon="1.72095">
        <ele>137</ele>
        <time>2019-06-09T10:43:12Z</time>
      </trkpt>
      <trkpt lat="48.90778" lon="1.72109">
        <ele>137</ele>
        <time>2019-06-09T10:43:18Z</time>
      </trkpt>
      <trkpt lat="48.90783" lon="1.72121">
        <ele>137</ele>
        <time>2019-06-09T10:43:26Z</time>
      </trkpt>
      <trkpt lat="48.9079" lon="1.7213">
        <ele>137</ele>
        <time>2019-06-09T10:43:33Z</time>
      </trkpt>
      <trkpt lat="48.90795" lon="1.72144">
        <ele>137</ele>
        <time>2019-06-09T10:43:41Z</time>
      </trkpt>
      <trkpt lat="48.90798" lon="1.72158">
        <ele>137</ele>
        <time>2019-06-09T10:43:47Z</time>
      </trkpt>
      <trkpt lat="48.90802" lon="1.72173">
        <ele>137</ele>
        <time>2019-06-09T10:43:53Z</time>
      </trkpt>
      <trkpt lat="48.90807" lon="1.72186">
        <ele>137</ele>
        <time>2019-06-09T10:44:00Z</time>
      </trkpt>
      <trkpt lat="48.90813" lon="1.72198">
        <ele>137</ele>
        <time>2019-06-09T10:44:08Z</time>
      </trkpt>
      <trkpt lat="48.9082" lon="1.72207">
        <ele>138</ele>
        <time>2019-06-09T10:44:16Z</time>
      </trkpt>
      <trkpt lat="48.90826" lon="1.72217">
        <ele>138</ele>
        <time>2019-06-09T10:44:22Z</time>
      </trkpt>
      <trkpt lat="48.90833" lon="1.72228">
        <ele>138</ele>
        <time>2019-06-09T10:44:31Z</time>
      </trkpt>
      <trkpt lat="48.90839" lon="1.7224">
        <ele>139</ele>
        <time>2019-06-09T10:44:39Z</time>
      </trkpt>
      <trkpt lat="48.90845" lon="1.72252">
        <ele>139</ele>
        <time>2019-06-09T10:44:47Z</time>
      </trkpt>
      <trkpt lat="48.90852" lon="1.72262">
        <ele>139</ele>
        <time>2019-06-09T10:44:53Z</time>
      </trkpt>
      <trkpt lat="48.90858" lon="1.72272">
        <ele>139</ele>
        <time>2019-06-09T10:45:00Z</time>
      </trkpt>
      <trkpt lat="48.90864" lon="1.72282">
        <ele>139</ele>
        <time>2019-06-09T10:45:07Z</time>
      </trkpt>
      <trkpt lat="48.9087" lon="1.72294">
        <ele>139</ele>
        <time>2019-06-09T10:45:14Z</time>
      </trkpt>
      <trkpt lat="48.90876" lon="1.72306">
        <ele>139</ele>
        <time>2019-06-09T10:45:22Z</time>
      </trkpt>
      <trkpt lat="48.90883" lon="1.72318">
        <ele>139</ele>
        <time>2019-06-09T10:45:29Z</time>
      </trkpt>
      <trkpt lat="48.9089" lon="1.7233">
        <ele>140</ele>
        <time>2019-06-09T10:45:37Z</time>
      </trkpt>
      <trkpt lat="48.90895" lon="1.72341">
        <ele>140</ele>
        <time>2019-06-09T10:45:43Z</time>
      </trkpt>
      <trkpt lat="48.909" lon="1.72355">
        <ele>140</ele>
        <time>2019-06-09T10:45:51Z</time>
      </trkpt>
      <trkpt lat="48.90903" lon="1.72368">
        <ele>140</ele>
        <time>2019-06-09T10:45:59Z</time>
      </trkpt>
      <trkpt lat="48.90907" lon="1.72382">
        <ele>140</ele>
        <time>2019-06-09T10:46:07Z</time>
      </trkpt>
      <trkpt lat="48.90904" lon="1.72395">
        <ele>140</ele>
        <time>2019-06-09T10:46:13Z</time>
      </trkpt>
      <trkpt lat="48.90898" lon="1.72405">
        <ele>140</ele>
        <time>2019-06-09T10:46:20Z</time>
      </trkpt>
      <trkpt lat="48.90891" lon="1.72416">
        <ele>140</ele>
        <time>2019-06-09T10:46:27Z</time>
      </trkpt>
      <trkpt lat="48.90884" lon="1.72427">
        <ele>141</ele>
        <time>2019-06-09T10:46:36Z</time>
      </trkpt>
      <trkpt lat="48.90881" lon="1.7244">
        <ele>141</ele>
        <time>2019-06-09T10:46:42Z</time>
      </trkpt>
      <trkpt lat="48.90874" lon="1.72451">
        <ele>141</ele>
        <time>2019-06-09T10:46:54Z</time>
      </trkpt>
      <trkpt lat="48.90865" lon="1.72459">
        <ele>142</ele>
        <time>2019-06-09T10:47:00Z</time>
      </trkpt>
      <trkpt lat="48.90857" lon="1.72468">
        <ele>141</ele>
        <time>2019-06-09T10:47:06Z</time>
      </trkpt>
      <trkpt lat="48.90852" lon="1.72481">
        <ele>141</ele>
        <time>2019-06-09T10:47:14Z</time>
      </trkpt>
      <trkpt lat="48.90846" lon="1.72493">
        <ele>141</ele>
        <time>2019-06-09T10:47:20Z</time>
      </trkpt>
      <trkpt lat="48.90841" lon="1.72505">
        <ele>141</ele>
        <time>2019-06-09T10:47:27Z</time>
      </trkpt>
      <trkpt lat="48.90836" lon="1.72517">
        <ele>141</ele>
        <time>2019-06-09T10:47:34Z</time>
      </trkpt>
      <trkpt lat="48.90834" lon="1.72531">
        <ele>141</ele>
        <time>2019-06-09T10:47:42Z</time>
      </trkpt>
      <trkpt lat="48.90836" lon="1.72547">
        <ele>141</ele>
        <time>2019-06-09T10:47:49Z</time>
      </trkpt>
      <trkpt lat="48.90843" lon="1.72557">
        <ele>140</ele>
        <time>2019-06-09T10:47:56Z</time>
      </trkpt>
      <trkpt lat="48.90848" lon="1.72568">
        <ele>140</ele>
        <time>2019-06-09T10:48:02Z</time>
      </trkpt>
      <trkpt lat="48.90854" lon="1.72579">
        <ele>140</ele>
        <time>2019-06-09T10:48:09Z</time>
      </trkpt>
      <trkpt lat="48.9086" lon="1.72592">
        <ele>139</ele>
        <time>2019-06-09T10:48:17Z</time>
      </trkpt>
      <trkpt lat="48.90867" lon="1.72602">
        <ele>139</ele>
        <time>2019-06-09T10:48:24Z</time>
      </trkpt>
      <trkpt lat="48.90874" lon="1.72612">
        <ele>139</ele>
        <time>2019-06-09T10:48:31Z</time>
      </trkpt>
      <trkpt lat="48.90881" lon="1.72621">
        <ele>139</ele>
        <time>2019-06-09T10:48:40Z</time>
      </trkpt>
      <trkpt lat="48.90886" lon="1.72634">
        <ele>139</ele>
        <time>2019-06-09T10:48:48Z</time>
      </trkpt>
      <trkpt lat="48.90893" lon="1.72645">
        <ele>139</ele>
        <time>2019-06-09T10:48:56Z</time>
      </trkpt>
      <trkpt lat="48.90899" lon="1.72657">
        <ele>139</ele>
        <time>2019-06-09T10:49:03Z</time>
      </trkpt>
      <trkpt lat="48.90907" lon="1.72666">
        <ele>138</ele>
        <time>2019-06-09T10:49:10Z</time>
      </trkpt>
      <trkpt lat="48.90915" lon="1.72675">
        <ele>138</ele>
        <time>2019-06-09T10:49:18Z</time>
      </trkpt>
      <trkpt lat="48.90923" lon="1.72684">
        <ele>138</ele>
        <time>2019-06-09T10:49:24Z</time>
      </trkpt>
      <trkpt lat="48.9093" lon="1.72692">
        <ele>138</ele>
        <time>2019-06-09T10:49:31Z</time>
      </trkpt>
      <trkpt lat="48.90939" lon="1.727">
        <ele>138</ele>
        <time>2019-06-09T10:49:38Z</time>
      </trkpt>
      <trkpt lat="48.90946" lon="1.7271">
        <ele>137</ele>
        <time>2019-06-09T10:49:48Z</time>
      </trkpt>
      <trkpt lat="48.90951" lon="1.72722">
        <ele>137</ele>
        <time>2019-06-09T10:49:54Z</time>
      </trkpt>
      <trkpt lat="48.90955" lon="1.72735">
        <ele>137</ele>
        <time>2019-06-09T10:50:02Z</time>
      </trkpt>
      <trkpt lat="48.90958" lon="1.72748">
        <ele>137</ele>
        <time>2019-06-09T10:50:11Z</time>
      </trkpt>
      <trkpt lat="48.90951" lon="1.7276">
        <ele>137</ele>
        <time>2019-06-09T10:50:18Z</time>
      </trkpt>
      <trkpt lat="48.9095" lon="1.72774">
        <ele>136</ele>
        <time>2019-06-09T10:50:24Z</time>
      </trkpt>
      <trkpt lat="48.9095" lon="1.72788">
        <ele>136</ele>
        <time>2019-06-09T10:50:33Z</time>
      </trkpt>
      <trkpt lat="48.90948" lon="1.72802">
        <ele>136</ele>
        <time>2019-06-09T10:50:39Z</time>
      </trkpt>
      <trkpt lat="48.90949" lon="1.72817">
        <ele>136</ele>
        <time>2019-06-09T10:50:50Z</time>
      </trkpt>
      <trkpt lat="48.90954" lon="1.7283">
        <ele>136</ele>
        <time>2019-06-09T10:50:58Z</time>
      </trkpt>
      <trkpt lat="48.90956" lon="1.72844">
        <ele>136</ele>
        <time>2019-06-09T10:51:05Z</time>
      </trkpt>
      <trkpt lat="48.90961" lon="1.72855">
        <ele>135</ele>
        <time>2019-06-09T10:51:11Z</time>
      </trkpt>
      <trkpt lat="48.90969" lon="1.72863">
        <ele>135</ele>
        <time>2019-06-09T10:51:19Z</time>
      </trkpt>
      <trkpt lat="48.90976" lon="1.72871">
        <ele>135</ele>
        <time>2019-06-09T10:51:27Z</time>
      </trkpt>
      <trkpt lat="48.90984" lon="1.72882">
        <ele>135</ele>
        <time>2019-06-09T10:51:36Z</time>
      </trkpt>
      <trkpt lat="48.90992" lon="1.7289">
        <ele>135</ele>
        <time>2019-06-09T10:51:43Z</time>
      </trkpt>
      <trkpt lat="48.90999" lon="1.72902">
        <ele>135</ele>
        <time>2019-06-09T10:51:50Z</time>
      </trkpt>
      <trkpt lat="48.91006" lon="1.72911">
        <ele>135</ele>
        <time>2019-06-09T10:51:57Z</time>
      </trkpt>
      <trkpt lat="48.91013" lon="1.72921">
        <ele>135</ele>
        <time>2019-06-09T10:52:05Z</time>
      </trkpt>
      <trkpt lat="48.91021" lon="1.72927">
        <ele>134</ele>
        <time>2019-06-09T10:52:12Z</time>
      </trkpt>
      <trkpt lat="48.9103" lon="1.72932">
        <ele>134</ele>
        <time>2019-06-09T10:52:20Z</time>
      </trkpt>
      <trkpt lat="48.91039" lon="1.72939">
        <ele>134</ele>
        <time>2019-06-09T10:52:28Z</time>
      </trkpt>
      <trkpt lat="48.91046" lon="1.72949">
        <ele>134</ele>
        <time>2019-06-09T10:52:35Z</time>
      </trkpt>
      <trkpt lat="48.91052" lon="1.7296">
        <ele>134</ele>
        <time>2019-06-09T10:52:44Z</time>
      </trkpt>
      <trkpt lat="48.91057" lon="1.72973">
        <ele>134</ele>
        <time>2019-06-09T10:52:51Z</time>
      </trkpt>
      <trkpt lat="48.91065" lon="1.72983">
        <ele>134</ele>
        <time>2019-06-09T10:52:58Z</time>
      </trkpt>
      <trkpt lat="48.91071" lon="1.72993">
        <ele>133</ele>
        <time>2019-06-09T10:53:04Z</time>
      </trkpt>
      <trkpt lat="48.91077" lon="1.73005">
        <ele>133</ele>
        <time>2019-06-09T10:53:12Z</time>
      </trkpt>
      <trkpt lat="48.91081" lon="1.73017">
        <ele>133</ele>
        <time>2019-06-09T10:53:22Z</time>
      </trkpt>
      <trkpt lat="48.91082" lon="1.73033">
        <ele>133</ele>
        <time>2019-06-09T10:53:29Z</time>
      </trkpt>
      <trkpt lat="48.91082" lon="1.73047">
        <ele>133</ele>
        <time>2019-06-09T10:53:36Z</time>
      </trkpt>
      <trkpt lat="48.91082" lon="1.73061">
        <ele>133</ele>
        <time>2019-06-09T10:53:44Z</time>
      </trkpt>
      <trkpt lat="48.91077" lon="1.73075">
        <ele>132</ele>
        <time>2019-06-09T10:53:54Z</time>
      </trkpt>
      <trkpt lat="48.91073" lon="1.73087">
        <ele>132</ele>
        <time>2019-06-09T10:54:15Z</time>
      </trkpt>
      <trkpt lat="48.91081" lon="1.7308">
        <ele>132</ele>
        <time>2019-06-09T11:18:06Z</time>
      </trkpt>
      <trkpt lat="48.91079" lon="1.73096">
        <ele>132</ele>
        <time>2019-06-09T11:39:07Z</time>
      </trkpt>
      <trkpt lat="48.91083" lon="1.73083">
        <ele>132</ele>
        <time>2019-06-09T11:41:06Z</time>
      </trkpt>
      <trkpt lat="48.91083" lon="1.73069">
        <ele>132</ele>
        <time>2019-06-09T11:41:17Z</time>
      </trkpt>
      <trkpt lat="48.91084" lon="1.73054">
        <ele>133</ele>
        <time>2019-06-09T11:41:27Z</time>
      </trkpt>
      <trkpt lat="48.91083" lon="1.73039">
        <ele>133</ele>
        <time>2019-06-09T11:41:35Z</time>
      </trkpt>
      <trkpt lat="48.91082" lon="1.73025">
        <ele>133</ele>
        <time>2019-06-09T11:41:43Z</time>
      </trkpt>
      <trkpt lat="48.91079" lon="1.73012">
        <ele>133</ele>
        <time>2019-06-09T11:41:51Z</time>
      </trkpt>
      <trkpt lat="48.91075" lon="1.72998">
        <ele>133</ele>
        <time>2019-06-09T11:42:01Z</time>
      </trkpt>
      <trkpt lat="48.91073" lon="1.72982">
        <ele>134</ele>
        <time>2019-06-09T11:42:09Z</time>
      </trkpt>
      <trkpt lat="48.91079" lon="1.7297">
        <ele>134</ele>
        <time>2019-06-09T11:42:28Z</time>
      </trkpt>
      <trkpt lat="48.91085" lon="1.72958">
        <ele>133</ele>
        <time>2019-06-09T11:42:36Z</time>
      </trkpt>
      <trkpt lat="48.91091" lon="1.72945">
        <ele>133</ele>
        <time>2019-06-09T11:42:44Z</time>
      </trkpt>
      <trkpt lat="48.91096" lon="1.72933">
        <ele>133</ele>
        <time>2019-06-09T11:42:52Z</time>
      </trkpt>
      <trkpt lat="48.91101" lon="1.7292">
        <ele>133</ele>
        <time>2019-06-09T11:43:00Z</time>
      </trkpt>
      <trkpt lat="48.91108" lon="1.72909">
        <ele>134</ele>
        <time>2019-06-09T11:43:08Z</time>
      </trkpt>
      <trkpt lat="48.91112" lon="1.72897">
        <ele>134</ele>
        <time>2019-06-09T11:43:16Z</time>
      </trkpt>
      <trkpt lat="48.91118" lon="1.72884">
        <ele>134</ele>
        <time>2019-06-09T11:43:24Z</time>
      </trkpt>
      <trkpt lat="48.91123" lon="1.72873">
        <ele>134</ele>
        <time>2019-06-09T11:43:30Z</time>
      </trkpt>
      <trkpt lat="48.91132" lon="1.72863">
        <ele>135</ele>
        <time>2019-06-09T11:43:38Z</time>
      </trkpt>
      <trkpt lat="48.91138" lon="1.72851">
        <ele>135</ele>
        <time>2019-06-09T11:43:47Z</time>
      </trkpt>
      <trkpt lat="48.91145" lon="1.72839">
        <ele>135</ele>
        <time>2019-06-09T11:43:55Z</time>
      </trkpt>
      <trkpt lat="48.9115" lon="1.72827">
        <ele>136</ele>
        <time>2019-06-09T11:44:03Z</time>
      </trkpt>
      <trkpt lat="48.91156" lon="1.72815">
        <ele>136</ele>
        <time>2019-06-09T11:44:11Z</time>
      </trkpt>
      <trkpt lat="48.91164" lon="1.72809">
        <ele>136</ele>
        <time>2019-06-09T11:44:17Z</time>
      </trkpt>
      <trkpt lat="48.9117" lon="1.72796">
        <ele>136</ele>
        <time>2019-06-09T11:44:24Z</time>
      </trkpt>
      <trkpt lat="48.91176" lon="1.72785">
        <ele>136</ele>
        <time>2019-06-09T11:44:31Z</time>
      </trkpt>
      <trkpt lat="48.91181" lon="1.72774">
        <ele>136</ele>
        <time>2019-06-09T11:44:38Z</time>
      </trkpt>
      <trkpt lat="48.91188" lon="1.72763">
        <ele>136</ele>
        <time>2019-06-09T11:44:46Z</time>
      </trkpt>
      <trkpt lat="48.91193" lon="1.72751">
        <ele>136</ele>
        <time>2019-06-09T11:44:53Z</time>
      </trkpt>
      <trkpt lat="48.91199" lon="1.72738">
        <ele>136</ele>
        <time>2019-06-09T11:45:00Z</time>
      </trkpt>
      <trkpt lat="48.91205" lon="1.72725">
        <ele>136</ele>
        <time>2019-06-09T11:45:08Z</time>
      </trkpt>
      <trkpt lat="48.9121" lon="1.72713">
        <ele>136</ele>
        <time>2019-06-09T11:45:14Z</time>
      </trkpt>
      <trkpt lat="48.91214" lon="1.72701">
        <ele>135</ele>
        <time>2019-06-09T11:45:21Z</time>
      </trkpt>
      <trkpt lat="48.91219" lon="1.72689">
        <ele>135</ele>
        <time>2019-06-09T11:45:29Z</time>
      </trkpt>
      <trkpt lat="48.91224" lon="1.72676">
        <ele>135</ele>
        <time>2019-06-09T11:45:37Z</time>
      </trkpt>
      <trkpt lat="48.91228" lon="1.72663">
        <ele>135</ele>
        <time>2019-06-09T11:45:45Z</time>
      </trkpt>
      <trkpt lat="48.91232" lon="1.7265">
        <ele>135</ele>
        <time>2019-06-09T11:45:52Z</time>
      </trkpt>
      <trkpt lat="48.91231" lon="1.72636">
        <ele>136</ele>
        <time>2019-06-09T11:45:59Z</time>
      </trkpt>
      <trkpt lat="48.91231" lon="1.7262">
        <ele>136</ele>
        <time>2019-06-09T11:46:07Z</time>
      </trkpt>
      <trkpt lat="48.91231" lon="1.72606">
        <ele>136</ele>
        <time>2019-06-09T11:46:14Z</time>
      </trkpt>
      <trkpt lat="48.91231" lon="1.72592">
        <ele>136</ele>
        <time>2019-06-09T11:46:21Z</time>
      </trkpt>
      <trkpt lat="48.91232" lon="1.72577">
        <ele>137</ele>
        <time>2019-06-09T11:46:29Z</time>
      </trkpt>
      <trkpt lat="48.91231" lon="1.72562">
        <ele>137</ele>
        <time>2019-06-09T11:46:35Z</time>
      </trkpt>
      <trkpt lat="48.91231" lon="1.72547">
        <ele>137</ele>
        <time>2019-06-09T11:46:43Z</time>
      </trkpt>
      <trkpt lat="48.9123" lon="1.72532">
        <ele>137</ele>
        <time>2019-06-09T11:46:50Z</time>
      </trkpt>
      <trkpt lat="48.91229" lon="1.72518">
        <ele>137</ele>
        <time>2019-06-09T11:46:57Z</time>
      </trkpt>
      <trkpt lat="48.91229" lon="1.72502">
        <ele>137</ele>
        <time>2019-06-09T11:47:04Z</time>
      </trkpt>
      <trkpt lat="48.91228" lon="1.72488">
        <ele>137</ele>
        <time>2019-06-09T11:47:11Z</time>
      </trkpt>
      <trkpt lat="48.91228" lon="1.72472">
        <ele>137</ele>
        <time>2019-06-09T11:47:19Z</time>
      </trkpt>
      <trkpt lat="48.91227" lon="1.72458">
        <ele>138</ele>
        <time>2019-06-09T11:47:27Z</time>
      </trkpt>
      <trkpt lat="48.91225" lon="1.72443">
        <ele>138</ele>
        <time>2019-06-09T11:47:35Z</time>
      </trkpt>
      <trkpt lat="48.91225" lon="1.72427">
        <ele>138</ele>
        <time>2019-06-09T11:47:43Z</time>
      </trkpt>
      <trkpt lat="48.91224" lon="1.72413">
        <ele>138</ele>
        <time>2019-06-09T11:47:50Z</time>
      </trkpt>
      <trkpt lat="48.91223" lon="1.72397">
        <ele>138</ele>
        <time>2019-06-09T11:47:57Z</time>
      </trkpt>
      <trkpt lat="48.91222" lon="1.72381">
        <ele>138</ele>
        <time>2019-06-09T11:48:05Z</time>
      </trkpt>
      <trkpt lat="48.91222" lon="1.72367">
        <ele>138</ele>
        <time>2019-06-09T11:48:13Z</time>
      </trkpt>
      <trkpt lat="48.9122" lon="1.72352">
        <ele>138</ele>
        <time>2019-06-09T11:48:21Z</time>
      </trkpt>
      <trkpt lat="48.9122" lon="1.72338">
        <ele>138</ele>
        <time>2019-06-09T11:48:27Z</time>
      </trkpt>
      <trkpt lat="48.9122" lon="1.72323">
        <ele>138</ele>
        <time>2019-06-09T11:48:34Z</time>
      </trkpt>
      <trkpt lat="48.9122" lon="1.72307">
        <ele>138</ele>
        <time>2019-06-09T11:48:42Z</time>
      </trkpt>
      <trkpt lat="48.91218" lon="1.72292">
        <ele>138</ele>
        <time>2019-06-09T11:48:49Z</time>
      </trkpt>
      <trkpt lat="48.91217" lon="1.72278">
        <ele>138</ele>
        <time>2019-06-09T11:48:55Z</time>
      </trkpt>
      <trkpt lat="48.91216" lon="1.72264">
        <ele>138</ele>
        <time>2019-06-09T11:49:02Z</time>
      </trkpt>
      <trkpt lat="48.91214" lon="1.72249">
        <ele>139</ele>
        <time>2019-06-09T11:49:10Z</time>
      </trkpt>
      <trkpt lat="48.91213" lon="1.72235">
        <ele>139</ele>
        <time>2019-06-09T11:49:18Z</time>
      </trkpt>
      <trkpt lat="48.91211" lon="1.72221">
        <ele>139</ele>
        <time>2019-06-09T11:49:25Z</time>
      </trkpt>
      <trkpt lat="48.9121" lon="1.72206">
        <ele>139</ele>
        <time>2019-06-09T11:49:32Z</time>
      </trkpt>
      <trkpt lat="48.9121" lon="1.72191">
        <ele>139</ele>
        <time>2019-06-09T11:49:40Z</time>
      </trkpt>
      <trkpt lat="48.91209" lon="1.72176">
        <ele>139</ele>
        <time>2019-06-09T11:49:47Z</time>
      </trkpt>
      <trkpt lat="48.91209" lon="1.72162">
        <ele>140</ele>
        <time>2019-06-09T11:49:54Z</time>
      </trkpt>
      <trkpt lat="48.91209" lon="1.72147">
        <ele>140</ele>
        <time>2019-06-09T11:50:01Z</time>
      </trkpt>
      <trkpt lat="48.91208" lon="1.72131">
        <ele>140</ele>
        <time>2019-06-09T11:50:09Z</time>
      </trkpt>
      <trkpt lat="48.91207" lon="1.72117">
        <ele>140</ele>
        <time>2019-06-09T11:50:15Z</time>
      </trkpt>
      <trkpt lat="48.91206" lon="1.72102">
        <ele>140</ele>
        <time>2019-06-09T11:50:24Z</time>
      </trkpt>
      <trkpt lat="48.91206" lon="1.72086">
        <ele>140</ele>
        <time>2019-06-09T11:50:32Z</time>
      </trkpt>
      <trkpt lat="48.91205" lon="1.72072">
        <ele>140</ele>
        <time>2019-06-09T11:50:40Z</time>
      </trkpt>
      <trkpt lat="48.91204" lon="1.72058">
        <ele>140</ele>
        <time>2019-06-09T11:50:47Z</time>
      </trkpt>
      <trkpt lat="48.91204" lon="1.72043">
        <ele>140</ele>
        <time>2019-06-09T11:50:54Z</time>
      </trkpt>
      <trkpt lat="48.91205" lon="1.72029">
        <ele>140</ele>
        <time>2019-06-09T11:51:03Z</time>
      </trkpt>
      <trkpt lat="48.91195" lon="1.72026">
        <ele>140</ele>
        <time>2019-06-09T11:51:13Z</time>
      </trkpt>
      <trkpt lat="48.91186" lon="1.72033">
        <ele>140</ele>
        <time>2019-06-09T11:51:20Z</time>
      </trkpt>
      <trkpt lat="48.91178" lon="1.72041">
        <ele>140</ele>
        <time>2019-06-09T11:51:27Z</time>
      </trkpt>
      <trkpt lat="48.91171" lon="1.72049">
        <ele>140</ele>
        <time>2019-06-09T11:51:34Z</time>
      </trkpt>
      <trkpt lat="48.91164" lon="1.72057">
        <ele>140</ele>
        <time>2019-06-09T11:51:42Z</time>
      </trkpt>
      <trkpt lat="48.91155" lon="1.72065">
        <ele>140</ele>
        <time>2019-06-09T11:51:49Z</time>
      </trkpt>
      <trkpt lat="48.91148" lon="1.72074">
        <ele>140</ele>
        <time>2019-06-09T11:51:56Z</time>
      </trkpt>
      <trkpt lat="48.9114" lon="1.72082">
        <ele>140</ele>
        <time>2019-06-09T11:52:04Z</time>
      </trkpt>
      <trkpt lat="48.91131" lon="1.72089">
        <ele>140</ele>
        <time>2019-06-09T11:52:10Z</time>
      </trkpt>
      <trkpt lat="48.91122" lon="1.72097">
        <ele>139</ele>
        <time>2019-06-09T11:52:18Z</time>
      </trkpt>
      <trkpt lat="48.91115" lon="1.72105">
        <ele>139</ele>
        <time>2019-06-09T11:52:25Z</time>
      </trkpt>
      <trkpt lat="48.91106" lon="1.72111">
        <ele>139</ele>
        <time>2019-06-09T11:52:32Z</time>
      </trkpt>
      <trkpt lat="48.91097" lon="1.72113">
        <ele>139</ele>
        <time>2019-06-09T11:52:46Z</time>
      </trkpt>
      <trkpt lat="48.91089" lon="1.72104">
        <ele>139</ele>
        <time>2019-06-09T11:52:55Z</time>
      </trkpt>
      <trkpt lat="48.91082" lon="1.72095">
        <ele>139</ele>
        <time>2019-06-09T11:53:03Z</time>
      </trkpt>
      <trkpt lat="48.91074" lon="1.72085">
        <ele>139</ele>
        <time>2019-06-09T11:53:11Z</time>
      </trkpt>
      <trkpt lat="48.91065" lon="1.72078">
        <ele>139</ele>
        <time>2019-06-09T11:53:18Z</time>
      </trkpt>
      <trkpt lat="48.91057" lon="1.72071">
        <ele>139</ele>
        <time>2019-06-09T11:53:25Z</time>
      </trkpt>
      <trkpt lat="48.91049" lon="1.72064">
        <ele>139</ele>
        <time>2019-06-09T11:53:32Z</time>
      </trkpt>
      <trkpt lat="48.91041" lon="1.72056">
        <ele>138</ele>
        <time>2019-06-09T11:53:39Z</time>
      </trkpt>
      <trkpt lat="48.91033" lon="1.72048">
        <ele>138</ele>
        <time>2019-06-09T11:53:46Z</time>
      </trkpt>
      <trkpt lat="48.91025" lon="1.7204">
        <ele>138</ele>
        <time>2019-06-09T11:53:53Z</time>
      </trkpt>
      <trkpt lat="48.91017" lon="1.72032">
        <ele>138</ele>
        <time>2019-06-09T11:54:00Z</time>
      </trkpt>
      <trkpt lat="48.91009" lon="1.72023">
        <ele>138</ele>
        <time>2019-06-09T11:54:07Z</time>
      </trkpt>
      <trkpt lat="48.91" lon="1.72013">
        <ele>138</ele>
        <time>2019-06-09T11:54:16Z</time>
      </trkpt>
      <trkpt lat="48.90993" lon="1.72005">
        <ele>138</ele>
        <time>2019-06-09T11:54:22Z</time>
      </trkpt>
      <trkpt lat="48.90984" lon="1.71999">
        <ele>137</ele>
        <time>2019-06-09T11:54:28Z</time>
      </trkpt>
      <trkpt lat="48.90975" lon="1.71994">
        <ele>137</ele>
        <time>2019-06-09T11:54:35Z</time>
      </trkpt>
      <trkpt lat="48.90976" lon="1.71979">
        <ele>137</ele>
        <time>2019-06-09T11:54:48Z</time>
      </trkpt>
      <trkpt lat="48.9098" lon="1.71965">
        <ele>137</ele>
        <time>2019-06-09T11:54:56Z</time>
      </trkpt>
      <trkpt lat="48.90985" lon="1.71951">
        <ele>137</ele>
        <time>2019-06-09T11:55:03Z</time>
      </trkpt>
      <trkpt lat="48.90985" lon="1.71936">
        <ele>137</ele>
        <time>2019-06-09T11:55:11Z</time>
      </trkpt>
      <trkpt lat="48.90988" lon="1.71923">
        <ele>137</ele>
        <time>2019-06-09T11:55:18Z</time>
      </trkpt>
      <trkpt lat="48.90991" lon="1.7191">
        <ele>137</ele>
        <time>2019-06-09T11:55:25Z</time>
      </trkpt>
      <trkpt lat="48.90994" lon="1.71897">
        <ele>137</ele>
        <time>2019-06-09T11:55:31Z</time>
      </trkpt>
      <trkpt lat="48.90997" lon="1.71882">
        <ele>137</ele>
        <time>2019-06-09T11:55:39Z</time>
      </trkpt>
      <trkpt lat="48.91" lon="1.71868">
        <ele>137</ele>
        <time>2019-06-09T11:55:45Z</time>
      </trkpt>
      <trkpt lat="48.91003" lon="1.71854">
        <ele>138</ele>
        <time>2019-06-09T11:55:53Z</time>
      </trkpt>
      <trkpt lat="48.91004" lon="1.71838">
        <ele>137</ele>
        <time>2019-06-09T11:56:00Z</time>
      </trkpt>
      <trkpt lat="48.91007" lon="1.71824">
        <ele>137</ele>
        <time>2019-06-09T11:56:08Z</time>
      </trkpt>
      <trkpt lat="48.91011" lon="1.71809">
        <ele>137</ele>
        <time>2019-06-09T11:56:15Z</time>
      </trkpt>
      <trkpt lat="48.91012" lon="1.71795">
        <ele>137</ele>
        <time>2019-06-09T11:56:22Z</time>
      </trkpt>
      <trkpt lat="48.91015" lon="1.71781">
        <ele>137</ele>
        <time>2019-06-09T11:56:29Z</time>
      </trkpt>
      <trkpt lat="48.91018" lon="1.71767">
        <ele>137</ele>
        <time>2019-06-09T11:56:35Z</time>
      </trkpt>
      <trkpt lat="48.91021" lon="1.71754">
        <ele>136</ele>
        <time>2019-06-09T11:56:42Z</time>
      </trkpt>
      <trkpt lat="48.91023" lon="1.7174">
        <ele>136</ele>
        <time>2019-06-09T11:56:50Z</time>
      </trkpt>
      <trkpt lat="48.91026" lon="1.71726">
        <ele>136</ele>
        <time>2019-06-09T11:56:58Z</time>
      </trkpt>
      <trkpt lat="48.91028" lon="1.71713">
        <ele>136</ele>
        <time>2019-06-09T11:57:04Z</time>
      </trkpt>
      <trkpt lat="48.9103" lon="1.71699">
        <ele>136</ele>
        <time>2019-06-09T11:57:11Z</time>
      </trkpt>
      <trkpt lat="48.91033" lon="1.71685">
        <ele>136</ele>
        <time>2019-06-09T11:57:19Z</time>
      </trkpt>
      <trkpt lat="48.91037" lon="1.71671">
        <ele>136</ele>
        <time>2019-06-09T11:57:25Z</time>
      </trkpt>
      <trkpt lat="48.9104" lon="1.71655">
        <ele>136</ele>
        <time>2019-06-09T11:57:32Z</time>
      </trkpt>
      <trkpt lat="48.91041" lon="1.71641">
        <ele>136</ele>
        <time>2019-06-09T11:57:40Z</time>
      </trkpt>
      <trkpt lat="48.91043" lon="1.71627">
        <ele>136</ele>
        <time>2019-06-09T11:57:47Z</time>
      </trkpt>
      <trkpt lat="48.91045" lon="1.71612">
        <ele>136</ele>
        <time>2019-06-09T11:57:54Z</time>
      </trkpt>
      <trkpt lat="48.91048" lon="1.71596">
        <ele>136</ele>
        <time>2019-06-09T11:58:02Z</time>
      </trkpt>
      <trkpt lat="48.9105" lon="1.71582">
        <ele>137</ele>
        <time>2019-06-09T11:58:10Z</time>
      </trkpt>
      <trkpt lat="48.91053" lon="1.71568">
        <ele>137</ele>
        <time>2019-06-09T11:58:16Z</time>
      </trkpt>
      <trkpt lat="48.91054" lon="1.71554">
        <ele>138</ele>
        <time>2019-06-09T11:58:23Z</time>
      </trkpt>
      <trkpt lat="48.91055" lon="1.7154">
        <ele>138</ele>
        <time>2019-06-09T11:58:30Z</time>
      </trkpt>
      <trkpt lat="48.91058" lon="1.71526">
        <ele>138</ele>
        <time>2019-06-09T11:58:36Z</time>
      </trkpt>
      <trkpt lat="48.91063" lon="1.71514">
        <ele>138</ele>
        <time>2019-06-09T11:58:43Z</time>
      </trkpt>
      <trkpt lat="48.91068" lon="1.71503">
        <ele>138</ele>
        <time>2019-06-09T11:58:50Z</time>
      </trkpt>
      <trkpt lat="48.91072" lon="1.71489">
        <ele>139</ele>
        <time>2019-06-09T11:58:58Z</time>
      </trkpt>
      <trkpt lat="48.91082" lon="1.71493">
        <ele>139</ele>
        <time>2019-06-09T11:59:06Z</time>
      </trkpt>
      <trkpt lat="48.91091" lon="1.71499">
        <ele>139</ele>
        <time>2019-06-09T11:59:13Z</time>
      </trkpt>
      <trkpt lat="48.911" lon="1.71501">
        <ele>138</ele>
        <time>2019-06-09T11:59:20Z</time>
      </trkpt>
      <trkpt lat="48.91107" lon="1.71492">
        <ele>138</ele>
        <time>2019-06-09T11:59:38Z</time>
      </trkpt>
      <trkpt lat="48.91107" lon="1.71478">
        <ele>138</ele>
        <time>2019-06-09T11:59:47Z</time>
      </trkpt>
      <trkpt lat="48.91106" lon="1.71463">
        <ele>138</ele>
        <time>2019-06-09T11:59:57Z</time>
      </trkpt>
      <trkpt lat="48.91105" lon="1.71448">
        <ele>138</ele>
        <time>2019-06-09T12:00:03Z</time>
      </trkpt>
      <trkpt lat="48.91103" lon="1.71435">
        <ele>138</ele>
        <time>2019-06-09T12:00:08Z</time>
      </trkpt>
      <trkpt lat="48.91102" lon="1.71419">
        <ele>139</ele>
        <time>2019-06-09T12:00:16Z</time>
      </trkpt>
      <trkpt lat="48.91101" lon="1.71403">
        <ele>138</ele>
        <time>2019-06-09T12:00:25Z</time>
      </trkpt>
      <trkpt lat="48.911" lon="1.71388">
        <ele>138</ele>
        <time>2019-06-09T12:00:32Z</time>
      </trkpt>
      <trkpt lat="48.911" lon="1.71373">
        <ele>138</ele>
        <time>2019-06-09T12:00:40Z</time>
      </trkpt>
      <trkpt lat="48.911" lon="1.71358">
        <ele>137</ele>
        <time>2019-06-09T12:00:48Z</time>
      </trkpt>
      <trkpt lat="48.911" lon="1.71344">
        <ele>137</ele>
        <time>2019-06-09T12:00:56Z</time>
      </trkpt>
      <trkpt lat="48.91101" lon="1.7133">
        <ele>137</ele>
        <time>2019-06-09T12:01:02Z</time>
      </trkpt>
      <trkpt lat="48.91103" lon="1.71315">
        <ele>137</ele>
        <time>2019-06-09T12:01:13Z</time>
      </trkpt>
      <trkpt lat="48.91104" lon="1.713">
        <ele>137</ele>
        <time>2019-06-09T12:01:21Z</time>
      </trkpt>
      <trkpt lat="48.91106" lon="1.71285">
        <ele>137</ele>
        <time>2019-06-09T12:01:29Z</time>
      </trkpt>
      <trkpt lat="48.91103" lon="1.71271">
        <ele>137</ele>
        <time>2019-06-09T12:01:38Z</time>
      </trkpt>
      <trkpt lat="48.91103" lon="1.71257">
        <ele>137</ele>
        <time>2019-06-09T12:01:44Z</time>
      </trkpt>
      <trkpt lat="48.91098" lon="1.71242">
        <ele>136</ele>
        <time>2019-06-09T12:01:54Z</time>
      </trkpt>
      <trkpt lat="48.91095" lon="1.71228">
        <ele>136</ele>
        <time>2019-06-09T12:02:01Z</time>
      </trkpt>
      <trkpt lat="48.91092" lon="1.71215">
        <ele>136</ele>
        <time>2019-06-09T12:02:08Z</time>
      </trkpt>
      <trkpt lat="48.9109" lon="1.712">
        <ele>136</ele>
        <time>2019-06-09T12:02:17Z</time>
      </trkpt>
      <trkpt lat="48.91087" lon="1.71187">
        <ele>135</ele>
        <time>2019-06-09T12:02:22Z</time>
      </trkpt>
      <trkpt lat="48.91082" lon="1.71174">
        <ele>135</ele>
        <time>2019-06-09T12:02:28Z</time>
      </trkpt>
      <trkpt lat="48.91076" lon="1.71163">
        <ele>134</ele>
        <time>2019-06-09T12:02:35Z</time>
      </trkpt>
      <trkpt lat="48.91073" lon="1.7115">
        <ele>133</ele>
        <time>2019-06-09T12:02:40Z</time>
      </trkpt>
      <trkpt lat="48.9107" lon="1.71136">
        <ele>132</ele>
        <time>2019-06-09T12:02:46Z</time>
      </trkpt>
      <trkpt lat="48.91067" lon="1.71122">
        <ele>131</ele>
        <time>2019-06-09T12:02:52Z</time>
      </trkpt>
      <trkpt lat="48.91065" lon="1.71107">
        <ele>131</ele>
        <time>2019-06-09T12:02:58Z</time>
      </trkpt>
      <trkpt lat="48.91065" lon="1.71092">
        <ele>131</ele>
        <time>2019-06-09T12:03:07Z</time>
      </trkpt>
      <trkpt lat="48.91062" lon="1.71078">
        <ele>128</ele>
        <time>2019-06-09T12:03:15Z</time>
      </trkpt>
      <trkpt lat="48.91059" lon="1.71064">
        <ele>128</ele>
        <time>2019-06-09T12:03:22Z</time>
      </trkpt>
      <trkpt lat="48.91059" lon="1.7105">
        <ele>127</ele>
        <time>2019-06-09T12:03:30Z</time>
      </trkpt>
      <trkpt lat="48.91055" lon="1.71037">
        <ele>127</ele>
        <time>2019-06-09T12:03:36Z</time>
      </trkpt>
      <trkpt lat="48.91054" lon="1.71023">
        <ele>127</ele>
        <time>2019-06-09T12:03:43Z</time>
      </trkpt>
      <trkpt lat="48.91055" lon="1.71008">
        <ele>127</ele>
        <time>2019-06-09T12:03:48Z</time>
      </trkpt>
      <trkpt lat="48.91054" lon="1.70993">
        <ele>125</ele>
        <time>2019-06-09T12:03:55Z</time>
      </trkpt>
      <trkpt lat="48.91054" lon="1.70977">
        <ele>125</ele>
        <time>2019-06-09T12:04:01Z</time>
      </trkpt>
      <trkpt lat="48.91057" lon="1.70964">
        <ele>125</ele>
        <time>2019-06-09T12:04:10Z</time>
      </trkpt>
      <trkpt lat="48.9106" lon="1.70949">
        <ele>124</ele>
        <time>2019-06-09T12:04:18Z</time>
      </trkpt>
      <trkpt lat="48.91061" lon="1.70935">
        <ele>124</ele>
        <time>2019-06-09T12:04:25Z</time>
      </trkpt>
      <trkpt lat="48.91064" lon="1.7092">
        <ele>124</ele>
        <time>2019-06-09T12:04:33Z</time>
      </trkpt>
      <trkpt lat="48.91068" lon="1.70905">
        <ele>123</ele>
        <time>2019-06-09T12:04:40Z</time>
      </trkpt>
      <trkpt lat="48.91072" lon="1.70893">
        <ele>123</ele>
        <time>2019-06-09T12:04:50Z</time>
      </trkpt>
      <trkpt lat="48.9108" lon="1.70882">
        <ele>123</ele>
        <time>2019-06-09T12:04:57Z</time>
      </trkpt>
      <trkpt lat="48.91088" lon="1.70874">
        <ele>124</ele>
        <time>2019-06-09T12:05:03Z</time>
      </trkpt>
      <trkpt lat="48.91095" lon="1.70863">
        <ele>124</ele>
        <time>2019-06-09T12:05:09Z</time>
      </trkpt>
      <trkpt lat="48.91101" lon="1.70851">
        <ele>124</ele>
        <time>2019-06-09T12:05:16Z</time>
      </trkpt>
      <trkpt lat="48.91104" lon="1.70836">
        <ele>124</ele>
        <time>2019-06-09T12:05:23Z</time>
      </trkpt>
      <trkpt lat="48.91106" lon="1.70822">
        <ele>124</ele>
        <time>2019-06-09T12:05:31Z</time>
      </trkpt>
      <trkpt lat="48.91108" lon="1.70808">
        <ele>124</ele>
        <time>2019-06-09T12:05:37Z</time>
      </trkpt>
      <trkpt lat="48.9111" lon="1.70793">
        <ele>124</ele>
        <time>2019-06-09T12:05:44Z</time>
      </trkpt>
      <trkpt lat="48.91109" lon="1.70779">
        <ele>124</ele>
        <time>2019-06-09T12:05:51Z</time>
      </trkpt>
      <trkpt lat="48.91111" lon="1.70765">
        <ele>124</ele>
        <time>2019-06-09T12:05:59Z</time>
      </trkpt>
      <trkpt lat="48.91114" lon="1.70752">
        <ele>124</ele>
        <time>2019-06-09T12:06:05Z</time>
      </trkpt>
      <trkpt lat="48.91118" lon="1.70739">
        <ele>123</ele>
        <time>2019-06-09T12:06:13Z</time>
      </trkpt>
      <trkpt lat="48.91124" lon="1.70728">
        <ele>123</ele>
        <time>2019-06-09T12:06:22Z</time>
      </trkpt>
      <trkpt lat="48.91124" lon="1.70713">
        <ele>123</ele>
        <time>2019-06-09T12:06:33Z</time>
      </trkpt>
      <trkpt lat="48.91124" lon="1.70697">
        <ele>123</ele>
        <time>2019-06-09T12:06:40Z</time>
      </trkpt>
      <trkpt lat="48.91128" lon="1.70685">
        <ele>122</ele>
        <time>2019-06-09T12:06:51Z</time>
      </trkpt>
      <trkpt lat="48.91131" lon="1.70671">
        <ele>122</ele>
        <time>2019-06-09T12:07:41Z</time>
      </trkpt>
      <trkpt lat="48.91136" lon="1.70658">
        <ele>121</ele>
        <time>2019-06-09T12:07:51Z</time>
      </trkpt>
      <trkpt lat="48.91134" lon="1.70644">
        <ele>121</ele>
        <time>2019-06-09T12:07:58Z</time>
      </trkpt>
      <trkpt lat="48.91135" lon="1.70629">
        <ele>121</ele>
        <time>2019-06-09T12:08:08Z</time>
      </trkpt>
      <trkpt lat="48.91135" lon="1.70614">
        <ele>121</ele>
        <time>2019-06-09T12:08:17Z</time>
      </trkpt>
      <trkpt lat="48.91134" lon="1.70599">
        <ele>120</ele>
        <time>2019-06-09T12:08:23Z</time>
      </trkpt>
      <trkpt lat="48.91133" lon="1.70585">
        <ele>120</ele>
        <time>2019-06-09T12:08:30Z</time>
      </trkpt>
      <trkpt lat="48.91133" lon="1.7057">
        <ele>120</ele>
        <time>2019-06-09T12:08:39Z</time>
      </trkpt>
      <trkpt lat="48.91134" lon="1.70555">
        <ele>120</ele>
        <time>2019-06-09T12:08:47Z</time>
      </trkpt>
      <trkpt lat="48.91135" lon="1.7054">
        <ele>120</ele>
        <time>2019-06-09T12:08:55Z</time>
      </trkpt>
      <trkpt lat="48.91136" lon="1.70527">
        <ele>120</ele>
        <time>2019-06-09T12:09:02Z</time>
      </trkpt>
      <trkpt lat="48.91137" lon="1.70512">
        <ele>120</ele>
        <time>2019-06-09T12:09:10Z</time>
      </trkpt>
      <trkpt lat="48.91139" lon="1.70498">
        <ele>119</ele>
        <time>2019-06-09T12:09:18Z</time>
      </trkpt>
      <trkpt lat="48.91141" lon="1.70485">
        <ele>119</ele>
        <time>2019-06-09T12:09:25Z</time>
      </trkpt>
      <trkpt lat="48.91143" lon="1.7047">
        <ele>119</ele>
        <time>2019-06-09T12:09:31Z</time>
      </trkpt>
      <trkpt lat="48.91147" lon="1.70456">
        <ele>119</ele>
        <time>2019-06-09T12:09:39Z</time>
      </trkpt>
      <trkpt lat="48.9115" lon="1.70442">
        <ele>119</ele>
        <time>2019-06-09T12:09:47Z</time>
      </trkpt>
      <trkpt lat="48.91153" lon="1.70429">
        <ele>119</ele>
        <time>2019-06-09T12:09:55Z</time>
      </trkpt>
      <trkpt lat="48.91155" lon="1.70415">
        <ele>118</ele>
        <time>2019-06-09T12:10:02Z</time>
      </trkpt>
      <trkpt lat="48.9116" lon="1.70403">
        <ele>118</ele>
        <time>2019-06-09T12:10:09Z</time>
      </trkpt>
      <trkpt lat="48.91165" lon="1.7039">
        <ele>118</ele>
        <time>2019-06-09T12:10:16Z</time>
      </trkpt>
      <trkpt lat="48.91169" lon="1.70377">
        <ele>119</ele>
        <time>2019-06-09T12:10:24Z</time>
      </trkpt>
      <trkpt lat="48.91173" lon="1.70365">
        <ele>119</ele>
        <time>2019-06-09T12:10:32Z</time>
      </trkpt>
      <trkpt lat="48.91177" lon="1.7035">
        <ele>119</ele>
        <time>2019-06-09T12:10:39Z</time>
      </trkpt>
      <trkpt lat="48.91182" lon="1.70339">
        <ele>119</ele>
        <time>2019-06-09T12:10:46Z</time>
      </trkpt>
      <trkpt lat="48.91187" lon="1.70326">
        <ele>118</ele>
        <time>2019-06-09T12:10:54Z</time>
      </trkpt>
      <trkpt lat="48.91192" lon="1.70314">
        <ele>118</ele>
        <time>2019-06-09T12:11:01Z</time>
      </trkpt>
      <trkpt lat="48.91198" lon="1.70301">
        <ele>118</ele>
        <time>2019-06-09T12:11:09Z</time>
      </trkpt>
      <trkpt lat="48.91204" lon="1.70289">
        <ele>118</ele>
        <time>2019-06-09T12:11:16Z</time>
      </trkpt>
      <trkpt lat="48.91209" lon="1.70277">
        <ele>118</ele>
        <time>2019-06-09T12:11:24Z</time>
      </trkpt>
      <trkpt lat="48.91217" lon="1.70266">
        <ele>118</ele>
        <time>2019-06-09T12:11:32Z</time>
      </trkpt>
      <trkpt lat="48.91224" lon="1.70258">
        <ele>118</ele>
        <time>2019-06-09T12:11:39Z</time>
      </trkpt>
      <trkpt lat="48.91231" lon="1.70248">
        <ele>117</ele>
        <time>2019-06-09T12:11:47Z</time>
      </trkpt>
      <trkpt lat="48.91239" lon="1.70239">
        <ele>117</ele>
        <time>2019-06-09T12:11:53Z</time>
      </trkpt>
      <trkpt lat="48.91245" lon="1.70228">
        <ele>116</ele>
        <time>2019-06-09T12:12:00Z</time>
      </trkpt>
      <trkpt lat="48.91251" lon="1.70216">
        <ele>118</ele>
        <time>2019-06-09T12:12:08Z</time>
      </trkpt>
      <trkpt lat="48.91257" lon="1.70205">
        <ele>118</ele>
        <time>2019-06-09T12:12:15Z</time>
      </trkpt>
      <trkpt lat="48.91263" lon="1.70193">
        <ele>118</ele>
        <time>2019-06-09T12:12:23Z</time>
      </trkpt>
      <trkpt lat="48.91268" lon="1.70181">
        <ele>118</ele>
        <time>2019-06-09T12:12:30Z</time>
      </trkpt>
      <trkpt lat="48.91273" lon="1.70168">
        <ele>118</ele>
        <time>2019-06-09T12:12:37Z</time>
      </trkpt>
      <trkpt lat="48.91278" lon="1.70155">
        <ele>117</ele>
        <time>2019-06-09T12:12:45Z</time>
      </trkpt>
      <trkpt lat="48.91283" lon="1.70143">
        <ele>117</ele>
        <time>2019-06-09T12:12:55Z</time>
      </trkpt>
      <trkpt lat="48.9129" lon="1.70131">
        <ele>117</ele>
        <time>2019-06-09T12:13:01Z</time>
      </trkpt>
      <trkpt lat="48.91296" lon="1.7012">
        <ele>117</ele>
        <time>2019-06-09T12:13:10Z</time>
      </trkpt>
      <trkpt lat="48.91297" lon="1.70106">
        <ele>117</ele>
        <time>2019-06-09T12:13:21Z</time>
      </trkpt>
      <trkpt lat="48.91304" lon="1.70096">
        <ele>117</ele>
        <time>2019-06-09T12:14:56Z</time>
      </trkpt>
      <trkpt lat="48.91312" lon="1.70087">
        <ele>118</ele>
        <time>2019-06-09T12:15:05Z</time>
      </trkpt>
      <trkpt lat="48.9132" lon="1.70078">
        <ele>116</ele>
        <time>2019-06-09T12:15:15Z</time>
      </trkpt>
      <trkpt lat="48.91327" lon="1.70069">
        <ele>115</ele>
        <time>2019-06-09T12:15:22Z</time>
      </trkpt>
      <trkpt lat="48.91333" lon="1.70059">
        <ele>114</ele>
        <time>2019-06-09T12:15:29Z</time>
      </trkpt>
      <trkpt lat="48.91342" lon="1.70052">
        <ele>118</ele>
        <time>2019-06-09T12:15:36Z</time>
      </trkpt>
      <trkpt lat="48.91348" lon="1.70041">
        <ele>118</ele>
        <time>2019-06-09T12:15:48Z</time>
      </trkpt>
      <trkpt lat="48.91355" lon="1.70031">
        <ele>117</ele>
        <time>2019-06-09T12:15:56Z</time>
      </trkpt>
      <trkpt lat="48.91361" lon="1.7002">
        <ele>117</ele>
        <time>2019-06-09T12:16:00Z</time>
      </trkpt>
      <trkpt lat="48.91366" lon="1.70007">
        <ele>117</ele>
        <time>2019-06-09T12:16:09Z</time>
      </trkpt>
      <trkpt lat="48.91368" lon="1.69993">
        <ele>110</ele>
        <time>2019-06-09T12:16:15Z</time>
      </trkpt>
      <trkpt lat="48.91374" lon="1.69982">
        <ele>110</ele>
        <time>2019-06-09T12:16:22Z</time>
      </trkpt>
      <trkpt lat="48.91383" lon="1.69979">
        <ele>110</ele>
        <time>2019-06-09T12:16:36Z</time>
      </trkpt>
      <trkpt lat="48.91392" lon="1.69975">
        <ele>111</ele>
        <time>2019-06-09T12:16:56Z</time>
      </trkpt>
      <trkpt lat="48.91402" lon="1.69969">
        <ele>111</ele>
        <time>2019-06-09T12:17:11Z</time>
      </trkpt>
      <trkpt lat="48.91411" lon="1.69967">
        <ele>111</ele>
        <time>2019-06-09T12:17:23Z</time>
      </trkpt>
      <trkpt lat="48.9142" lon="1.69958">
        <ele>113</ele>
        <time>2019-06-09T12:17:32Z</time>
      </trkpt>
      <trkpt lat="48.91428" lon="1.69954">
        <ele>112</ele>
        <time>2019-06-09T12:17:38Z</time>
      </trkpt>
      <trkpt lat="48.91438" lon="1.69948">
        <ele>112</ele>
        <time>2019-06-09T12:17:44Z</time>
      </trkpt>
      <trkpt lat="48.91448" lon="1.69944">
        <ele>112</ele>
        <time>2019-06-09T12:17:52Z</time>
      </trkpt>
      <trkpt lat="48.91457" lon="1.69941">
        <ele>112</ele>
        <time>2019-06-09T12:18:05Z</time>
      </trkpt>
      <trkpt lat="48.91467" lon="1.69939">
        <ele>112</ele>
        <time>2019-06-09T12:18:13Z</time>
      </trkpt>
      <trkpt lat="48.91477" lon="1.69935">
        <ele>112</ele>
        <time>2019-06-09T12:18:19Z</time>
      </trkpt>
      <trkpt lat="48.91486" lon="1.6993">
        <ele>111</ele>
        <time>2019-06-09T12:18:45Z</time>
      </trkpt>
      <trkpt lat="48.91493" lon="1.6992">
        <ele>110</ele>
        <time>2019-06-09T12:18:54Z</time>
      </trkpt>
      <trkpt lat="48.91502" lon="1.69913">
        <ele>109</ele>
        <time>2019-06-09T12:19:02Z</time>
      </trkpt>
      <trkpt lat="48.91511" lon="1.69906">
        <ele>108</ele>
        <time>2019-06-09T12:19:09Z</time>
      </trkpt>
      <trkpt lat="48.9152" lon="1.69903">
        <ele>107</ele>
        <time>2019-06-09T12:19:16Z</time>
      </trkpt>
      <trkpt lat="48.9153" lon="1.69897">
        <ele>107</ele>
        <time>2019-06-09T12:19:25Z</time>
      </trkpt>
      <trkpt lat="48.91539" lon="1.69891">
        <ele>107</ele>
        <time>2019-06-09T12:19:32Z</time>
      </trkpt>
      <trkpt lat="48.91547" lon="1.69885">
        <ele>107</ele>
        <time>2019-06-09T12:19:39Z</time>
      </trkpt>
      <trkpt lat="48.91556" lon="1.69879">
        <ele>107</ele>
        <time>2019-06-09T12:19:46Z</time>
      </trkpt>
      <trkpt lat="48.91565" lon="1.69872">
        <ele>106</ele>
        <time>2019-06-09T12:19:53Z</time>
      </trkpt>
      <trkpt lat="48.91574" lon="1.69867">
        <ele>106</ele>
        <time>2019-06-09T12:20:01Z</time>
      </trkpt>
      <trkpt lat="48.91582" lon="1.69876">
        <ele>107</ele>
        <time>2019-06-09T12:20:07Z</time>
      </trkpt>
      <trkpt lat="48.91586" lon="1.69889">
        <ele>108</ele>
        <time>2019-06-09T12:20:14Z</time>
      </trkpt>
      <trkpt lat="48.91588" lon="1.69904">
        <ele>110</ele>
        <time>2019-06-09T12:20:24Z</time>
      </trkpt>
      <trkpt lat="48.91591" lon="1.69919">
        <ele>114</ele>
        <time>2019-06-09T12:20:33Z</time>
      </trkpt>
      <trkpt lat="48.91596" lon="1.69931">
        <ele>115</ele>
        <time>2019-06-09T12:20:45Z</time>
      </trkpt>
      <trkpt lat="48.91594" lon="1.69946">
        <ele>116</ele>
        <time>2019-06-09T12:20:55Z</time>
      </trkpt>
      <trkpt lat="48.91594" lon="1.6996">
        <ele>117</ele>
        <time>2019-06-09T12:21:02Z</time>
      </trkpt>
      <trkpt lat="48.91592" lon="1.69974">
        <ele>118</ele>
        <time>2019-06-09T12:21:09Z</time>
      </trkpt>
      <trkpt lat="48.91594" lon="1.69989">
        <ele>120</ele>
        <time>2019-06-09T12:21:18Z</time>
      </trkpt>
      <trkpt lat="48.91596" lon="1.70004">
        <ele>122</ele>
        <time>2019-06-09T12:21:25Z</time>
      </trkpt>
      <trkpt lat="48.91598" lon="1.70018">
        <ele>122</ele>
        <time>2019-06-09T12:21:32Z</time>
      </trkpt>
      <trkpt lat="48.91602" lon="1.70033">
        <ele>122</ele>
        <time>2019-06-09T12:21:40Z</time>
      </trkpt>
      <trkpt lat="48.91607" lon="1.70046">
        <ele>122</ele>
        <time>2019-06-09T12:21:48Z</time>
      </trkpt>
      <trkpt lat="48.91612" lon="1.70058">
        <ele>122</ele>
        <time>2019-06-09T12:22:05Z</time>
      </trkpt>
      <trkpt lat="48.91613" lon="1.70072">
        <ele>122</ele>
        <time>2019-06-09T12:22:13Z</time>
      </trkpt>
      <trkpt lat="48.91616" lon="1.70086">
        <ele>123</ele>
        <time>2019-06-09T12:22:22Z</time>
      </trkpt>
      <trkpt lat="48.91624" lon="1.70095">
        <ele>123</ele>
        <time>2019-06-09T12:22:30Z</time>
      </trkpt>
      <trkpt lat="48.91631" lon="1.70105">
        <ele>123</ele>
        <time>2019-06-09T12:22:38Z</time>
      </trkpt>
      <trkpt lat="48.91639" lon="1.70112">
        <ele>122</ele>
        <time>2019-06-09T12:22:45Z</time>
      </trkpt>
      <trkpt lat="48.91647" lon="1.70122">
        <ele>122</ele>
        <time>2019-06-09T12:22:52Z</time>
      </trkpt>
      <trkpt lat="48.91648" lon="1.70137">
        <ele>122</ele>
        <time>2019-06-09T12:22:59Z</time>
      </trkpt>
      <trkpt lat="48.91653" lon="1.70149">
        <ele>122</ele>
        <time>2019-06-09T12:23:07Z</time>
      </trkpt>
      <trkpt lat="48.91659" lon="1.70162">
        <ele>122</ele>
        <time>2019-06-09T12:23:14Z</time>
      </trkpt>
      <trkpt lat="48.91664" lon="1.70174">
        <ele>122</ele>
        <time>2019-06-09T12:23:22Z</time>
      </trkpt>
      <trkpt lat="48.91671" lon="1.70183">
        <ele>121</ele>
        <time>2019-06-09T12:23:28Z</time>
      </trkpt>
      <trkpt lat="48.91677" lon="1.70194">
        <ele>121</ele>
        <time>2019-06-09T12:23:36Z</time>
      </trkpt>
      <trkpt lat="48.91685" lon="1.70204">
        <ele>121</ele>
        <time>2019-06-09T12:23:43Z</time>
      </trkpt>
      <trkpt lat="48.91692" lon="1.70215">
        <ele>121</ele>
        <time>2019-06-09T12:23:51Z</time>
      </trkpt>
      <trkpt lat="48.91698" lon="1.70226">
        <ele>121</ele>
        <time>2019-06-09T12:24:01Z</time>
      </trkpt>
      <trkpt lat="48.91705" lon="1.70235">
        <ele>121</ele>
        <time>2019-06-09T12:24:09Z</time>
      </trkpt>
      <trkpt lat="48.91713" lon="1.70245">
        <ele>120</ele>
        <time>2019-06-09T12:24:15Z</time>
      </trkpt>
      <trkpt lat="48.91719" lon="1.70256">
        <ele>121</ele>
        <time>2019-06-09T12:24:23Z</time>
      </trkpt>
      <trkpt lat="48.91724" lon="1.70268">
        <ele>121</ele>
        <time>2019-06-09T12:24:29Z</time>
      </trkpt>
      <trkpt lat="48.91729" lon="1.70282">
        <ele>121</ele>
        <time>2019-06-09T12:24:39Z</time>
      </trkpt>
      <trkpt lat="48.91731" lon="1.70295">
        <ele>121</ele>
        <time>2019-06-09T12:24:46Z</time>
      </trkpt>
      <trkpt lat="48.91735" lon="1.70309">
        <ele>121</ele>
        <time>2019-06-09T12:24:54Z</time>
      </trkpt>
      <trkpt lat="48.91735" lon="1.70324">
        <ele>121</ele>
        <time>2019-06-09T12:25:02Z</time>
      </trkpt>
      <trkpt lat="48.9173" lon="1.70336">
        <ele>122</ele>
        <time>2019-06-09T12:25:08Z</time>
      </trkpt>
      <trkpt lat="48.91724" lon="1.70348">
        <ele>122</ele>
        <time>2019-06-09T12:25:16Z</time>
      </trkpt>
      <trkpt lat="48.91722" lon="1.70362">
        <ele>122</ele>
        <time>2019-06-09T12:25:23Z</time>
      </trkpt>
      <trkpt lat="48.91719" lon="1.70376">
        <ele>122</ele>
        <time>2019-06-09T12:25:31Z</time>
      </trkpt>
      <trkpt lat="48.91716" lon="1.70389">
        <ele>122</ele>
        <time>2019-06-09T12:25:39Z</time>
      </trkpt>
      <trkpt lat="48.91713" lon="1.70403">
        <ele>122</ele>
        <time>2019-06-09T12:25:46Z</time>
      </trkpt>
      <trkpt lat="48.91712" lon="1.70417">
        <ele>122</ele>
        <time>2019-06-09T12:25:53Z</time>
      </trkpt>
      <trkpt lat="48.9171" lon="1.70431">
        <ele>122</ele>
        <time>2019-06-09T12:26:00Z</time>
      </trkpt>
      <trkpt lat="48.91709" lon="1.70446">
        <ele>122</ele>
        <time>2019-06-09T12:26:08Z</time>
      </trkpt>
      <trkpt lat="48.91707" lon="1.7046">
        <ele>122</ele>
        <time>2019-06-09T12:26:15Z</time>
      </trkpt>
      <trkpt lat="48.91707" lon="1.70476">
        <ele>122</ele>
        <time>2019-06-09T12:26:23Z</time>
      </trkpt>
      <trkpt lat="48.91707" lon="1.70491">
        <ele>122</ele>
        <time>2019-06-09T12:26:30Z</time>
      </trkpt>
      <trkpt lat="48.91708" lon="1.70505">
        <ele>123</ele>
        <time>2019-06-09T12:26:36Z</time>
      </trkpt>
      <trkpt lat="48.91709" lon="1.7052">
        <ele>123</ele>
        <time>2019-06-09T12:26:44Z</time>
      </trkpt>
      <trkpt lat="48.91709" lon="1.70535">
        <ele>123</ele>
        <time>2019-06-09T12:26:50Z</time>
      </trkpt>
      <trkpt lat="48.9171" lon="1.7055">
        <ele>123</ele>
        <time>2019-06-09T12:26:57Z</time>
      </trkpt>
      <trkpt lat="48.91712" lon="1.70564">
        <ele>123</ele>
        <time>2019-06-09T12:27:04Z</time>
      </trkpt>
      <trkpt lat="48.91714" lon="1.70579">
        <ele>122</ele>
        <time>2019-06-09T12:27:12Z</time>
      </trkpt>
      <trkpt lat="48.91716" lon="1.70594">
        <ele>123</ele>
        <time>2019-06-09T12:27:19Z</time>
      </trkpt>
      <trkpt lat="48.91717" lon="1.70609">
        <ele>123</ele>
        <time>2019-06-09T12:27:27Z</time>
      </trkpt>
      <trkpt lat="48.91717" lon="1.70624">
        <ele>123</ele>
        <time>2019-06-09T12:27:34Z</time>
      </trkpt>
      <trkpt lat="48.91718" lon="1.70638">
        <ele>123</ele>
        <time>2019-06-09T12:27:42Z</time>
      </trkpt>
      <trkpt lat="48.91722" lon="1.70652">
        <ele>122</ele>
        <time>2019-06-09T12:27:50Z</time>
      </trkpt>
      <trkpt lat="48.91722" lon="1.70669">
        <ele>122</ele>
        <time>2019-06-09T12:27:58Z</time>
      </trkpt>
      <trkpt lat="48.91724" lon="1.70683">
        <ele>122</ele>
        <time>2019-06-09T12:28:06Z</time>
      </trkpt>
      <trkpt lat="48.91728" lon="1.70697">
        <ele>123</ele>
        <time>2019-06-09T12:28:13Z</time>
      </trkpt>
      <trkpt lat="48.91732" lon="1.7071">
        <ele>123</ele>
        <time>2019-06-09T12:28:21Z</time>
      </trkpt>
      <trkpt lat="48.91737" lon="1.70725">
        <ele>122</ele>
        <time>2019-06-09T12:28:29Z</time>
      </trkpt>
      <trkpt lat="48.91741" lon="1.70738">
        <ele>122</ele>
        <time>2019-06-09T12:28:35Z</time>
      </trkpt>
      <trkpt lat="48.91747" lon="1.70752">
        <ele>122</ele>
        <time>2019-06-09T12:28:42Z</time>
      </trkpt>
      <trkpt lat="48.91751" lon="1.70765">
        <ele>122</ele>
        <time>2019-06-09T12:28:50Z</time>
      </trkpt>
      <trkpt lat="48.91755" lon="1.70778">
        <ele>122</ele>
        <time>2019-06-09T12:28:57Z</time>
      </trkpt>
      <trkpt lat="48.9176" lon="1.7079">
        <ele>122</ele>
        <time>2019-06-09T12:29:04Z</time>
      </trkpt>
      <trkpt lat="48.91764" lon="1.70804">
        <ele>123</ele>
        <time>2019-06-09T12:29:11Z</time>
      </trkpt>
      <trkpt lat="48.91769" lon="1.70816">
        <ele>123</ele>
        <time>2019-06-09T12:29:21Z</time>
      </trkpt>
      <trkpt lat="48.91779" lon="1.70819">
        <ele>123</ele>
        <time>2019-06-09T12:29:36Z</time>
      </trkpt>
      <trkpt lat="48.91787" lon="1.7081">
        <ele>123</ele>
        <time>2019-06-09T12:29:43Z</time>
      </trkpt>
      <trkpt lat="48.91795" lon="1.70801">
        <ele>123</ele>
        <time>2019-06-09T12:29:49Z</time>
      </trkpt>
      <trkpt lat="48.91802" lon="1.70789">
        <ele>123</ele>
        <time>2019-06-09T12:29:58Z</time>
      </trkpt>
      <trkpt lat="48.91808" lon="1.7078">
        <ele>123</ele>
        <time>2019-06-09T12:30:05Z</time>
      </trkpt>
      <trkpt lat="48.91815" lon="1.7077">
        <ele>123</ele>
        <time>2019-06-09T12:30:15Z</time>
      </trkpt>
      <trkpt lat="48.91823" lon="1.7076">
        <ele>123</ele>
        <time>2019-06-09T12:30:23Z</time>
      </trkpt>
      <trkpt lat="48.91828" lon="1.70749">
        <ele>123</ele>
        <time>2019-06-09T12:30:30Z</time>
      </trkpt>
      <trkpt lat="48.91835" lon="1.70738">
        <ele>124</ele>
        <time>2019-06-09T12:30:44Z</time>
      </trkpt>
      <trkpt lat="48.91841" lon="1.70728">
        <ele>124</ele>
        <time>2019-06-09T12:30:54Z</time>
      </trkpt>
      <trkpt lat="48.91849" lon="1.70721">
        <ele>124</ele>
        <time>2019-06-09T12:31:04Z</time>
      </trkpt>
      <trkpt lat="48.91857" lon="1.70712">
        <ele>124</ele>
        <time>2019-06-09T12:31:13Z</time>
      </trkpt>
      <trkpt lat="48.91865" lon="1.70705">
        <ele>125</ele>
        <time>2019-06-09T12:31:19Z</time>
      </trkpt>
      <trkpt lat="48.91873" lon="1.70696">
        <ele>125</ele>
        <time>2019-06-09T12:31:27Z</time>
      </trkpt>
      <trkpt lat="48.91881" lon="1.70688">
        <ele>125</ele>
        <time>2019-06-09T12:31:36Z</time>
      </trkpt>
      <trkpt lat="48.9189" lon="1.70678">
        <ele>126</ele>
        <time>2019-06-09T12:31:44Z</time>
      </trkpt>
      <trkpt lat="48.91899" lon="1.70676">
        <ele>127</ele>
        <time>2019-06-09T12:31:50Z</time>
      </trkpt>
      <trkpt lat="48.91909" lon="1.70669">
        <ele>128</ele>
        <time>2019-06-09T12:31:56Z</time>
      </trkpt>
      <trkpt lat="48.91917" lon="1.70664">
        <ele>129</ele>
        <time>2019-06-09T12:32:07Z</time>
      </trkpt>
      <trkpt lat="48.91926" lon="1.70657">
        <ele>130</ele>
        <time>2019-06-09T12:32:18Z</time>
      </trkpt>
      <trkpt lat="48.91935" lon="1.70653">
        <ele>131</ele>
        <time>2019-06-09T12:32:29Z</time>
      </trkpt>
      <trkpt lat="48.91941" lon="1.70642">
        <ele>131</ele>
        <time>2019-06-09T12:32:45Z</time>
      </trkpt>
      <trkpt lat="48.91948" lon="1.70632">
        <ele>132</ele>
        <time>2019-06-09T12:32:54Z</time>
      </trkpt>
      <trkpt lat="48.91952" lon="1.70619">
        <ele>132</ele>
        <time>2019-06-09T12:33:03Z</time>
      </trkpt>
      <trkpt lat="48.91957" lon="1.70607">
        <ele>132</ele>
        <time>2019-06-09T12:33:13Z</time>
      </trkpt>
      <trkpt lat="48.91964" lon="1.70596">
        <ele>132</ele>
        <time>2019-06-09T12:33:20Z</time>
      </trkpt>
      <trkpt lat="48.91969" lon="1.70584">
        <ele>133</ele>
        <time>2019-06-09T12:33:30Z</time>
      </trkpt>
      <trkpt lat="48.91975" lon="1.70573">
        <ele>131</ele>
        <time>2019-06-09T12:33:37Z</time>
      </trkpt>
      <trkpt lat="48.91982" lon="1.70561">
        <ele>131</ele>
        <time>2019-06-09T12:33:43Z</time>
      </trkpt>
      <trkpt lat="48.91988" lon="1.7055">
        <ele>130</ele>
        <time>2019-06-09T12:33:51Z</time>
      </trkpt>
      <trkpt lat="48.91996" lon="1.7054">
        <ele>130</ele>
        <time>2019-06-09T12:34:02Z</time>
      </trkpt>
      <trkpt lat="48.92004" lon="1.70531">
        <ele>135</ele>
        <time>2019-06-09T12:34:11Z</time>
      </trkpt>
      <trkpt lat="48.92014" lon="1.70524">
        <ele>134</ele>
        <time>2019-06-09T12:34:23Z</time>
      </trkpt>
      <trkpt lat="48.92022" lon="1.70516">
        <ele>134</ele>
        <time>2019-06-09T12:34:31Z</time>
      </trkpt>
      <trkpt lat="48.92029" lon="1.70507">
        <ele>135</ele>
        <time>2019-06-09T12:34:38Z</time>
      </trkpt>
      <trkpt lat="48.92037" lon="1.705">
        <ele>135</ele>
        <time>2019-06-09T12:34:48Z</time>
      </trkpt>
      <trkpt lat="48.92044" lon="1.70491">
        <ele>133</ele>
        <time>2019-06-09T12:34:54Z</time>
      </trkpt>
      <trkpt lat="48.92051" lon="1.70482">
        <ele>133</ele>
        <time>2019-06-09T12:35:00Z</time>
      </trkpt>
      <trkpt lat="48.92059" lon="1.70472">
        <ele>133</ele>
        <time>2019-06-09T12:35:10Z</time>
      </trkpt>
      <trkpt lat="48.92063" lon="1.7046">
        <ele>133</ele>
        <time>2019-06-09T12:35:21Z</time>
      </trkpt>
      <trkpt lat="48.92071" lon="1.7045">
        <ele>133</ele>
        <time>2019-06-09T12:35:30Z</time>
      </trkpt>
      <trkpt lat="48.92077" lon="1.70437">
        <ele>133</ele>
        <time>2019-06-09T12:35:39Z</time>
      </trkpt>
      <trkpt lat="48.92085" lon="1.70429">
        <ele>136</ele>
        <time>2019-06-09T12:35:46Z</time>
      </trkpt>
      <trkpt lat="48.92091" lon="1.70417">
        <ele>135</ele>
        <time>2019-06-09T12:35:55Z</time>
      </trkpt>
      <trkpt lat="48.92097" lon="1.70406">
        <ele>135</ele>
        <time>2019-06-09T12:36:03Z</time>
      </trkpt>
      <trkpt lat="48.92103" lon="1.70395">
        <ele>135</ele>
        <time>2019-06-09T12:36:12Z</time>
      </trkpt>
      <trkpt lat="48.9211" lon="1.70386">
        <ele>135</ele>
        <time>2019-06-09T12:36:20Z</time>
      </trkpt>
      <trkpt lat="48.92116" lon="1.70376">
        <ele>135</ele>
        <time>2019-06-09T12:36:27Z</time>
      </trkpt>
      <trkpt lat="48.92119" lon="1.70361">
        <ele>135</ele>
        <time>2019-06-09T12:36:41Z</time>
      </trkpt>
      <trkpt lat="48.92121" lon="1.70347">
        <ele>134</ele>
        <time>2019-06-09T12:36:51Z</time>
      </trkpt>
      <trkpt lat="48.92118" lon="1.70334">
        <ele>134</ele>
        <time>2019-06-09T12:38:46Z</time>
      </trkpt>
      <trkpt lat="48.92123" lon="1.70322">
        <ele>133</ele>
        <time>2019-06-09T12:38:54Z</time>
      </trkpt>
      <trkpt lat="48.9213" lon="1.70313">
        <ele>133</ele>
        <time>2019-06-09T12:39:01Z</time>
      </trkpt>
      <trkpt lat="48.92135" lon="1.70327">
        <ele>134</ele>
        <time>2019-06-09T12:39:15Z</time>
      </trkpt>
      <trkpt lat="48.92141" lon="1.7034">
        <ele>135</ele>
        <time>2019-06-09T12:39:28Z</time>
      </trkpt>
      <trkpt lat="48.92147" lon="1.70349">
        <ele>135</ele>
        <time>2019-06-09T12:39:34Z</time>
      </trkpt>
      <trkpt lat="48.92156" lon="1.70355">
        <ele>135</ele>
        <time>2019-06-09T12:39:45Z</time>
      </trkpt>
      <trkpt lat="48.92162" lon="1.70365">
        <ele>135</ele>
        <time>2019-06-09T12:39:52Z</time>
      </trkpt>
      <trkpt lat="48.92171" lon="1.70372">
        <ele>137</ele>
        <time>2019-06-09T12:39:57Z</time>
      </trkpt>
      <trkpt lat="48.92177" lon="1.70383">
        <ele>137</ele>
        <time>2019-06-09T12:40:09Z</time>
      </trkpt>
      <trkpt lat="48.92185" lon="1.70393">
        <ele>137</ele>
        <time>2019-06-09T12:40:15Z</time>
      </trkpt>
      <trkpt lat="48.92191" lon="1.70404">
        <ele>137</ele>
        <time>2019-06-09T12:40:23Z</time>
      </trkpt>
      <trkpt lat="48.92199" lon="1.70413">
        <ele>137</ele>
        <time>2019-06-09T12:40:32Z</time>
      </trkpt>
      <trkpt lat="48.92206" lon="1.70423">
        <ele>139</ele>
        <time>2019-06-09T12:40:41Z</time>
      </trkpt>
      <trkpt lat="48.92214" lon="1.70432">
        <ele>139</ele>
        <time>2019-06-09T12:40:48Z</time>
      </trkpt>
      <trkpt lat="48.92222" lon="1.70442">
        <ele>139</ele>
        <time>2019-06-09T12:40:56Z</time>
      </trkpt>
      <trkpt lat="48.92229" lon="1.70451">
        <ele>139</ele>
        <time>2019-06-09T12:41:04Z</time>
      </trkpt>
      <trkpt lat="48.92235" lon="1.70461">
        <ele>139</ele>
        <time>2019-06-09T12:41:14Z</time>
      </trkpt>
      <trkpt lat="48.92243" lon="1.70471">
        <ele>140</ele>
        <time>2019-06-09T12:41:21Z</time>
      </trkpt>
      <trkpt lat="48.92249" lon="1.70481">
        <ele>140</ele>
        <time>2019-06-09T12:41:31Z</time>
      </trkpt>
      <trkpt lat="48.92257" lon="1.70491">
        <ele>141</ele>
        <time>2019-06-09T12:41:39Z</time>
      </trkpt>
      <trkpt lat="48.92263" lon="1.70504">
        <ele>142</ele>
        <time>2019-06-09T12:41:48Z</time>
      </trkpt>
      <trkpt lat="48.92268" lon="1.70517">
        <ele>142</ele>
        <time>2019-06-09T12:42:01Z</time>
      </trkpt>
      <trkpt lat="48.92272" lon="1.7053">
        <ele>142</ele>
        <time>2019-06-09T12:42:10Z</time>
      </trkpt>
      <trkpt lat="48.92281" lon="1.70534">
        <ele>142</ele>
        <time>2019-06-09T12:42:18Z</time>
      </trkpt>
      <trkpt lat="48.92289" lon="1.70541">
        <ele>142</ele>
        <time>2019-06-09T12:42:23Z</time>
      </trkpt>
      <trkpt lat="48.92297" lon="1.70549">
        <ele>143</ele>
        <time>2019-06-09T12:42:31Z</time>
      </trkpt>
      <trkpt lat="48.92306" lon="1.70557">
        <ele>143</ele>
        <time>2019-06-09T12:42:41Z</time>
      </trkpt>
      <trkpt lat="48.92313" lon="1.70568">
        <ele>143</ele>
        <time>2019-06-09T12:42:50Z</time>
      </trkpt>
      <trkpt lat="48.92319" lon="1.70579">
        <ele>143</ele>
        <time>2019-06-09T12:42:58Z</time>
      </trkpt>
      <trkpt lat="48.92324" lon="1.70592">
        <ele>144</ele>
        <time>2019-06-09T12:43:07Z</time>
      </trkpt>
      <trkpt lat="48.92334" lon="1.70595">
        <ele>144</ele>
        <time>2019-06-09T12:43:35Z</time>
      </trkpt>
      <trkpt lat="48.92334" lon="1.70595">
        <ele>144</ele>
        <time>2019-06-09T12:43:36Z</time>
      </trkpt>
      <trkpt lat="48.92327" lon="1.70605">
        <ele>144</ele>
        <time>2019-06-09T12:43:48Z</time>
      </trkpt>
      <trkpt lat="48.92321" lon="1.70617">
        <ele>144</ele>
        <time>2019-06-09T12:44:08Z</time>
      </trkpt>
      <trkpt lat="48.92316" lon="1.70629">
        <ele>144</ele>
        <time>2019-06-09T12:44:16Z</time>
      </trkpt>
      <trkpt lat="48.92308" lon="1.7064">
        <ele>144</ele>
        <time>2019-06-09T12:44:23Z</time>
      </trkpt>
      <trkpt lat="48.923" lon="1.70649">
        <ele>144</ele>
        <time>2019-06-09T12:44:31Z</time>
      </trkpt>
      <trkpt lat="48.92294" lon="1.70659">
        <ele>144</ele>
        <time>2019-06-09T12:44:41Z</time>
      </trkpt>
      <trkpt lat="48.92287" lon="1.70669">
        <ele>145</ele>
        <time>2019-06-09T12:44:51Z</time>
      </trkpt>
      <trkpt lat="48.92281" lon="1.70681">
        <ele>145</ele>
        <time>2019-06-09T12:44:58Z</time>
      </trkpt>
      <trkpt lat="48.92272" lon="1.7069">
        <ele>145</ele>
        <time>2019-06-09T12:45:06Z</time>
      </trkpt>
      <trkpt lat="48.92271" lon="1.70704">
        <ele>146</ele>
        <time>2019-06-09T12:45:18Z</time>
      </trkpt>
      <trkpt lat="48.92279" lon="1.70714">
        <ele>146</ele>
        <time>2019-06-09T12:45:28Z</time>
      </trkpt>
      <trkpt lat="48.92287" lon="1.70722">
        <ele>146</ele>
        <time>2019-06-09T12:45:34Z</time>
      </trkpt>
      <trkpt lat="48.92297" lon="1.70728">
        <ele>146</ele>
        <time>2019-06-09T12:45:41Z</time>
      </trkpt>
      <trkpt lat="48.92304" lon="1.7074">
        <ele>147</ele>
        <time>2019-06-09T12:45:51Z</time>
      </trkpt>
      <trkpt lat="48.92314" lon="1.70741">
        <ele>147</ele>
        <time>2019-06-09T12:46:00Z</time>
      </trkpt>
      <trkpt lat="48.92322" lon="1.70748">
        <ele>148</ele>
        <time>2019-06-09T12:46:09Z</time>
      </trkpt>
      <trkpt lat="48.92332" lon="1.70752">
        <ele>149</ele>
        <time>2019-06-09T12:46:19Z</time>
      </trkpt>
      <trkpt lat="48.92338" lon="1.70763">
        <ele>148</ele>
        <time>2019-06-09T12:46:25Z</time>
      </trkpt>
      <trkpt lat="48.92344" lon="1.70774">
        <ele>147</ele>
        <time>2019-06-09T12:46:31Z</time>
      </trkpt>
      <trkpt lat="48.92352" lon="1.70782">
        <ele>146</ele>
        <time>2019-06-09T12:46:42Z</time>
      </trkpt>
      <trkpt lat="48.92358" lon="1.70793">
        <ele>146</ele>
        <time>2019-06-09T12:46:50Z</time>
      </trkpt>
      <trkpt lat="48.92367" lon="1.708">
        <ele>146</ele>
        <time>2019-06-09T12:46:57Z</time>
      </trkpt>
      <trkpt lat="48.92371" lon="1.70815">
        <ele>145</ele>
        <time>2019-06-09T12:47:08Z</time>
      </trkpt>
      <trkpt lat="48.92376" lon="1.70827">
        <ele>145</ele>
        <time>2019-06-09T12:47:18Z</time>
      </trkpt>
      <trkpt lat="48.92384" lon="1.70833">
        <ele>143</ele>
        <time>2019-06-09T12:47:26Z</time>
      </trkpt>
      <trkpt lat="48.92393" lon="1.7084">
        <ele>142</ele>
        <time>2019-06-09T12:47:33Z</time>
      </trkpt>
      <trkpt lat="48.92401" lon="1.70847">
        <ele>142</ele>
        <time>2019-06-09T12:47:39Z</time>
      </trkpt>
      <trkpt lat="48.9241" lon="1.70854">
        <ele>142</ele>
        <time>2019-06-09T12:47:46Z</time>
      </trkpt>
      <trkpt lat="48.92417" lon="1.70864">
        <ele>140</ele>
        <time>2019-06-09T12:47:53Z</time>
      </trkpt>
      <trkpt lat="48.92424" lon="1.70873">
        <ele>140</ele>
        <time>2019-06-09T12:47:59Z</time>
      </trkpt>
      <trkpt lat="48.92429" lon="1.70884">
        <ele>140</ele>
        <time>2019-06-09T12:48:05Z</time>
      </trkpt>
      <trkpt lat="48.92434" lon="1.70896">
        <ele>140</ele>
        <time>2019-06-09T12:48:12Z</time>
      </trkpt>
      <trkpt lat="48.9244" lon="1.70907">
        <ele>140</ele>
        <time>2019-06-09T12:48:18Z</time>
      </trkpt>
      <trkpt lat="48.92446" lon="1.70919">
        <ele>140</ele>
        <time>2019-06-09T12:48:25Z</time>
      </trkpt>
      <trkpt lat="48.92451" lon="1.70931">
        <ele>140</ele>
        <time>2019-06-09T12:48:34Z</time>
      </trkpt>
      <trkpt lat="48.92455" lon="1.70944">
        <ele>140</ele>
        <time>2019-06-09T12:48:41Z</time>
      </trkpt>
      <trkpt lat="48.92462" lon="1.70956">
        <ele>140</ele>
        <time>2019-06-09T12:48:49Z</time>
      </trkpt>
      <trkpt lat="48.92467" lon="1.70968">
        <ele>140</ele>
        <time>2019-06-09T12:48:56Z</time>
      </trkpt>
      <trkpt lat="48.92473" lon="1.70979">
        <ele>140</ele>
        <time>2019-06-09T12:49:10Z</time>
      </trkpt>
      <trkpt lat="48.92477" lon="1.70992">
        <ele>140</ele>
        <time>2019-06-09T12:49:20Z</time>
      </trkpt>
      <trkpt lat="48.92483" lon="1.71003">
        <ele>140</ele>
        <time>2019-06-09T12:49:27Z</time>
      </trkpt>
      <trkpt lat="48.92488" lon="1.71015">
        <ele>141</ele>
        <time>2019-06-09T12:49:35Z</time>
      </trkpt>
      <trkpt lat="48.92492" lon="1.71029">
        <ele>141</ele>
        <time>2019-06-09T12:49:44Z</time>
      </trkpt>
      <trkpt lat="48.92497" lon="1.71042">
        <ele>141</ele>
        <time>2019-06-09T12:49:55Z</time>
      </trkpt>
      <trkpt lat="48.92502" lon="1.71053">
        <ele>140</ele>
        <time>2019-06-09T12:50:05Z</time>
      </trkpt>
      <trkpt lat="48.92506" lon="1.71066">
        <ele>141</ele>
        <time>2019-06-09T12:50:12Z</time>
      </trkpt>
      <trkpt lat="48.92512" lon="1.71077">
        <ele>141</ele>
        <time>2019-06-09T12:50:19Z</time>
      </trkpt>
      <trkpt lat="48.92516" lon="1.7109">
        <ele>141</ele>
        <time>2019-06-09T12:50:26Z</time>
      </trkpt>
      <trkpt lat="48.92521" lon="1.71102">
        <ele>141</ele>
        <time>2019-06-09T12:50:33Z</time>
      </trkpt>
      <trkpt lat="48.92526" lon="1.71115">
        <ele>141</ele>
        <time>2019-06-09T12:50:41Z</time>
      </trkpt>
      <trkpt lat="48.9253" lon="1.71127">
        <ele>141</ele>
        <time>2019-06-09T12:50:48Z</time>
      </trkpt>
      <trkpt lat="48.92534" lon="1.71142">
        <ele>141</ele>
        <time>2019-06-09T12:50:58Z</time>
      </trkpt>
      <trkpt lat="48.92539" lon="1.71154">
        <ele>141</ele>
        <time>2019-06-09T12:51:08Z</time>
      </trkpt>
      <trkpt lat="48.92544" lon="1.71166">
        <ele>141</ele>
        <time>2019-06-09T12:51:15Z</time>
      </trkpt>
      <trkpt lat="48.9255" lon="1.71177">
        <ele>141</ele>
        <time>2019-06-09T12:51:24Z</time>
      </trkpt>
      <trkpt lat="48.92555" lon="1.7119">
        <ele>141</ele>
        <time>2019-06-09T12:51:33Z</time>
      </trkpt>
      <trkpt lat="48.92561" lon="1.71201">
        <ele>141</ele>
        <time>2019-06-09T12:51:41Z</time>
      </trkpt>
      <trkpt lat="48.9257" lon="1.71201">
        <ele>141</ele>
        <time>2019-06-09T12:54:59Z</time>
      </trkpt>
      <trkpt lat="48.9258" lon="1.712">
        <ele>141</ele>
        <time>2019-06-09T12:55:07Z</time>
      </trkpt>
      <trkpt lat="48.92588" lon="1.71195">
        <ele>140</ele>
        <time>2019-06-09T12:55:16Z</time>
      </trkpt>
      <trkpt lat="48.92598" lon="1.71192">
        <ele>140</ele>
        <time>2019-06-09T12:55:23Z</time>
      </trkpt>
      <trkpt lat="48.92607" lon="1.71186">
        <ele>140</ele>
        <time>2019-06-09T12:55:31Z</time>
      </trkpt>
      <trkpt lat="48.92616" lon="1.71184">
        <ele>139</ele>
        <time>2019-06-09T12:55:38Z</time>
      </trkpt>
      <trkpt lat="48.92625" lon="1.71179">
        <ele>139</ele>
        <time>2019-06-09T12:55:45Z</time>
      </trkpt>
      <trkpt lat="48.92634" lon="1.71176">
        <ele>139</ele>
        <time>2019-06-09T12:55:52Z</time>
      </trkpt>
      <trkpt lat="48.92644" lon="1.71176">
        <ele>139</ele>
        <time>2019-06-09T12:55:59Z</time>
      </trkpt>
      <trkpt lat="48.92654" lon="1.71172">
        <ele>138</ele>
        <time>2019-06-09T12:56:06Z</time>
      </trkpt>
      <trkpt lat="48.92664" lon="1.71168">
        <ele>138</ele>
        <time>2019-06-09T12:56:14Z</time>
      </trkpt>
      <trkpt lat="48.92673" lon="1.71163">
        <ele>138</ele>
        <time>2019-06-09T12:56:22Z</time>
      </trkpt>
      <trkpt lat="48.92682" lon="1.71159">
        <ele>137</ele>
        <time>2019-06-09T12:56:29Z</time>
      </trkpt>
      <trkpt lat="48.9269" lon="1.71155">
        <ele>137</ele>
        <time>2019-06-09T12:56:34Z</time>
      </trkpt>
      <trkpt lat="48.927" lon="1.7115">
        <ele>137</ele>
        <time>2019-06-09T12:56:44Z</time>
      </trkpt>
      <trkpt lat="48.9271" lon="1.71148">
        <ele>137</ele>
        <time>2019-06-09T12:56:51Z</time>
      </trkpt>
      <trkpt lat="48.92719" lon="1.71144">
        <ele>136</ele>
        <time>2019-06-09T12:56:58Z</time>
      </trkpt>
      <trkpt lat="48.92728" lon="1.7114">
        <ele>136</ele>
        <time>2019-06-09T12:57:05Z</time>
      </trkpt>
      <trkpt lat="48.92738" lon="1.71136">
        <ele>136</ele>
        <time>2019-06-09T12:57:12Z</time>
      </trkpt>
      <trkpt lat="48.92748" lon="1.71133">
        <ele>136</ele>
        <time>2019-06-09T12:57:20Z</time>
      </trkpt>
      <trkpt lat="48.92757" lon="1.7113">
        <ele>135</ele>
        <time>2019-06-09T12:57:27Z</time>
      </trkpt>
      <trkpt lat="48.92766" lon="1.71126">
        <ele>135</ele>
        <time>2019-06-09T12:57:34Z</time>
      </trkpt>
      <trkpt lat="48.92776" lon="1.71122">
        <ele>134</ele>
        <time>2019-06-09T12:57:42Z</time>
      </trkpt>
      <trkpt lat="48.92784" lon="1.71117">
        <ele>134</ele>
        <time>2019-06-09T12:57:49Z</time>
      </trkpt>
      <trkpt lat="48.92793" lon="1.71113">
        <ele>134</ele>
        <time>2019-06-09T12:57:56Z</time>
      </trkpt>
      <trkpt lat="48.92803" lon="1.71108">
        <ele>134</ele>
        <time>2019-06-09T12:58:03Z</time>
      </trkpt>
      <trkpt lat="48.92812" lon="1.71106">
        <ele>134</ele>
        <time>2019-06-09T12:58:10Z</time>
      </trkpt>
      <trkpt lat="48.92821" lon="1.71105">
        <ele>134</ele>
        <time>2019-06-09T12:58:18Z</time>
      </trkpt>
      <trkpt lat="48.9283" lon="1.71115">
        <ele>134</ele>
        <time>2019-06-09T12:58:24Z</time>
      </trkpt>
      <trkpt lat="48.92836" lon="1.71125">
        <ele>132</ele>
        <time>2019-06-09T12:58:30Z</time>
      </trkpt>
      <trkpt lat="48.92843" lon="1.71134">
        <ele>132</ele>
        <time>2019-06-09T12:58:38Z</time>
      </trkpt>
      <trkpt lat="48.92851" lon="1.71143">
        <ele>132</ele>
        <time>2019-06-09T12:58:47Z</time>
      </trkpt>
      <trkpt lat="48.92858" lon="1.71152">
        <ele>132</ele>
        <time>2019-06-09T12:58:53Z</time>
      </trkpt>
      <trkpt lat="48.92866" lon="1.71162">
        <ele>132</ele>
        <time>2019-06-09T12:59:00Z</time>
      </trkpt>
      <trkpt lat="48.92873" lon="1.71172">
        <ele>132</ele>
        <time>2019-06-09T12:59:06Z</time>
      </trkpt>
      <trkpt lat="48.92881" lon="1.71181">
        <ele>132</ele>
        <time>2019-06-09T12:59:12Z</time>
      </trkpt>
      <trkpt lat="48.92889" lon="1.7119">
        <ele>132</ele>
        <time>2019-06-09T12:59:18Z</time>
      </trkpt>
      <trkpt lat="48.92896" lon="1.71201">
        <ele>132</ele>
        <time>2019-06-09T12:59:27Z</time>
      </trkpt>
      <trkpt lat="48.92904" lon="1.71211">
        <ele>132</ele>
        <time>2019-06-09T12:59:35Z</time>
      </trkpt>
      <trkpt lat="48.92912" lon="1.71221">
        <ele>132</ele>
        <time>2019-06-09T12:59:43Z</time>
      </trkpt>
      <trkpt lat="48.92919" lon="1.7123">
        <ele>130</ele>
        <time>2019-06-09T12:59:49Z</time>
      </trkpt>
      <trkpt lat="48.92926" lon="1.71239">
        <ele>131</ele>
        <time>2019-06-09T12:59:57Z</time>
      </trkpt>
      <trkpt lat="48.92933" lon="1.7125">
        <ele>131</ele>
        <time>2019-06-09T13:00:05Z</time>
      </trkpt>
      <trkpt lat="48.92941" lon="1.71257">
        <ele>131</ele>
        <time>2019-06-09T13:00:12Z</time>
      </trkpt>
      <trkpt lat="48.92949" lon="1.71267">
        <ele>131</ele>
        <time>2019-06-09T13:00:19Z</time>
      </trkpt>
      <trkpt lat="48.92957" lon="1.71277">
        <ele>131</ele>
        <time>2019-06-09T13:00:26Z</time>
      </trkpt>
      <trkpt lat="48.92964" lon="1.71287">
        <ele>131</ele>
        <time>2019-06-09T13:00:32Z</time>
      </trkpt>
      <trkpt lat="48.92971" lon="1.71297">
        <ele>131</ele>
        <time>2019-06-09T13:00:38Z</time>
      </trkpt>
      <trkpt lat="48.92979" lon="1.71305">
        <ele>131</ele>
        <time>2019-06-09T13:00:43Z</time>
      </trkpt>
      <trkpt lat="48.92987" lon="1.71315">
        <ele>131</ele>
        <time>2019-06-09T13:00:52Z</time>
      </trkpt>
      <trkpt lat="48.92993" lon="1.71325">
        <ele>131</ele>
        <time>2019-06-09T13:01:00Z</time>
      </trkpt>
      <trkpt lat="48.93001" lon="1.71335">
        <ele>131</ele>
        <time>2019-06-09T13:01:07Z</time>
      </trkpt>
      <trkpt lat="48.93009" lon="1.71346">
        <ele>131</ele>
        <time>2019-06-09T13:01:15Z</time>
      </trkpt>
      <trkpt lat="48.93015" lon="1.71357">
        <ele>131</ele>
        <time>2019-06-09T13:01:24Z</time>
      </trkpt>
      <trkpt lat="48.93022" lon="1.71366">
        <ele>131</ele>
        <time>2019-06-09T13:01:33Z</time>
      </trkpt>
      <trkpt lat="48.93029" lon="1.71376">
        <ele>131</ele>
        <time>2019-06-09T13:01:41Z</time>
      </trkpt>
      <trkpt lat="48.93037" lon="1.71384">
        <ele>131</ele>
        <time>2019-06-09T13:01:47Z</time>
      </trkpt>
      <trkpt lat="48.93046" lon="1.71394">
        <ele>131</ele>
        <time>2019-06-09T13:01:54Z</time>
      </trkpt>
      <trkpt lat="48.93053" lon="1.71404">
        <ele>131</ele>
        <time>2019-06-09T13:02:01Z</time>
      </trkpt>
      <trkpt lat="48.9306" lon="1.71414">
        <ele>131</ele>
        <time>2019-06-09T13:02:08Z</time>
      </trkpt>
      <trkpt lat="48.93067" lon="1.71422">
        <ele>131</ele>
        <time>2019-06-09T13:02:15Z</time>
      </trkpt>
      <trkpt lat="48.93074" lon="1.71433">
        <ele>132</ele>
        <time>2019-06-09T13:02:20Z</time>
      </trkpt>
      <trkpt lat="48.93079" lon="1.71445">
        <ele>132</ele>
        <time>2019-06-09T13:02:29Z</time>
      </trkpt>
      <trkpt lat="48.93086" lon="1.71435">
        <ele>132</ele>
        <time>2019-06-09T13:02:38Z</time>
      </trkpt>
      <trkpt lat="48.9309" lon="1.71423">
        <ele>132</ele>
        <time>2019-06-09T13:02:48Z</time>
      </trkpt>
      <trkpt lat="48.93094" lon="1.71409">
        <ele>132</ele>
        <time>2019-06-09T13:02:55Z</time>
      </trkpt>
      <trkpt lat="48.93097" lon="1.71395">
        <ele>132</ele>
        <time>2019-06-09T13:03:02Z</time>
      </trkpt>
      <trkpt lat="48.931" lon="1.71381">
        <ele>132</ele>
        <time>2019-06-09T13:03:09Z</time>
      </trkpt>
      <trkpt lat="48.93102" lon="1.71368">
        <ele>132</ele>
        <time>2019-06-09T13:03:16Z</time>
      </trkpt>
      <trkpt lat="48.93106" lon="1.71352">
        <ele>132</ele>
        <time>2019-06-09T13:03:24Z</time>
      </trkpt>
      <trkpt lat="48.93109" lon="1.71337">
        <ele>132</ele>
        <time>2019-06-09T13:03:29Z</time>
      </trkpt>
      <trkpt lat="48.93112" lon="1.71324">
        <ele>132</ele>
        <time>2019-06-09T13:03:36Z</time>
      </trkpt>
      <trkpt lat="48.93116" lon="1.71312">
        <ele>132</ele>
        <time>2019-06-09T13:03:46Z</time>
      </trkpt>
      <trkpt lat="48.93119" lon="1.71297">
        <ele>131</ele>
        <time>2019-06-09T13:03:53Z</time>
      </trkpt>
      <trkpt lat="48.93123" lon="1.71282">
        <ele>131</ele>
        <time>2019-06-09T13:04:01Z</time>
      </trkpt>
      <trkpt lat="48.93128" lon="1.7127">
        <ele>131</ele>
        <time>2019-06-09T13:04:09Z</time>
      </trkpt>
      <trkpt lat="48.93135" lon="1.71259">
        <ele>131</ele>
        <time>2019-06-09T13:04:16Z</time>
      </trkpt>
      <trkpt lat="48.93144" lon="1.7126">
        <ele>132</ele>
        <time>2019-06-09T13:04:23Z</time>
      </trkpt>
      <trkpt lat="48.93153" lon="1.71271">
        <ele>132</ele>
        <time>2019-06-09T13:04:30Z</time>
      </trkpt>
      <trkpt lat="48.93161" lon="1.71282">
        <ele>132</ele>
        <time>2019-06-09T13:04:36Z</time>
      </trkpt>
      <trkpt lat="48.93168" lon="1.71291">
        <ele>133</ele>
        <time>2019-06-09T13:04:42Z</time>
      </trkpt>
      <trkpt lat="48.93175" lon="1.71301">
        <ele>134</ele>
        <time>2019-06-09T13:04:49Z</time>
      </trkpt>
      <trkpt lat="48.93182" lon="1.71311">
        <ele>134</ele>
        <time>2019-06-09T13:04:56Z</time>
      </trkpt>
      <trkpt lat="48.9319" lon="1.71321">
        <ele>134</ele>
        <time>2019-06-09T13:05:03Z</time>
      </trkpt>
      <trkpt lat="48.93196" lon="1.71331">
        <ele>134</ele>
        <time>2019-06-09T13:05:10Z</time>
      </trkpt>
      <trkpt lat="48.93204" lon="1.71342">
        <ele>135</ele>
        <time>2019-06-09T13:05:18Z</time>
      </trkpt>
      <trkpt lat="48.93211" lon="1.71352">
        <ele>135</ele>
        <time>2019-06-09T13:05:26Z</time>
      </trkpt>
      <trkpt lat="48.93218" lon="1.71364">
        <ele>135</ele>
        <time>2019-06-09T13:05:36Z</time>
      </trkpt>
      <trkpt lat="48.93225" lon="1.71373">
        <ele>135</ele>
        <time>2019-06-09T13:05:43Z</time>
      </trkpt>
      <trkpt lat="48.93232" lon="1.71383">
        <ele>136</ele>
        <time>2019-06-09T13:05:51Z</time>
      </trkpt>
      <trkpt lat="48.93239" lon="1.71392">
        <ele>136</ele>
        <time>2019-06-09T13:05:57Z</time>
      </trkpt>
      <trkpt lat="48.93246" lon="1.71402">
        <ele>136</ele>
        <time>2019-06-09T13:06:03Z</time>
      </trkpt>
      <trkpt lat="48.93254" lon="1.71411">
        <ele>138</ele>
        <time>2019-06-09T13:06:10Z</time>
      </trkpt>
      <trkpt lat="48.93261" lon="1.7142">
        <ele>139</ele>
        <time>2019-06-09T13:06:20Z</time>
      </trkpt>
      <trkpt lat="48.93269" lon="1.71429">
        <ele>140</ele>
        <time>2019-06-09T13:06:28Z</time>
      </trkpt>
      <trkpt lat="48.93276" lon="1.71439">
        <ele>141</ele>
        <time>2019-06-09T13:06:38Z</time>
      </trkpt>
      <trkpt lat="48.93283" lon="1.71451">
        <ele>141</ele>
        <time>2019-06-09T13:06:48Z</time>
      </trkpt>
      <trkpt lat="48.9329" lon="1.71462">
        <ele>142</ele>
        <time>2019-06-09T13:06:53Z</time>
      </trkpt>
      <trkpt lat="48.93296" lon="1.71472">
        <ele>142</ele>
        <time>2019-06-09T13:07:05Z</time>
      </trkpt>
      <trkpt lat="48.93304" lon="1.71481">
        <ele>143</ele>
        <time>2019-06-09T13:07:12Z</time>
      </trkpt>
      <trkpt lat="48.93311" lon="1.71492">
        <ele>143</ele>
        <time>2019-06-09T13:07:21Z</time>
      </trkpt>
      <trkpt lat="48.9332" lon="1.715">
        <ele>144</ele>
        <time>2019-06-09T13:07:29Z</time>
      </trkpt>
      <trkpt lat="48.93327" lon="1.71508">
        <ele>145</ele>
        <time>2019-06-09T13:07:36Z</time>
      </trkpt>
      <trkpt lat="48.93335" lon="1.71516">
        <ele>147</ele>
        <time>2019-06-09T13:07:43Z</time>
      </trkpt>
      <trkpt lat="48.93343" lon="1.71527">
        <ele>147</ele>
        <time>2019-06-09T13:07:52Z</time>
      </trkpt>
      <trkpt lat="48.93351" lon="1.71537">
        <ele>147</ele>
        <time>2019-06-09T13:07:59Z</time>
      </trkpt>
      <trkpt lat="48.93358" lon="1.71547">
        <ele>147</ele>
        <time>2019-06-09T13:08:06Z</time>
      </trkpt>
      <trkpt lat="48.93366" lon="1.71558">
        <ele>147</ele>
        <time>2019-06-09T13:08:14Z</time>
      </trkpt>
      <trkpt lat="48.93372" lon="1.71569">
        <ele>147</ele>
        <time>2019-06-09T13:08:25Z</time>
      </trkpt>
      <trkpt lat="48.9338" lon="1.71578">
        <ele>148</ele>
        <time>2019-06-09T13:08:31Z</time>
      </trkpt>
      <trkpt lat="48.93388" lon="1.71585">
        <ele>148</ele>
        <time>2019-06-09T13:08:37Z</time>
      </trkpt>
      <trkpt lat="48.93397" lon="1.71596">
        <ele>148</ele>
        <time>2019-06-09T13:08:46Z</time>
      </trkpt>
      <trkpt lat="48.93404" lon="1.71605">
        <ele>148</ele>
        <time>2019-06-09T13:08:53Z</time>
      </trkpt>
      <trkpt lat="48.93412" lon="1.71596">
        <ele>149</ele>
        <time>2019-06-09T13:09:00Z</time>
      </trkpt>
      <trkpt lat="48.9342" lon="1.7159">
        <ele>150</ele>
        <time>2019-06-09T13:09:08Z</time>
      </trkpt>
      <trkpt lat="48.93427" lon="1.71579">
        <ele>150</ele>
        <time>2019-06-09T13:09:16Z</time>
      </trkpt>
      <trkpt lat="48.93434" lon="1.71569">
        <ele>150</ele>
        <time>2019-06-09T13:09:25Z</time>
      </trkpt>
      <trkpt lat="48.93442" lon="1.71561">
        <ele>151</ele>
        <time>2019-06-09T13:09:31Z</time>
      </trkpt>
      <trkpt lat="48.93448" lon="1.71549">
        <ele>151</ele>
        <time>2019-06-09T13:09:40Z</time>
      </trkpt>
      <trkpt lat="48.93455" lon="1.71541">
        <ele>151</ele>
        <time>2019-06-09T13:09:45Z</time>
      </trkpt>
      <trkpt lat="48.93461" lon="1.7153">
        <ele>151</ele>
        <time>2019-06-09T13:09:52Z</time>
      </trkpt>
      <trkpt lat="48.9347" lon="1.71521">
        <ele>151</ele>
        <time>2019-06-09T13:09:59Z</time>
      </trkpt>
      <trkpt lat="48.93477" lon="1.71509">
        <ele>151</ele>
        <time>2019-06-09T13:10:07Z</time>
      </trkpt>
      <trkpt lat="48.93484" lon="1.71498">
        <ele>151</ele>
        <time>2019-06-09T13:10:16Z</time>
      </trkpt>
      <trkpt lat="48.9349" lon="1.71488">
        <ele>151</ele>
        <time>2019-06-09T13:10:24Z</time>
      </trkpt>
      <trkpt lat="48.93497" lon="1.71478">
        <ele>151</ele>
        <time>2019-06-09T13:10:34Z</time>
      </trkpt>
      <trkpt lat="48.93505" lon="1.71471">
        <ele>150</ele>
        <time>2019-06-09T13:10:41Z</time>
      </trkpt>
      <trkpt lat="48.93513" lon="1.71462">
        <ele>150</ele>
        <time>2019-06-09T13:10:50Z</time>
      </trkpt>
      <trkpt lat="48.9352" lon="1.71452">
        <ele>150</ele>
        <time>2019-06-09T13:10:57Z</time>
      </trkpt>
      <trkpt lat="48.93525" lon="1.71439">
        <ele>150</ele>
        <time>2019-06-09T13:11:02Z</time>
      </trkpt>
      <trkpt lat="48.93533" lon="1.71435">
        <ele>150</ele>
        <time>2019-06-09T13:11:10Z</time>
      </trkpt>
      <trkpt lat="48.93542" lon="1.71429">
        <ele>149</ele>
        <time>2019-06-09T13:11:16Z</time>
      </trkpt>
      <trkpt lat="48.9355" lon="1.71419">
        <ele>149</ele>
        <time>2019-06-09T13:11:23Z</time>
      </trkpt>
      <trkpt lat="48.93559" lon="1.71413">
        <ele>149</ele>
        <time>2019-06-09T13:11:28Z</time>
      </trkpt>
      <trkpt lat="48.93569" lon="1.71414">
        <ele>149</ele>
        <time>2019-06-09T13:11:38Z</time>
      </trkpt>
      <trkpt lat="48.93578" lon="1.71415">
        <ele>148</ele>
        <time>2019-06-09T13:11:46Z</time>
      </trkpt>
      <trkpt lat="48.93587" lon="1.71418">
        <ele>148</ele>
        <time>2019-06-09T13:11:55Z</time>
      </trkpt>
      <trkpt lat="48.93597" lon="1.71422">
        <ele>147</ele>
        <time>2019-06-09T13:12:02Z</time>
      </trkpt>
      <trkpt lat="48.93605" lon="1.71428">
        <ele>147</ele>
        <time>2019-06-09T13:12:09Z</time>
      </trkpt>
      <trkpt lat="48.93614" lon="1.71436">
        <ele>146</ele>
        <time>2019-06-09T13:12:17Z</time>
      </trkpt>
      <trkpt lat="48.93623" lon="1.71441">
        <ele>146</ele>
        <time>2019-06-09T13:12:25Z</time>
      </trkpt>
      <trkpt lat="48.93633" lon="1.71446">
        <ele>146</ele>
        <time>2019-06-09T13:12:32Z</time>
      </trkpt>
      <trkpt lat="48.93641" lon="1.71454">
        <ele>145</ele>
        <time>2019-06-09T13:12:38Z</time>
      </trkpt>
      <trkpt lat="48.9365" lon="1.71461">
        <ele>145</ele>
        <time>2019-06-09T13:12:46Z</time>
      </trkpt>
      <trkpt lat="48.93656" lon="1.71473">
        <ele>145</ele>
        <time>2019-06-09T13:12:54Z</time>
      </trkpt>
      <trkpt lat="48.93665" lon="1.7148">
        <ele>145</ele>
        <time>2019-06-09T13:13:02Z</time>
      </trkpt>
      <trkpt lat="48.93673" lon="1.71488">
        <ele>144</ele>
        <time>2019-06-09T13:13:10Z</time>
      </trkpt>
      <trkpt lat="48.9368" lon="1.71499">
        <ele>144</ele>
        <time>2019-06-09T13:13:16Z</time>
      </trkpt>
      <trkpt lat="48.93688" lon="1.71505">
        <ele>143</ele>
        <time>2019-06-09T13:13:24Z</time>
      </trkpt>
      <trkpt lat="48.93696" lon="1.71514">
        <ele>143</ele>
        <time>2019-06-09T13:13:31Z</time>
      </trkpt>
      <trkpt lat="48.93703" lon="1.71523">
        <ele>143</ele>
        <time>2019-06-09T13:13:35Z</time>
      </trkpt>
      <trkpt lat="48.93712" lon="1.71526">
        <ele>143</ele>
        <time>2019-06-09T13:13:41Z</time>
      </trkpt>
      <trkpt lat="48.93721" lon="1.7153">
        <ele>143</ele>
        <time>2019-06-09T13:13:48Z</time>
      </trkpt>
      <trkpt lat="48.93729" lon="1.71536">
        <ele>143</ele>
        <time>2019-06-09T13:13:54Z</time>
      </trkpt>
      <trkpt lat="48.93739" lon="1.71541">
        <ele>143</ele>
        <time>2019-06-09T13:14:03Z</time>
      </trkpt>
      <trkpt lat="48.93748" lon="1.71545">
        <ele>143</ele>
        <time>2019-06-09T13:14:11Z</time>
      </trkpt>
      <trkpt lat="48.93758" lon="1.71554">
        <ele>142</ele>
        <time>2019-06-09T13:14:19Z</time>
      </trkpt>
      <trkpt lat="48.93766" lon="1.71559">
        <ele>142</ele>
        <time>2019-06-09T13:14:25Z</time>
      </trkpt>
      <trkpt lat="48.93775" lon="1.71564">
        <ele>142</ele>
        <time>2019-06-09T13:14:30Z</time>
      </trkpt>
      <trkpt lat="48.93784" lon="1.71569">
        <ele>142</ele>
        <time>2019-06-09T13:14:38Z</time>
      </trkpt>
      <trkpt lat="48.93793" lon="1.71576">
        <ele>142</ele>
        <time>2019-06-09T13:14:45Z</time>
      </trkpt>
      <trkpt lat="48.93802" lon="1.71582">
        <ele>142</ele>
        <time>2019-06-09T13:14:52Z</time>
      </trkpt>
      <trkpt lat="48.9381" lon="1.71588">
        <ele>142</ele>
        <time>2019-06-09T13:15:00Z</time>
      </trkpt>
      <trkpt lat="48.93819" lon="1.71591">
        <ele>142</ele>
        <time>2019-06-09T13:15:08Z</time>
      </trkpt>
      <trkpt lat="48.93829" lon="1.71597">
        <ele>142</ele>
        <time>2019-06-09T13:15:16Z</time>
      </trkpt>
      <trkpt lat="48.93838" lon="1.71598">
        <ele>141</ele>
        <time>2019-06-09T13:15:23Z</time>
      </trkpt>
      <trkpt lat="48.93848" lon="1.71603">
        <ele>141</ele>
        <time>2019-06-09T13:15:30Z</time>
      </trkpt>
      <trkpt lat="48.93857" lon="1.71607">
        <ele>141</ele>
        <time>2019-06-09T13:15:36Z</time>
      </trkpt>
      <trkpt lat="48.93866" lon="1.7161">
        <ele>140</ele>
        <time>2019-06-09T13:15:42Z</time>
      </trkpt>
      <trkpt lat="48.93875" lon="1.71602">
        <ele>140</ele>
        <time>2019-06-09T13:15:48Z</time>
      </trkpt>
      <trkpt lat="48.93885" lon="1.71597">
        <ele>140</ele>
        <time>2019-06-09T13:15:57Z</time>
      </trkpt>
      <trkpt lat="48.93893" lon="1.71592">
        <ele>140</ele>
        <time>2019-06-09T13:16:04Z</time>
      </trkpt>
      <trkpt lat="48.93902" lon="1.7159">
        <ele>139</ele>
        <time>2019-06-09T13:16:11Z</time>
      </trkpt>
      <trkpt lat="48.93912" lon="1.71589">
        <ele>139</ele>
        <time>2019-06-09T13:16:17Z</time>
      </trkpt>
      <trkpt lat="48.93922" lon="1.7159">
        <ele>138</ele>
        <time>2019-06-09T13:16:24Z</time>
      </trkpt>
      <trkpt lat="48.93931" lon="1.71595">
        <ele>138</ele>
        <time>2019-06-09T13:16:32Z</time>
      </trkpt>
      <trkpt lat="48.9394" lon="1.71599">
        <ele>138</ele>
        <time>2019-06-09T13:16:38Z</time>
      </trkpt>
      <trkpt lat="48.93949" lon="1.71604">
        <ele>138</ele>
        <time>2019-06-09T13:16:46Z</time>
      </trkpt>
      <trkpt lat="48.93957" lon="1.71609">
        <ele>138</ele>
        <time>2019-06-09T13:16:53Z</time>
      </trkpt>
      <trkpt lat="48.93967" lon="1.7161">
        <ele>137</ele>
        <time>2019-06-09T13:17:00Z</time>
      </trkpt>
      <trkpt lat="48.93977" lon="1.71604">
        <ele>137</ele>
        <time>2019-06-09T13:17:08Z</time>
      </trkpt>
      <trkpt lat="48.93982" lon="1.71593">
        <ele>137</ele>
        <time>2019-06-09T13:17:14Z</time>
      </trkpt>
      <trkpt lat="48.93987" lon="1.7158">
        <ele>137</ele>
        <time>2019-06-09T13:17:22Z</time>
      </trkpt>
      <trkpt lat="48.9399" lon="1.71567">
        <ele>137</ele>
        <time>2019-06-09T13:17:28Z</time>
      </trkpt>
      <trkpt lat="48.93996" lon="1.71554">
        <ele>137</ele>
        <time>2019-06-09T13:17:35Z</time>
      </trkpt>
      <trkpt lat="48.93999" lon="1.71541">
        <ele>138</ele>
        <time>2019-06-09T13:17:42Z</time>
      </trkpt>
      <trkpt lat="48.94003" lon="1.71528">
        <ele>137</ele>
        <time>2019-06-09T13:17:49Z</time>
      </trkpt>
      <trkpt lat="48.94007" lon="1.71514">
        <ele>137</ele>
        <time>2019-06-09T13:17:55Z</time>
      </trkpt>
      <trkpt lat="48.94011" lon="1.71501">
        <ele>138</ele>
        <time>2019-06-09T13:18:01Z</time>
      </trkpt>
      <trkpt lat="48.94014" lon="1.71486">
        <ele>138</ele>
        <time>2019-06-09T13:18:09Z</time>
      </trkpt>
      <trkpt lat="48.94017" lon="1.71472">
        <ele>137</ele>
        <time>2019-06-09T13:18:15Z</time>
      </trkpt>
      <trkpt lat="48.9402" lon="1.71459">
        <ele>137</ele>
        <time>2019-06-09T13:18:23Z</time>
      </trkpt>
      <trkpt lat="48.94021" lon="1.71444">
        <ele>138</ele>
        <time>2019-06-09T13:18:31Z</time>
      </trkpt>
      <trkpt lat="48.94023" lon="1.7143">
        <ele>138</ele>
        <time>2019-06-09T13:18:37Z</time>
      </trkpt>
      <trkpt lat="48.94027" lon="1.71416">
        <ele>138</ele>
        <time>2019-06-09T13:18:45Z</time>
      </trkpt>
      <trkpt lat="48.94028" lon="1.71402">
        <ele>137</ele>
        <time>2019-06-09T13:18:51Z</time>
      </trkpt>
      <trkpt lat="48.94032" lon="1.71387">
        <ele>137</ele>
        <time>2019-06-09T13:18:59Z</time>
      </trkpt>
      <trkpt lat="48.94035" lon="1.71373">
        <ele>136</ele>
        <time>2019-06-09T13:19:04Z</time>
      </trkpt>
      <trkpt lat="48.94041" lon="1.71361">
        <ele>136</ele>
        <time>2019-06-09T13:19:11Z</time>
      </trkpt>
      <trkpt lat="48.94046" lon="1.71349">
        <ele>136</ele>
        <time>2019-06-09T13:19:17Z</time>
      </trkpt>
      <trkpt lat="48.94051" lon="1.71336">
        <ele>135</ele>
        <time>2019-06-09T13:19:24Z</time>
      </trkpt>
      <trkpt lat="48.94053" lon="1.71322">
        <ele>134</ele>
        <time>2019-06-09T13:19:32Z</time>
      </trkpt>
      <trkpt lat="48.94059" lon="1.7131">
        <ele>134</ele>
        <time>2019-06-09T13:19:41Z</time>
      </trkpt>
      <trkpt lat="48.94062" lon="1.71296">
        <ele>134</ele>
        <time>2019-06-09T13:19:49Z</time>
      </trkpt>
      <trkpt lat="48.94067" lon="1.71283">
        <ele>134</ele>
        <time>2019-06-09T13:19:55Z</time>
      </trkpt>
      <trkpt lat="48.94069" lon="1.71269">
        <ele>134</ele>
        <time>2019-06-09T13:20:03Z</time>
      </trkpt>
      <trkpt lat="48.94075" lon="1.71256">
        <ele>133</ele>
        <time>2019-06-09T13:20:10Z</time>
      </trkpt>
      <trkpt lat="48.94078" lon="1.7124">
        <ele>133</ele>
        <time>2019-06-09T13:20:18Z</time>
      </trkpt>
      <trkpt lat="48.94081" lon="1.71227">
        <ele>133</ele>
        <time>2019-06-09T13:20:26Z</time>
      </trkpt>
      <trkpt lat="48.94084" lon="1.71212">
        <ele>130</ele>
        <time>2019-06-09T13:20:33Z</time>
      </trkpt>
      <trkpt lat="48.94086" lon="1.71198">
        <ele>131</ele>
        <time>2019-06-09T13:20:41Z</time>
      </trkpt>
      <trkpt lat="48.94087" lon="1.71183">
        <ele>131</ele>
        <time>2019-06-09T13:20:47Z</time>
      </trkpt>
      <trkpt lat="48.94089" lon="1.71169">
        <ele>132</ele>
        <time>2019-06-09T13:20:55Z</time>
      </trkpt>
      <trkpt lat="48.9409" lon="1.71155">
        <ele>131</ele>
        <time>2019-06-09T13:21:02Z</time>
      </trkpt>
      <trkpt lat="48.94094" lon="1.71141">
        <ele>130</ele>
        <time>2019-06-09T13:21:10Z</time>
      </trkpt>
      <trkpt lat="48.94097" lon="1.71128">
        <ele>130</ele>
        <time>2019-06-09T13:21:16Z</time>
      </trkpt>
      <trkpt lat="48.941" lon="1.71112">
        <ele>130</ele>
        <time>2019-06-09T13:21:25Z</time>
      </trkpt>
      <trkpt lat="48.94098" lon="1.71098">
        <ele>130</ele>
        <time>2019-06-09T13:21:34Z</time>
      </trkpt>
      <trkpt lat="48.94102" lon="1.71085">
        <ele>130</ele>
        <time>2019-06-09T13:21:40Z</time>
      </trkpt>
      <trkpt lat="48.94105" lon="1.71071">
        <ele>129</ele>
        <time>2019-06-09T13:21:48Z</time>
      </trkpt>
      <trkpt lat="48.94103" lon="1.71057">
        <ele>129</ele>
        <time>2019-06-09T13:21:54Z</time>
      </trkpt>
      <trkpt lat="48.94103" lon="1.71043">
        <ele>128</ele>
        <time>2019-06-09T13:22:02Z</time>
      </trkpt>
      <trkpt lat="48.94103" lon="1.71027">
        <ele>128</ele>
        <time>2019-06-09T13:22:09Z</time>
      </trkpt>
      <trkpt lat="48.94101" lon="1.71014">
        <ele>128</ele>
        <time>2019-06-09T13:22:16Z</time>
      </trkpt>
      <trkpt lat="48.94107" lon="1.71001">
        <ele>128</ele>
        <time>2019-06-09T13:22:24Z</time>
      </trkpt>
      <trkpt lat="48.94112" lon="1.7099">
        <ele>125</ele>
        <time>2019-06-09T13:22:41Z</time>
      </trkpt>
      <trkpt lat="48.94111" lon="1.70974">
        <ele>124</ele>
        <time>2019-06-09T13:22:49Z</time>
      </trkpt>
      <trkpt lat="48.94107" lon="1.70961">
        <ele>124</ele>
        <time>2019-06-09T13:23:00Z</time>
      </trkpt>
      <trkpt lat="48.94105" lon="1.70947">
        <ele>124</ele>
        <time>2019-06-09T13:23:06Z</time>
      </trkpt>
      <trkpt lat="48.94104" lon="1.70933">
        <ele>123</ele>
        <time>2019-06-09T13:23:13Z</time>
      </trkpt>
      <trkpt lat="48.94104" lon="1.70919">
        <ele>123</ele>
        <time>2019-06-09T13:23:22Z</time>
      </trkpt>
      <trkpt lat="48.94104" lon="1.70904">
        <ele>121</ele>
        <time>2019-06-09T13:23:30Z</time>
      </trkpt>
      <trkpt lat="48.94103" lon="1.70889">
        <ele>121</ele>
        <time>2019-06-09T13:23:38Z</time>
      </trkpt>
      <trkpt lat="48.94103" lon="1.70873">
        <ele>120</ele>
        <time>2019-06-09T13:23:45Z</time>
      </trkpt>
      <trkpt lat="48.94101" lon="1.70859">
        <ele>120</ele>
        <time>2019-06-09T13:23:50Z</time>
      </trkpt>
      <trkpt lat="48.94099" lon="1.70845">
        <ele>120</ele>
        <time>2019-06-09T13:23:59Z</time>
      </trkpt>
      <trkpt lat="48.941" lon="1.7083">
        <ele>119</ele>
        <time>2019-06-09T13:24:10Z</time>
      </trkpt>
      <trkpt lat="48.94099" lon="1.70814">
        <ele>119</ele>
        <time>2019-06-09T13:24:16Z</time>
      </trkpt>
      <trkpt lat="48.94099" lon="1.70799">
        <ele>118</ele>
        <time>2019-06-09T13:24:23Z</time>
      </trkpt>
      <trkpt lat="48.94101" lon="1.70783">
        <ele>118</ele>
        <time>2019-06-09T13:24:29Z</time>
      </trkpt>
      <trkpt lat="48.94105" lon="1.70769">
        <ele>118</ele>
        <time>2019-06-09T13:24:37Z</time>
      </trkpt>
      <trkpt lat="48.9411" lon="1.70755">
        <ele>118</ele>
        <time>2019-06-09T13:24:43Z</time>
      </trkpt>
      <trkpt lat="48.94115" lon="1.70743">
        <ele>118</ele>
        <time>2019-06-09T13:24:51Z</time>
      </trkpt>
      <trkpt lat="48.94122" lon="1.70733">
        <ele>117</ele>
        <time>2019-06-09T13:24:59Z</time>
      </trkpt>
      <trkpt lat="48.94129" lon="1.70723">
        <ele>117</ele>
        <time>2019-06-09T13:25:07Z</time>
      </trkpt>
      <trkpt lat="48.94136" lon="1.70712">
        <ele>117</ele>
        <time>2019-06-09T13:25:14Z</time>
      </trkpt>
      <trkpt lat="48.94142" lon="1.707">
        <ele>117</ele>
        <time>2019-06-09T13:25:22Z</time>
      </trkpt>
      <trkpt lat="48.94151" lon="1.70691">
        <ele>116</ele>
        <time>2019-06-09T13:25:30Z</time>
      </trkpt>
      <trkpt lat="48.94157" lon="1.7068">
        <ele>116</ele>
        <time>2019-06-09T13:25:37Z</time>
      </trkpt>
      <trkpt lat="48.94163" lon="1.70669">
        <ele>115</ele>
        <time>2019-06-09T13:25:46Z</time>
      </trkpt>
      <trkpt lat="48.94169" lon="1.70658">
        <ele>113</ele>
        <time>2019-06-09T13:25:54Z</time>
      </trkpt>
      <trkpt lat="48.94174" lon="1.70643">
        <ele>113</ele>
        <time>2019-06-09T13:26:00Z</time>
      </trkpt>
      <trkpt lat="48.9418" lon="1.70632">
        <ele>113</ele>
        <time>2019-06-09T13:26:06Z</time>
      </trkpt>
      <trkpt lat="48.94187" lon="1.70621">
        <ele>113</ele>
        <time>2019-06-09T13:26:15Z</time>
      </trkpt>
      <trkpt lat="48.94194" lon="1.70611">
        <ele>113</ele>
        <time>2019-06-09T13:26:23Z</time>
      </trkpt>
      <trkpt lat="48.94201" lon="1.70603">
        <ele>113</ele>
        <time>2019-06-09T13:26:29Z</time>
      </trkpt>
      <trkpt lat="48.94208" lon="1.70592">
        <ele>113</ele>
        <time>2019-06-09T13:26:36Z</time>
      </trkpt>
      <trkpt lat="48.94215" lon="1.70583">
        <ele>115</ele>
        <time>2019-06-09T13:26:44Z</time>
      </trkpt>
      <trkpt lat="48.94223" lon="1.70571">
        <ele>114</ele>
        <time>2019-06-09T13:26:51Z</time>
      </trkpt>
      <trkpt lat="48.9423" lon="1.7056">
        <ele>114</ele>
        <time>2019-06-09T13:26:59Z</time>
      </trkpt>
      <trkpt lat="48.94237" lon="1.70549">
        <ele>114</ele>
        <time>2019-06-09T13:27:06Z</time>
      </trkpt>
      <trkpt lat="48.94243" lon="1.70539">
        <ele>114</ele>
        <time>2019-06-09T13:27:13Z</time>
      </trkpt>
      <trkpt lat="48.94249" lon="1.70527">
        <ele>114</ele>
        <time>2019-06-09T13:27:22Z</time>
      </trkpt>
      <trkpt lat="48.94256" lon="1.70518">
        <ele>108</ele>
        <time>2019-06-09T13:27:30Z</time>
      </trkpt>
      <trkpt lat="48.94264" lon="1.70508">
        <ele>108</ele>
        <time>2019-06-09T13:27:39Z</time>
      </trkpt>
      <trkpt lat="48.94271" lon="1.70499">
        <ele>108</ele>
        <time>2019-06-09T13:27:46Z</time>
      </trkpt>
      <trkpt lat="48.94278" lon="1.70489">
        <ele>108</ele>
        <time>2019-06-09T13:27:53Z</time>
      </trkpt>
      <trkpt lat="48.94286" lon="1.7048">
        <ele>107</ele>
        <time>2019-06-09T13:28:00Z</time>
      </trkpt>
      <trkpt lat="48.94293" lon="1.70471">
        <ele>106</ele>
        <time>2019-06-09T13:28:07Z</time>
      </trkpt>
      <trkpt lat="48.94302" lon="1.70463">
        <ele>106</ele>
        <time>2019-06-09T13:28:16Z</time>
      </trkpt>
      <trkpt lat="48.94309" lon="1.70453">
        <ele>105</ele>
        <time>2019-06-09T13:28:25Z</time>
      </trkpt>
      <trkpt lat="48.94316" lon="1.70441">
        <ele>105</ele>
        <time>2019-06-09T13:28:31Z</time>
      </trkpt>
      <trkpt lat="48.94323" lon="1.70432">
        <ele>104</ele>
        <time>2019-06-09T13:28:38Z</time>
      </trkpt>
      <trkpt lat="48.94332" lon="1.70423">
        <ele>103</ele>
        <time>2019-06-09T13:28:46Z</time>
      </trkpt>
      <trkpt lat="48.94338" lon="1.70411">
        <ele>100</ele>
        <time>2019-06-09T13:28:52Z</time>
      </trkpt>
      <trkpt lat="48.94345" lon="1.704">
        <ele>98</ele>
        <time>2019-06-09T13:28:58Z</time>
      </trkpt>
      <trkpt lat="48.94351" lon="1.70388">
        <ele>97</ele>
        <time>2019-06-09T13:29:04Z</time>
      </trkpt>
      <trkpt lat="48.94355" lon="1.70374">
        <ele>96</ele>
        <time>2019-06-09T13:29:12Z</time>
      </trkpt>
      <trkpt lat="48.94358" lon="1.70361">
        <ele>96</ele>
        <time>2019-06-09T13:29:20Z</time>
      </trkpt>
      <trkpt lat="48.94351" lon="1.70353">
        <ele>97</ele>
        <time>2019-06-09T13:31:59Z</time>
      </trkpt>
      <trkpt lat="48.94355" lon="1.70339">
        <ele>97</ele>
        <time>2019-06-09T13:32:27Z</time>
      </trkpt>
      <trkpt lat="48.94359" lon="1.70328">
        <ele>95</ele>
        <time>2019-06-09T13:32:34Z</time>
      </trkpt>
      <trkpt lat="48.94367" lon="1.70319">
        <ele>94</ele>
        <time>2019-06-09T13:32:42Z</time>
      </trkpt>
      <trkpt lat="48.94372" lon="1.70306">
        <ele>93</ele>
        <time>2019-06-09T13:32:49Z</time>
      </trkpt>
      <trkpt lat="48.94376" lon="1.70293">
        <ele>92</ele>
        <time>2019-06-09T13:32:58Z</time>
      </trkpt>
      <trkpt lat="48.94377" lon="1.70276">
        <ele>92</ele>
        <time>2019-06-09T13:33:06Z</time>
      </trkpt>
      <trkpt lat="48.94379" lon="1.70262">
        <ele>91</ele>
        <time>2019-06-09T13:33:12Z</time>
      </trkpt>
      <trkpt lat="48.94374" lon="1.70248">
        <ele>87</ele>
        <time>2019-06-09T13:33:19Z</time>
      </trkpt>
      <trkpt lat="48.94373" lon="1.70235">
        <ele>87</ele>
        <time>2019-06-09T13:33:26Z</time>
      </trkpt>
      <trkpt lat="48.94373" lon="1.7022">
        <ele>86</ele>
        <time>2019-06-09T13:33:33Z</time>
      </trkpt>
      <trkpt lat="48.94372" lon="1.70204">
        <ele>85</ele>
        <time>2019-06-09T13:33:39Z</time>
      </trkpt>
      <trkpt lat="48.9437" lon="1.7019">
        <ele>84</ele>
        <time>2019-06-09T13:33:45Z</time>
      </trkpt>
      <trkpt lat="48.94368" lon="1.70176">
        <ele>84</ele>
        <time>2019-06-09T13:33:54Z</time>
      </trkpt>
      <trkpt lat="48.94366" lon="1.70162">
        <ele>77</ele>
        <time>2019-06-09T13:34:03Z</time>
      </trkpt>
      <trkpt lat="48.94364" lon="1.70148">
        <ele>77</ele>
        <time>2019-06-09T13:34:11Z</time>
      </trkpt>
      <trkpt lat="48.94362" lon="1.70134">
        <ele>76</ele>
        <time>2019-06-09T13:34:20Z</time>
      </trkpt>
      <trkpt lat="48.9436" lon="1.70121">
        <ele>75</ele>
        <time>2019-06-09T13:34:28Z</time>
      </trkpt>
      <trkpt lat="48.94355" lon="1.70108">
        <ele>74</ele>
        <time>2019-06-09T13:34:37Z</time>
      </trkpt>
      <trkpt lat="48.94349" lon="1.70097">
        <ele>74</ele>
        <time>2019-06-09T13:34:44Z</time>
      </trkpt>
      <trkpt lat="48.94344" lon="1.70085">
        <ele>74</ele>
        <time>2019-06-09T13:34:53Z</time>
      </trkpt>
      <trkpt lat="48.9434" lon="1.70072">
        <ele>70</ele>
        <time>2019-06-09T13:34:59Z</time>
      </trkpt>
      <trkpt lat="48.94335" lon="1.70058">
        <ele>67</ele>
        <time>2019-06-09T13:35:07Z</time>
      </trkpt>
      <trkpt lat="48.9433" lon="1.70046">
        <ele>73</ele>
        <time>2019-06-09T13:35:14Z</time>
      </trkpt>
      <trkpt lat="48.94324" lon="1.70035">
        <ele>72</ele>
        <time>2019-06-09T13:35:21Z</time>
      </trkpt>
      <trkpt lat="48.94319" lon="1.70022">
        <ele>70</ele>
        <time>2019-06-09T13:35:28Z</time>
      </trkpt>
      <trkpt lat="48.94315" lon="1.7001">
        <ele>69</ele>
        <time>2019-06-09T13:35:35Z</time>
      </trkpt>
      <trkpt lat="48.94311" lon="1.69998">
        <ele>62</ele>
        <time>2019-06-09T13:35:43Z</time>
      </trkpt>
      <trkpt lat="48.94307" lon="1.69983">
        <ele>62</ele>
        <time>2019-06-09T13:35:50Z</time>
      </trkpt>
      <trkpt lat="48.94304" lon="1.6997">
        <ele>61</ele>
        <time>2019-06-09T13:35:57Z</time>
      </trkpt>
      <trkpt lat="48.94298" lon="1.69958">
        <ele>61</ele>
        <time>2019-06-09T13:36:05Z</time>
      </trkpt>
      <trkpt lat="48.94292" lon="1.69948">
        <ele>61</ele>
        <time>2019-06-09T13:36:11Z</time>
      </trkpt>
      <trkpt lat="48.94285" lon="1.69938">
        <ele>60</ele>
        <time>2019-06-09T13:36:19Z</time>
      </trkpt>
      <trkpt lat="48.9428" lon="1.69926">
        <ele>60</ele>
        <time>2019-06-09T13:36:29Z</time>
      </trkpt>
      <trkpt lat="48.94278" lon="1.69912">
        <ele>53</ele>
        <time>2019-06-09T13:36:36Z</time>
      </trkpt>
      <trkpt lat="48.94275" lon="1.69899">
        <ele>53</ele>
        <time>2019-06-09T13:36:46Z</time>
      </trkpt>
      <trkpt lat="48.9427" lon="1.69885">
        <ele>52</ele>
        <time>2019-06-09T13:36:56Z</time>
      </trkpt>
      <trkpt lat="48.94267" lon="1.69872">
        <ele>51</ele>
        <time>2019-06-09T13:37:02Z</time>
      </trkpt>
      <trkpt lat="48.94264" lon="1.69858">
        <ele>50</ele>
        <time>2019-06-09T13:37:08Z</time>
      </trkpt>
      <trkpt lat="48.94261" lon="1.69844">
        <ele>49</ele>
        <time>2019-06-09T13:37:15Z</time>
      </trkpt>
      <trkpt lat="48.94258" lon="1.6983">
        <ele>47</ele>
        <time>2019-06-09T13:37:24Z</time>
      </trkpt>
      <trkpt lat="48.94256" lon="1.69817">
        <ele>46</ele>
        <time>2019-06-09T13:37:33Z</time>
      </trkpt>
      <trkpt lat="48.9425" lon="1.69805">
        <ele>46</ele>
        <time>2019-06-09T13:37:40Z</time>
      </trkpt>
      <trkpt lat="48.94245" lon="1.69793">
        <ele>49</ele>
        <time>2019-06-09T13:37:49Z</time>
      </trkpt>
      <trkpt lat="48.9424" lon="1.69781">
        <ele>48</ele>
        <time>2019-06-09T13:37:56Z</time>
      </trkpt>
      <trkpt lat="48.94234" lon="1.6977">
        <ele>48</ele>
        <time>2019-06-09T13:38:03Z</time>
      </trkpt>
      <trkpt lat="48.94228" lon="1.69758">
        <ele>47</ele>
        <time>2019-06-09T13:38:08Z</time>
      </trkpt>
      <trkpt lat="48.94221" lon="1.69747">
        <ele>45</ele>
        <time>2019-06-09T13:38:14Z</time>
      </trkpt>
      <trkpt lat="48.94212" lon="1.69739">
        <ele>45</ele>
        <time>2019-06-09T13:38:22Z</time>
      </trkpt>
      <trkpt lat="48.94205" lon="1.6973">
        <ele>45</ele>
        <time>2019-06-09T13:38:30Z</time>
      </trkpt>
      <trkpt lat="48.94196" lon="1.69723">
        <ele>46</ele>
        <time>2019-06-09T13:38:35Z</time>
      </trkpt>
      <trkpt lat="48.94187" lon="1.69713">
        <ele>45</ele>
        <time>2019-06-09T13:38:41Z</time>
      </trkpt>
      <trkpt lat="48.94178" lon="1.69708">
        <ele>45</ele>
        <time>2019-06-09T13:38:51Z</time>
      </trkpt>
      <trkpt lat="48.9417" lon="1.69701">
        <ele>45</ele>
        <time>2019-06-09T13:38:59Z</time>
      </trkpt>
      <trkpt lat="48.94163" lon="1.69692">
        <ele>49</ele>
        <time>2019-06-09T13:39:07Z</time>
      </trkpt>
      <trkpt lat="48.94155" lon="1.69684">
        <ele>48</ele>
        <time>2019-06-09T13:39:14Z</time>
      </trkpt>
      <trkpt lat="48.94147" lon="1.69675">
        <ele>48</ele>
        <time>2019-06-09T13:39:21Z</time>
      </trkpt>
      <trkpt lat="48.94139" lon="1.69664">
        <ele>45</ele>
        <time>2019-06-09T13:39:27Z</time>
      </trkpt>
      <trkpt lat="48.94131" lon="1.69657">
        <ele>45</ele>
        <time>2019-06-09T13:39:33Z</time>
      </trkpt>
      <trkpt lat="48.94123" lon="1.6965">
        <ele>45</ele>
        <time>2019-06-09T13:39:38Z</time>
      </trkpt>
      <trkpt lat="48.94117" lon="1.69639">
        <ele>45</ele>
        <time>2019-06-09T13:39:44Z</time>
      </trkpt>
      <trkpt lat="48.9411" lon="1.69631">
        <ele>45</ele>
        <time>2019-06-09T13:39:50Z</time>
      </trkpt>
      <trkpt lat="48.94102" lon="1.69621">
        <ele>45</ele>
        <time>2019-06-09T13:39:56Z</time>
      </trkpt>
      <trkpt lat="48.94095" lon="1.6961">
        <ele>44</ele>
        <time>2019-06-09T13:40:04Z</time>
      </trkpt>
      <trkpt lat="48.94088" lon="1.69599">
        <ele>44</ele>
        <time>2019-06-09T13:40:13Z</time>
      </trkpt>
      <trkpt lat="48.94082" lon="1.6959">
        <ele>44</ele>
        <time>2019-06-09T13:40:19Z</time>
      </trkpt>
      <trkpt lat="48.94075" lon="1.69579">
        <ele>43</ele>
        <time>2019-06-09T13:40:27Z</time>
      </trkpt>
      <trkpt lat="48.94067" lon="1.69568">
        <ele>43</ele>
        <time>2019-06-09T13:40:36Z</time>
      </trkpt>
      <trkpt lat="48.9406" lon="1.69559">
        <ele>43</ele>
        <time>2019-06-09T13:40:42Z</time>
      </trkpt>
      <trkpt lat="48.94052" lon="1.69551">
        <ele>44</ele>
        <time>2019-06-09T13:40:48Z</time>
      </trkpt>
      <trkpt lat="48.94049" lon="1.69536">
        <ele>43</ele>
        <time>2019-06-09T13:40:56Z</time>
      </trkpt>
      <trkpt lat="48.9405" lon="1.69521">
        <ele>43</ele>
        <time>2019-06-09T13:41:07Z</time>
      </trkpt>
      <trkpt lat="48.94051" lon="1.69507">
        <ele>43</ele>
        <time>2019-06-09T13:41:21Z</time>
      </trkpt>
      <trkpt lat="48.94054" lon="1.69493">
        <ele>42</ele>
        <time>2019-06-09T13:41:28Z</time>
      </trkpt>
      <trkpt lat="48.94058" lon="1.69481">
        <ele>42</ele>
        <time>2019-06-09T13:41:36Z</time>
      </trkpt>
      <trkpt lat="48.94063" lon="1.69469">
        <ele>42</ele>
        <time>2019-06-09T13:41:44Z</time>
      </trkpt>
      <trkpt lat="48.94066" lon="1.69454">
        <ele>42</ele>
        <time>2019-06-09T13:41:51Z</time>
      </trkpt>
      <trkpt lat="48.9407" lon="1.69441">
        <ele>42</ele>
        <time>2019-06-09T13:41:59Z</time>
      </trkpt>
      <trkpt lat="48.94073" lon="1.69426">
        <ele>42</ele>
        <time>2019-06-09T13:42:07Z</time>
      </trkpt>
      <trkpt lat="48.94077" lon="1.69413">
        <ele>42</ele>
        <time>2019-06-09T13:42:15Z</time>
      </trkpt>
      <trkpt lat="48.9408" lon="1.694">
        <ele>42</ele>
        <time>2019-06-09T13:42:23Z</time>
      </trkpt>
      <trkpt lat="48.94088" lon="1.69391">
        <ele>43</ele>
        <time>2019-06-09T13:42:30Z</time>
      </trkpt>
    </trkseg>
  </trk>
</gpx>